GFSGBSN_sfc_thetae_000.txt.gz
Theta_e
314 313 313 313 313 314 316 316 319 319 323 323 324 324 324 322 321 319 318 318 318 319 318 320 322 322 317 308 307 314 322 319 320 319 314 311 303 300 296 297 299 298 301 304 306 307 307
312 312 311 312 313 313 313 315 316 317 319 323 323 324 324 323 321 320 319 318 318 318 319 319 320 319 307 295 308 309 309 310 313 316 312 311 306 306 299 299 297 300 300 301 303 304 305
311 310 310 311 311 310 312 313 314 315 316 320 322 323 323 323 322 320 319 318 319 318 319 318 319 313 304 300 308 307 309 305 307 310 309 312 310 305 304 298 302 300 295 298 299 301 301
310 310 310 309 308 309 310 311 311 312 314 316 318 321 321 322 322 321 320 319 319 319 319 318 318 309 298 310 309 308 307 304 306 308 306 311 312 306 302 302 299 297 294 288 295 299 301
309 309 309 308 309 309 308 307 309 310 312 314 315 317 320 321 321 321 321 319 318 317 317 318 306 301 294 310 306 307 306 302 302 303 304 308 303 298 297 292 288 291 283 287 291 298 299
310 308 308 308 308 308 307 307 308 309 310 311 313 313 316 320 321 320 320 318 317 315 313 311 308 297 300 299 304 306 306 305 301 301 300 299 297 292 293 289 279 283 285 289 290 295 295
308 307 308 308 307 307 307 306 307 309 309 309 312 314 314 318 320 320 316 308 300 300 305 296 297 297 300 304 306 304 305 302 300 296 290 294 289 287 289 291 290 288 287 287 291 296 294
307 307 308 308 307 307 306 306 307 308 308 309 310 311 314 315 320 319 311 301 298 299 293 301 301 301 303 304 298 301 305 297 294 288 290 290 285 290 292 292 292 291 288 287 290 294 294
308 308 308 307 307 307 306 306 306 307 308 309 310 310 313 314 319 313 306 301 305 303 290 294 299 298 299 302 297 297 301 296 291 288 290 285 287 292 291 289 287 286 285 285 285 290 291
308 308 308 307 307 306 306 305 306 307 308 308 309 309 312 313 312 309 303 307 306 302 278 285 293 297 299 300 294 303 302 297 291 289 289 288 292 290 287 287 288 283 289 289 288 284 278
308 308 307 307 306 306 305 305 306 307 307 308 308 309 311 312 308 304 306 306 305 295 268 289 293 304 301 295 297 296 302 299 289 288 288 284 286 287 286 287 289 286 290 288 288 285 282
308 308 307 306 306 305 305 306 306 307 306 306 308 309 311 307 309 308 309 309 302 277 268 287 293 294 294 295 297 298 298 302 299 292 291 287 291 290 288 290 290 291 287 286 286 285 277
308 307 307 306 306 305 305 305 305 306 306 308 308 309 309 308 303 310 310 301 283 273 288 286 289 293 293 291 293 294 292 291 288 284 284 289 288 292 292 286 289 288 284 276 276 276 274
307 307 306 306 305 305 305 304 305 305 306 307 308 309 308 307 311 310 304 290 275 283 284 291 290 291 288 291 291 293 291 288 292 289 285 278 275 287 290 288 285 285 284 276 270 274 273
307 306 306 305 305 305 304 304 305 306 306 307 309 305 304 304 311 308 295 283 280 284 290 288 289 286 286 289 289 290 289 288 290 291 283 281 278 288 290 291 291 286 281 286 280 280 277
305 305 305 305 305 304 304 304 305 307 306 308 303 299 300 306 311 303 290 284 284 291 292 290 284 287 284 286 285 287 286 287 290 292 292 286 280 286 289 291 291 288 290 281 281 273 270
305 305 305 304 304 304 303 304 305 307 307 308 300 293 302 308 307 296 285 284 287 295 294 290 287 286 288 286 287 286 283 286 290 289 291 288 285 281 288 285 284 285 284 284 284 281 271
305 304 304 304 303 303 303 303 305 306 307 305 297 288 306 308 291 292 285 287 293 293 295 296 293 292 288 287 285 282 282 286 292 291 287 291 288 280 282 288 291 288 285 284 278 273 278
304 304 303 303 303 303 302 303 305 306 307 301 294 297 306 304 286 288 289 290 292 293 293 294 292 293 294 289 284 285 286 291 293 291 288 290 286 279 280 285 289 287 287 286 285 284 276
304 304 303 303 303 303 302 303 304 306 308 303 295 289 296 298 297 291 288 288 288 295 294 296 294 294 291 290 289 285 286 291 293 293 297 295 288 283 278 282 286 284 285 286 285 279 279
303 303 303 303 303 302 302 302 304 306 307 304 298 290 292 285 291 291 292 290 288 289 294 296 294 293 292 289 289 287 288 290 293 296 295 292 284 286 287 287 287 287 287 286 283 284 280
303 303 303 303 303 302 301 303 304 306 307 300 295 293 294 291 293 289 289 289 289 291 294 292 291 293 293 291 290 285 289 289 289 292 292 293 284 286 284 288 287 286 288 289 288 286 285
303 303 303 303 303 301 301 303 304 305 306 296 297 300 296 293 293 288 288 289 290 295 295 295 296 294 293 294 297 297 296 294 294 293 291 289 285 285 281 288 287 282 286 287 289 290 288
303 302 302 302 302 301 301 302 303 305 305 300 299 299 295 289 292 290 292 292 292 295 292 295 297 295 298 303 301 297 293 293 294 294 295 288 285 286 282 286 280 289 293 291 289 291 292
303 302 302 302 302 301 301 302 303 304 306 301 301 299 298 290 293 292 294 293 294 296 295 295 297 299 302 300 294 289 289 289 290 293 293 294 288 285 283 283 287 289 293 289 287 289 294
303 302 302 302 302 301 301 302 302 304 305 302 301 303 300 294 291 296 295 295 293 293 294 296 297 300 302 297 292 286 279 285 282 286 288 293 292 287 286 282 277 284 294 298 297 288 296
302 302 302 301 301 302 301 302 302 303 304 302 301 304 300 296 297 299 295 294 297 294 292 292 292 295 298 293 289 287 285 287 281 281 286 287 286 285 285 284 284 289 290 297 287 288 291
302 301 301 301 301 301 301 302 301 303 304 303 299 304 302 297 299 301 300 296 295 295 292 296 294 295 294 290 289 289 288 286 282 284 284 285 283 283 282 280 278 291 290 286 290 290 290
302 302 302 301 301 301 301 301 301 301 303 304 297 302 304 300 297 301 302 301 302 302 298 297 296 296 297 294 291 293 289 285 285 281 286 285 288 285 286 285 291 291 291 293 292 291 289

GFSGBSN_sfc_thetae_003.txt.gz
Theta_e
312 312 311 311 312 311 311 312 313 313 315 318 320 322 323 323 324 322 319 318 319 318 319 318 320 321 317 309 308 315 319 318 321 319 315 311 305 302 298 300 301 301 303 306 307 307 308
311 311 311 311 310 309 310 309 310 311 312 314 317 319 320 322 323 323 321 319 319 318 319 318 319 317 308 299 309 308 310 311 316 318 313 312 308 307 302 301 299 301 301 302 303 304 305
311 311 310 310 309 309 310 310 309 308 310 312 314 316 317 321 321 323 320 319 318 319 319 318 319 312 303 300 308 308 308 306 308 312 311 313 311 307 306 301 304 302 298 299 300 302 302
310 310 309 309 309 309 308 308 307 308 308 310 311 313 315 316 320 322 321 320 319 320 319 318 318 308 297 310 310 308 307 305 306 309 308 312 313 308 304 304 299 297 297 291 297 300 301
308 308 309 308 310 309 309 308 307 307 307 309 309 310 313 315 316 320 321 321 320 318 318 319 308 301 294 310 306 308 306 302 303 305 306 308 305 299 301 294 290 292 286 289 292 300 299
308 308 308 309 309 309 309 308 308 307 307 309 308 309 311 313 315 318 320 320 319 315 312 310 309 299 300 298 305 305 307 305 301 302 301 300 297 293 293 290 281 284 286 288 289 295 296
310 310 310 309 309 309 308 308 307 307 307 307 308 309 310 312 315 317 317 310 302 299 303 296 297 297 300 305 306 303 305 302 301 298 291 295 290 286 289 291 290 290 288 288 291 295 293
310 309 309 309 309 308 308 308 307 307 307 307 308 309 310 311 315 316 313 302 299 300 293 301 301 301 304 305 298 301 305 297 295 290 292 291 286 291 292 292 291 290 287 287 291 294 293
309 309 309 309 309 308 308 307 307 307 307 307 308 309 309 310 313 311 307 304 305 303 291 294 299 299 300 302 297 297 301 297 292 289 290 286 288 293 291 290 289 288 287 287 287 290 292
309 310 310 309 309 308 307 307 306 307 306 307 307 307 308 309 305 309 304 308 307 301 279 286 292 297 300 301 294 303 303 298 292 289 291 289 292 290 288 288 289 284 290 289 288 286 280
310 309 309 309 308 307 307 306 306 307 306 306 306 307 308 309 303 305 307 308 304 297 268 288 292 304 301 295 296 297 303 298 289 289 289 285 287 287 287 288 290 286 290 288 288 286 284
309 309 309 308 307 307 306 306 306 306 306 305 305 307 308 306 306 306 310 308 301 282 269 286 293 294 293 294 297 298 298 302 298 291 291 288 292 290 289 290 291 291 288 287 286 285 277
307 308 308 307 307 306 306 306 306 306 306 305 305 305 305 306 299 310 310 301 283 275 287 286 289 294 292 290 293 294 292 291 288 283 283 288 289 291 292 287 289 289 285 278 276 276 275
306 306 307 306 306 306 306 306 305 305 306 306 306 307 306 306 309 310 304 290 278 282 283 292 291 292 289 291 292 292 290 288 292 289 284 277 276 288 291 288 285 285 285 278 271 272 276
305 305 306 306 306 305 305 305 305 306 307 307 308 302 303 304 308 307 295 283 281 284 290 289 290 287 287 290 290 290 290 289 291 291 284 280 280 288 289 291 290 286 282 287 280 280 277
305 305 305 305 305 305 305 305 304 305 307 308 302 300 300 306 308 303 290 285 285 292 292 291 285 287 284 286 286 288 288 289 290 293 294 288 280 286 289 291 291 288 290 280 281 273 272
306 305 305 305 304 304 304 304 304 305 307 308 300 293 301 307 307 295 285 287 288 294 294 290 287 286 286 286 286 286 284 287 290 290 293 290 285 283 289 285 284 286 284 285 284 281 275
305 305 305 304 304 304 304 304 304 305 308 304 296 288 303 306 289 288 287 288 294 292 295 295 292 290 287 288 286 286 283 286 291 291 288 290 287 281 282 289 291 289 286 285 279 276 280
305 305 304 304 304 304 303 303 304 305 307 301 293 297 304 301 286 287 290 291 293 293 293 293 291 293 292 288 284 286 286 291 292 291 288 290 286 278 278 285 289 286 287 287 286 284 278
305 304 304 304 304 303 303 303 303 305 307 303 295 289 296 298 296 288 287 288 288 295 294 295 293 293 291 289 290 286 286 291 292 292 296 294 288 280 279 282 286 284 286 287 285 280 279
305 304 304 304 303 303 302 303 305 306 308 303 298 290 292 287 290 290 291 290 288 288 293 295 292 293 291 289 289 288 288 289 292 294 294 292 283 285 287 287 286 286 286 286 284 284 280
304 304 304 304 303 304 302 303 305 306 307 299 292 293 291 290 293 290 289 286 287 289 293 292 290 293 294 291 290 286 288 288 288 291 292 294 285 286 284 288 287 284 287 287 287 286 285
304 304 304 303 303 303 302 304 304 305 305 296 297 299 296 293 291 288 286 288 290 293 294 296 295 294 292 294 297 297 297 295 294 292 290 289 286 284 281 287 287 281 286 287 288 289 287
303 303 303 303 303 303 302 302 303 305 305 300 299 297 294 289 290 289 290 291 292 292 291 296 297 295 298 301 301 299 297 294 293 292 294 290 286 285 282 285 279 289 294 292 289 289 291
303 302 303 303 303 303 302 302 303 303 305 300 301 297 295 289 293 291 291 290 290 293 295 295 296 298 303 298 292 290 289 288 289 291 291 293 289 285 282 283 287 288 292 289 288 287 292
303 303 303 303 302 302 302 302 302 303 304 301 300 302 298 293 290 295 292 292 291 292 294 296 299 301 300 296 292 286 279 282 282 284 289 293 292 287 285 281 280 286 293 294 295 287 294
303 303 303 303 303 302 302 302 302 302 303 301 300 302 297 294 296 294 291 292 297 295 293 294 295 292 298 293 288 287 284 285 281 282 284 287 287 284 284 284 285 290 292 296 286 288 291
302 302 302 302 302 302 302 302 302 302 302 301 298 302 295 295 298 300 299 295 294 293 293 296 295 295 294 289 289 289 286 285 282 284 285 284 283 282 284 282 278 291 292 288 291 291 291
301 301 301 302 302 301 301 302 301 301 302 303 296 300 300 295 298 302 302 302 302 302 299 298 295 296 297 293 292 293 289 287 284 281 286 285 287 285 286 285 290 292 291 293 292 290 291

GFSGBSN_sfc_thetae_006.txt.gz
Theta_e
312 312 312 311 311 310 310 311 311 310 310 310 312 314 317 319 321 323 323 321 319 320 319 318 320 320 320 311 309 317 318 321 326 324 317 314 309 306 302 304 306 305 305 308 310 310 310
311 311 311 310 310 310 310 310 309 309 309 309 310 312 314 317 318 321 323 322 319 320 319 318 319 317 311 304 313 313 314 319 322 321 316 314 311 310 305 303 303 304 305 306 307 307 308
310 310 310 310 310 311 311 310 309 309 308 309 309 311 311 313 316 317 321 321 320 319 319 319 318 314 306 303 312 313 312 312 315 320 313 315 314 309 308 303 307 305 300 303 304 305 304
309 310 310 310 310 310 310 310 309 309 309 308 308 310 310 311 314 316 320 322 320 320 320 319 318 311 301 311 315 311 311 310 313 315 317 319 318 310 305 307 303 299 300 295 301 302 304
310 311 311 310 310 310 309 309 309 309 308 308 308 308 309 309 312 314 316 321 320 320 319 319 310 305 300 312 307 311 311 308 309 310 313 315 309 303 304 298 295 296 291 293 296 302 302
311 310 310 310 310 310 310 310 309 308 308 308 308 308 308 310 311 313 315 320 319 317 315 312 309 301 304 300 307 308 310 309 306 306 304 304 303 298 298 295 288 290 290 292 292 297 299
310 310 311 311 311 310 309 309 309 308 308 307 307 307 308 309 310 312 313 314 303 302 306 300 301 299 302 307 309 306 308 306 305 303 296 299 294 291 294 296 295 292 291 291 294 298 295
310 311 311 311 310 310 309 309 308 308 307 307 307 308 308 309 310 311 311 302 303 306 297 304 303 303 305 307 299 303 308 300 298 294 297 294 289 296 296 295 293 292 290 290 294 296 295
311 311 310 310 310 309 309 308 308 307 307 307 306 307 308 308 309 308 305 306 309 306 296 299 302 301 302 305 299 300 304 300 296 293 294 292 292 295 294 292 291 291 290 290 290 293 295
309 309 309 310 309 308 308 307 307 307 307 306 306 306 307 307 304 305 302 310 309 304 287 290 296 300 302 304 297 306 305 300 296 292 294 293 296 292 291 290 292 288 293 291 290 288 284
308 308 308 308 308 307 307 307 307 307 306 305 306 306 306 306 300 300 307 310 305 300 280 292 294 306 303 297 298 299 306 300 293 292 293 290 291 290 288 290 293 289 293 291 290 288 287
308 307 306 307 307 307 306 306 306 306 306 306 305 306 306 303 303 305 309 307 302 284 279 288 295 294 294 296 297 299 299 302 299 293 294 293 295 293 293 294 294 294 291 290 289 287 280
306 306 307 307 307 306 306 306 306 306 306 305 306 306 304 303 296 307 309 300 283 281 290 287 289 293 292 291 293 295 293 291 290 284 285 289 291 294 294 290 293 292 287 281 278 278 279
307 307 306 306 306 305 305 305 305 305 305 306 306 308 307 303 307 307 303 289 281 286 287 293 292 292 289 291 293 292 291 288 293 290 287 284 283 290 294 291 288 288 288 282 275 277 280
307 307 306 306 305 305 305 305 305 305 307 307 307 306 304 307 308 306 292 283 286 288 292 289 291 288 288 290 292 290 290 289 292 293 286 284 282 291 293 294 293 287 283 290 283 284 279
306 306 306 305 305 305 305 305 304 305 307 308 299 302 302 309 308 301 289 286 288 294 294 293 286 289 285 287 289 289 289 293 292 295 296 289 283 290 291 294 293 290 292 283 284 275 275
306 306 305 305 305 305 305 304 304 305 306 307 299 293 302 309 303 292 286 287 291 296 296 292 289 288 289 288 289 288 289 291 294 294 296 292 287 286 289 287 287 287 284 286 286 284 277
306 306 305 305 304 304 304 303 304 305 306 304 296 287 305 306 289 289 288 289 296 294 299 296 295 293 290 291 289 289 289 290 295 296 290 293 289 283 286 292 293 292 288 287 280 279 283
306 306 305 305 304 304 304 303 304 305 306 300 292 293 304 302 287 288 291 291 296 295 296 295 293 294 294 291 287 290 290 294 295 295 292 294 287 281 285 288 291 287 289 289 287 286 281
305 305 305 304 304 304 304 303 304 305 306 304 292 287 295 295 298 292 291 291 292 298 297 297 295 296 293 290 292 289 290 294 296 295 296 296 290 285 282 286 289 286 287 288 286 282 283
305 305 305 304 304 304 304 303 305 307 307 303 295 291 294 287 292 294 294 293 291 291 297 298 294 293 292 289 290 289 291 292 294 296 296 294 285 287 288 288 288 288 287 288 285 286 283
303 304 304 304 304 304 303 303 305 306 307 298 290 293 297 294 294 294 293 291 291 293 294 292 293 295 294 291 291 290 292 292 292 295 293 295 286 287 284 289 289 286 288 289 288 288 288
304 304 304 304 303 304 303 304 305 306 304 297 298 298 298 292 292 292 291 291 292 295 296 297 296 294 293 295 297 298 297 297 295 294 292 290 287 285 282 289 289 284 288 289 289 290 289
304 304 304 304 303 303 303 303 304 304 304 300 299 297 295 290 292 292 293 294 293 294 295 296 296 295 299 304 302 300 300 297 297 297 297 291 287 286 283 287 281 292 294 293 291 291 293
304 303 303 303 303 303 303 302 303 303 304 301 301 297 294 292 293 293 294 293 296 298 296 296 298 301 304 300 293 290 290 291 293 296 296 296 291 286 284 284 289 291 293 293 290 291 295
303 302 302 302 302 302 302 302 303 302 303 302 301 300 297 293 293 296 295 294 293 293 295 297 302 304 303 296 292 286 285 287 286 289 295 294 293 288 286 282 282 290 295 296 295 289 296
303 302 302 302 302 302 302 302 303 301 302 302 300 300 296 292 300 298 295 295 300 298 293 295 296 297 302 294 289 286 287 290 286 287 287 287 287 285 285 284 289 295 295 299 288 289 295
302 302 301 301 300 300 300 300 300 301 301 301 300 301 295 291 293 302 302 299 299 299 294 297 296 296 295 289 288 289 288 291 289 291 290 289 287 285 288 284 284 296 297 292 296 298 295
302 301 301 300 300 299 299 299 300 300 300 301 296 302 300 292 296 304 305 305 305 304 301 300 297 297 297 293 292 292 289 292 291 288 293 289 293 292 292 293 297 298 299 300 298 296 296

GFSGBSN_sfc_thetae_009.txt.gz
Theta_e
311 311 311 312 311 311 311 311 310 310 310 310 310 310 311 313 315 317 319 322 323 320 320 320 319 321 320 311 310 321 321 324 327 324 317 314 310 309 304 306 307 305 306 307 309 310 310
311 311 311 311 311 311 311 311 311 310 310 310 310 309 310 311 312 314 317 320 323 320 320 320 318 320 314 304 318 317 318 320 321 322 316 316 311 311 307 306 304 306 306 307 309 309 309
312 311 312 312 311 310 311 310 311 310 310 310 310 310 309 309 310 312 314 318 321 320 320 320 319 315 308 307 315 316 318 317 322 322 314 316 314 311 309 304 308 306 302 304 305 306 305
312 312 312 311 312 311 311 311 310 310 310 310 309 309 309 309 309 310 312 316 317 321 320 320 318 312 303 313 316 312 316 317 321 322 318 319 316 310 307 308 304 300 302 297 304 304 305
312 312 311 312 311 312 311 311 310 310 310 310 309 308 309 309 308 309 311 313 316 320 320 319 311 308 301 313 308 312 314 312 313 316 318 317 314 306 304 299 296 298 294 296 299 304 303
311 311 311 312 312 312 312 311 310 309 309 309 308 308 308 308 308 309 311 312 314 318 316 314 310 302 306 303 309 311 313 313 309 309 307 305 303 299 299 297 290 293 293 295 294 298 300
312 312 312 312 312 311 311 310 310 309 308 308 307 307 307 308 309 310 310 307 306 303 307 302 302 301 304 309 311 308 310 309 308 304 296 300 294 293 297 299 298 295 293 292 296 299 296
310 310 311 310 310 310 310 309 309 308 308 308 307 307 307 307 308 309 308 299 303 304 297 305 304 304 307 309 301 305 309 302 301 296 299 294 291 298 300 298 296 295 292 292 295 298 296
309 310 310 310 309 309 308 308 308 308 308 307 307 307 307 307 307 307 303 301 309 306 298 299 303 303 303 306 301 301 305 302 298 295 295 293 295 297 296 295 292 293 292 292 292 295 296
309 308 308 308 308 308 308 307 307 307 307 307 306 306 306 306 303 301 300 308 308 306 287 292 296 301 304 305 298 307 307 302 298 294 295 295 298 294 293 292 294 289 296 294 292 290 286
309 308 309 308 308 307 307 306 306 306 306 306 305 306 306 305 301 298 304 309 307 302 280 293 296 307 304 299 300 300 307 301 294 294 295 292 292 292 291 292 295 291 294 292 291 289 287
308 309 308 308 307 306 306 306 306 306 306 306 305 306 306 304 303 303 307 307 302 284 279 289 294 294 294 297 298 300 300 303 301 295 295 294 297 295 294 295 295 295 292 290 290 286 280
308 308 308 307 307 306 306 306 306 306 305 305 306 307 305 304 297 305 306 299 283 279 291 287 289 294 292 291 293 295 293 292 290 285 285 291 291 295 296 291 294 292 287 283 280 279 280
307 308 307 307 306 306 306 305 305 305 306 306 308 307 307 307 304 304 300 290 281 288 289 293 292 292 289 291 292 293 291 288 294 292 289 284 285 291 294 292 290 288 288 283 277 279 282
307 307 307 307 306 306 306 305 304 305 306 308 307 305 304 305 305 304 291 283 283 290 293 291 290 287 288 290 292 292 291 290 293 294 288 287 285 293 294 295 294 289 285 291 284 285 280
307 307 307 306 306 305 305 305 304 305 307 308 301 301 301 307 308 300 289 287 288 295 295 293 287 290 285 287 289 289 289 294 292 296 297 291 284 291 293 295 295 292 293 283 284 276 276
307 307 306 306 305 305 305 304 305 306 307 307 300 293 303 309 306 293 286 287 292 297 297 293 291 289 289 288 290 289 290 294 296 296 296 293 289 287 291 288 288 288 286 287 287 285 279
306 307 306 306 305 305 305 304 305 306 308 304 297 288 304 308 289 291 290 290 296 295 298 296 296 294 292 292 291 291 291 292 297 297 291 294 289 284 287 293 295 292 288 287 282 281 283
305 306 305 305 305 305 305 304 305 306 308 302 294 293 304 303 287 289 290 292 296 295 296 296 294 295 296 293 289 292 293 296 297 296 293 294 288 282 285 290 293 289 291 290 289 287 282
304 305 305 305 305 305 304 304 305 306 308 304 291 288 294 296 298 294 290 291 292 299 297 298 296 297 294 292 294 291 291 295 297 297 298 298 290 286 283 287 290 286 289 290 288 283 284
304 305 305 305 304 304 304 304 305 307 307 303 293 292 296 289 292 294 295 294 292 292 298 298 294 294 293 290 291 290 293 294 296 298 296 294 286 288 289 290 290 289 288 289 285 287 283
304 305 305 305 305 304 304 304 306 306 307 299 291 292 296 295 296 295 294 293 293 294 295 293 293 295 295 292 293 290 293 293 292 295 294 295 287 288 285 290 290 288 291 291 290 289 288
304 304 304 304 304 304 304 305 305 306 306 297 299 300 296 293 294 293 294 293 294 296 297 298 297 296 294 296 299 299 299 298 297 294 292 291 288 285 283 290 289 286 290 290 290 291 290
304 303 303 303 303 303 303 303 304 304 305 301 299 297 295 290 293 293 294 295 294 296 295 297 298 296 300 305 303 301 299 298 297 295 296 291 287 287 284 287 282 293 297 296 292 294 295
303 303 302 303 303 303 303 303 303 302 304 301 301 297 294 293 296 295 295 296 297 297 296 297 298 301 305 301 295 291 291 291 293 296 295 295 291 286 283 284 288 293 295 294 291 292 296
303 302 302 302 301 301 301 301 302 302 302 302 301 300 295 292 295 298 296 296 295 295 296 297 303 306 303 298 292 286 286 289 287 290 296 295 294 288 287 282 281 293 296 299 297 289 297
303 302 302 301 301 300 300 300 300 301 302 301 302 301 296 292 300 300 296 296 299 298 295 297 298 297 301 294 289 288 287 292 287 287 287 288 288 284 284 284 289 298 298 301 289 290 297
302 302 302 301 300 300 300 300 300 300 300 300 299 301 295 290 294 301 303 300 302 300 295 298 297 297 296 290 289 289 289 292 290 293 291 289 287 286 286 283 283 299 299 293 298 300 299
302 302 301 301 301 300 300 300 300 300 300 300 294 301 301 291 293 300 304 307 306 306 302 301 299 298 298 292 292 292 290 293 292 287 296 290 294 293 292 293 301 303 300 303 301 299 299

GFSGBSN_sfc_thetae_012.txt.gz
Theta_e
313 313 313 313 313 313 312 312 312 312 311 312 311 311 311 310 310 311 313 316 320 322 321 321 320 319 317 310 309 323 325 326 326 324 317 311 308 306 301 303 304 302 303 306 307 307 306
313 313 313 313 313 312 312 312 312 312 312 312 311 311 310 310 310 310 311 313 317 321 321 321 319 319 311 303 320 318 319 319 320 321 317 314 311 311 306 304 303 305 305 305 306 306 307
313 313 313 313 312 313 313 313 312 312 312 312 312 311 310 310 310 310 310 312 314 318 321 320 320 315 307 306 317 318 317 316 319 320 315 316 315 310 308 304 307 305 300 303 303 304 303
314 313 313 313 313 313 313 312 312 312 311 311 311 311 310 309 309 309 309 310 313 315 318 320 320 311 302 314 315 312 317 315 319 322 319 319 317 310 306 307 304 299 299 293 301 303 303
312 313 312 313 312 312 312 312 312 311 310 310 310 310 309 309 309 309 309 310 312 314 318 319 311 307 299 312 308 311 314 313 315 317 318 318 314 307 305 297 293 296 289 292 296 302 301
313 312 311 312 311 311 311 311 310 310 309 309 309 309 308 308 308 309 309 310 312 312 317 315 311 302 304 303 308 310 313 314 309 311 308 308 304 297 297 293 285 289 290 293 292 297 297
311 311 311 310 310 310 310 310 309 309 309 308 308 308 308 308 308 308 307 306 301 303 307 301 301 301 303 309 311 307 310 309 308 305 296 300 293 290 294 296 296 295 292 290 293 297 294
311 310 310 310 310 310 309 309 309 308 308 308 308 307 307 308 308 308 306 298 301 304 296 305 304 304 307 308 301 304 310 302 300 295 298 294 289 296 299 298 295 294 291 289 293 296 293
310 310 310 310 310 309 308 308 308 308 307 307 307 307 307 307 307 305 301 300 308 304 297 299 303 303 303 306 300 301 305 303 297 294 295 291 294 298 296 294 292 291 289 289 289 293 293
310 310 310 310 309 308 307 307 307 307 307 307 307 306 306 306 302 302 298 306 307 305 287 292 296 301 303 305 298 306 306 302 298 294 295 293 297 294 293 292 293 287 293 293 292 287 281
310 309 309 309 308 307 307 307 307 307 306 306 306 306 306 305 300 297 302 307 305 300 278 293 296 307 304 299 300 300 307 302 294 295 295 291 292 292 290 291 294 290 294 291 290 286 283
309 309 309 308 308 307 307 307 306 306 305 306 307 307 307 304 303 302 306 306 299 282 278 288 295 295 295 298 298 300 300 303 301 295 296 294 297 295 293 295 295 295 291 289 287 284 274
308 308 309 308 308 307 307 307 306 305 306 307 307 308 307 306 296 305 304 297 282 278 290 287 290 294 293 292 294 295 293 292 288 285 285 290 291 294 296 290 293 292 287 276 274 275 274
307 308 308 307 307 306 306 307 305 306 306 308 309 309 306 306 305 304 299 288 278 286 288 292 293 293 289 292 292 293 291 288 293 290 287 281 282 290 294 291 288 289 287 277 273 273 277
307 308 307 307 307 306 307 306 305 306 308 308 309 305 302 305 307 303 290 281 282 289 292 290 291 287 287 291 291 290 289 288 291 292 285 284 285 294 294 294 293 288 282 288 282 281 275
308 306 307 306 306 306 306 305 305 307 308 309 302 302 299 305 305 299 288 286 287 293 294 293 286 289 284 287 288 289 289 292 291 294 295 291 281 290 292 294 293 289 291 282 281 268 272
306 306 306 306 306 305 306 305 306 307 308 309 301 294 301 307 306 294 285 286 291 296 296 293 290 288 288 287 289 288 288 293 294 294 295 292 286 286 289 287 286 287 285 286 284 281 273
306 306 306 306 305 305 305 305 305 307 309 305 297 289 304 307 290 290 288 289 296 295 299 296 296 293 289 289 289 289 289 292 297 296 290 293 289 279 284 291 293 291 287 286 280 275 280
306 306 306 305 306 305 305 305 305 306 308 302 294 294 305 304 286 288 291 292 295 295 296 295 294 296 294 291 288 291 292 295 296 295 291 293 286 277 280 288 290 288 289 289 287 286 280
305 306 305 305 305 305 305 305 306 306 308 304 295 287 294 297 296 291 289 291 292 299 297 298 295 296 294 291 293 290 291 295 295 296 299 297 290 281 277 281 287 283 287 290 288 282 282
305 305 304 305 305 304 304 305 306 307 308 303 295 292 295 290 293 293 293 293 292 291 298 298 294 294 293 289 290 290 292 293 295 297 295 292 283 284 287 289 288 287 287 288 286 287 283
304 305 304 303 303 304 303 305 306 306 307 300 293 292 295 295 296 293 294 292 292 294 295 293 293 294 294 291 292 289 292 292 291 294 292 293 285 286 281 288 287 285 288 289 290 290 290
304 304 303 303 303 303 303 305 305 305 304 298 299 300 295 293 294 292 293 293 294 297 297 298 297 295 294 295 298 298 297 297 296 293 291 290 288 284 278 287 286 284 288 290 292 292 291
304 304 303 303 302 302 302 302 302 303 303 300 298 297 293 290 293 292 294 295 295 296 294 297 298 296 299 303 302 299 298 296 297 294 295 290 287 286 282 283 276 289 296 296 293 294 295
303 303 303 303 302 301 301 301 301 302 303 298 300 295 293 291 294 294 295 295 296 296 296 297 298 301 303 299 293 290 291 290 292 295 294 294 289 285 282 278 285 289 294 293 290 290 295
304 303 303 302 302 301 301 300 301 301 301 298 301 300 295 291 293 298 295 296 293 293 294 297 302 303 301 297 291 285 284 287 286 289 295 295 293 287 285 280 277 289 294 298 296 287 293
304 303 303 302 302 301 301 300 300 300 300 298 299 301 296 292 297 296 295 295 297 296 293 296 297 297 299 292 289 287 286 291 285 285 286 288 289 285 284 283 285 293 295 298 285 287 295
304 303 302 302 302 302 301 301 300 300 300 298 296 302 295 290 292 297 300 298 299 298 293 297 295 295 294 289 288 289 288 290 287 290 288 286 285 285 285 283 279 295 295 289 294 295 295
304 302 301 302 302 301 301 301 301 300 300 299 292 298 300 292 292 298 299 300 302 304 301 299 298 297 298 292 292 292 289 291 289 284 292 287 290 289 287 287 295 298 297 297 297 295 295

GFSGBSN_sfc_thetae_015.txt.gz
Theta_e
315 314 313 313 313 313 313 314 314 313 313 313 313 313 313 312 311 311 311 311 312 316 321 323 322 320 315 308 307 324 329 330 325 323 315 312 306 303 299 300 301 298 301 304 305 305 303
314 315 314 314 314 315 314 314 314 314 314 314 313 312 312 311 311 310 310 311 310 314 317 321 321 320 310 300 318 321 320 321 321 320 315 314 307 307 303 302 300 302 302 302 304 303 304
313 314 314 313 313 313 313 313 312 312 312 313 311 311 311 311 311 310 309 310 310 311 315 318 321 314 305 304 317 316 317 316 319 319 314 317 314 310 305 301 305 303 298 300 301 302 301
314 314 312 312 312 311 312 312 311 311 311 311 310 310 310 310 310 309 309 310 310 310 313 317 320 311 300 314 313 316 317 315 316 319 318 318 316 310 306 304 302 298 297 291 299 301 302
313 312 312 312 312 312 311 311 310 310 310 310 309 309 309 309 309 308 309 309 310 311 313 316 313 306 298 313 308 309 314 312 317 318 319 318 314 305 305 298 292 292 286 290 294 301 300
312 312 311 312 312 311 311 310 309 309 309 309 308 308 308 308 308 308 308 309 309 310 310 314 311 300 304 302 308 309 310 315 311 313 311 309 306 297 297 294 285 286 287 290 290 295 297
311 311 311 312 311 310 309 309 308 308 308 308 308 308 308 308 308 308 305 301 296 299 303 300 298 300 302 308 310 307 309 310 309 306 296 301 294 290 290 293 293 291 289 288 291 295 292
311 311 311 311 310 310 309 309 308 308 308 308 308 308 308 308 307 308 304 294 298 301 294 305 303 304 307 308 300 304 309 301 301 295 296 292 287 293 297 296 294 291 289 287 290 294 292
310 310 310 310 310 309 308 308 308 308 307 307 307 307 307 307 307 303 298 298 306 304 293 299 304 302 303 306 300 300 305 301 296 294 293 288 292 297 295 293 291 288 287 287 287 291 290
310 309 310 310 310 309 308 308 308 307 307 306 306 306 307 306 300 299 297 305 306 303 284 291 296 301 304 304 298 305 306 302 298 293 294 294 296 294 292 291 291 285 291 291 289 285 279
309 309 310 310 309 308 308 308 308 307 306 307 307 307 308 307 300 295 301 305 303 297 276 292 295 307 304 299 299 299 306 302 295 294 294 290 292 292 289 290 292 288 292 289 289 283 280
308 309 309 309 308 308 307 308 308 306 307 308 308 308 308 305 303 300 303 304 299 281 275 288 295 295 295 297 298 299 300 303 301 296 295 292 295 293 292 294 293 293 289 287 285 282 272
308 309 308 308 308 308 307 307 306 306 308 308 308 308 308 306 296 303 303 296 280 275 289 287 291 294 293 292 293 295 294 291 287 283 284 290 289 292 294 289 291 290 283 271 274 276 273
308 307 307 307 307 307 306 307 305 306 307 307 308 309 305 305 304 302 297 287 276 285 286 293 294 293 289 292 292 293 291 287 291 288 281 278 277 288 292 289 286 286 284 275 272 271 275
308 307 307 307 307 306 307 306 306 307 308 308 309 301 301 305 304 299 291 278 280 286 292 290 291 288 288 291 290 291 290 288 289 289 281 278 281 292 292 293 291 285 280 286 277 277 270
307 306 308 307 307 306 306 306 306 308 308 309 301 298 298 305 303 296 288 285 285 289 294 293 285 288 284 288 286 288 288 291 290 292 291 289 280 289 292 293 292 288 289 277 275 268 270
307 307 306 306 307 306 306 306 306 307 310 309 297 292 299 303 302 292 285 285 290 295 296 292 287 287 287 287 288 287 287 291 292 292 292 292 285 285 291 286 284 285 281 283 281 278 271
306 306 306 306 306 305 305 306 306 308 309 303 295 288 300 304 290 290 287 289 295 293 297 296 294 290 287 289 286 285 285 289 295 295 288 292 288 279 282 289 291 288 285 284 276 273 277
306 306 305 305 305 306 305 306 306 308 309 298 292 293 302 301 286 287 291 293 295 296 296 295 294 294 293 288 286 289 290 293 296 294 289 292 284 275 281 285 290 286 287 287 285 283 278
306 306 304 304 304 305 305 305 306 306 309 296 290 283 290 294 295 291 289 291 290 297 296 297 294 293 290 290 291 289 288 293 294 295 299 296 287 278 276 278 286 281 286 287 286 281 280
306 305 304 304 304 303 303 304 305 307 308 298 293 289 290 281 288 289 294 293 291 291 297 296 293 293 291 287 288 288 290 290 293 297 295 293 279 281 285 287 286 285 285 286 284 286 282
306 305 304 304 304 303 302 302 305 306 306 297 291 291 293 290 292 290 291 290 292 293 294 291 291 293 294 289 290 287 291 290 288 291 290 291 282 286 281 286 286 284 286 287 287 287 288
305 304 304 304 303 303 302 301 303 305 303 297 297 299 295 290 289 289 289 293 293 295 295 296 294 294 293 294 296 295 297 295 293 291 291 290 285 279 273 285 284 281 286 287 289 292 292
305 304 304 303 303 302 302 301 301 302 301 298 297 295 292 286 289 292 292 293 294 294 292 296 297 295 297 301 299 297 295 295 296 294 294 287 286 281 277 281 274 288 293 294 291 293 294
304 305 303 304 303 302 302 301 301 301 301 293 299 294 292 288 290 291 292 292 293 294 294 296 297 299 301 297 291 289 290 287 290 293 293 294 289 283 280 276 282 288 292 291 289 289 293
304 306 303 303 302 302 301 302 301 301 301 293 299 299 294 290 291 295 294 295 289 288 291 296 300 301 299 294 289 281 283 287 284 289 294 294 293 287 284 278 276 287 292 296 294 286 293
303 305 303 302 303 302 302 301 301 301 300 294 294 300 295 290 295 293 293 294 297 294 291 295 295 295 296 289 286 284 283 288 283 282 286 288 288 284 284 282 283 291 293 296 284 285 293
303 304 302 302 302 302 302 301 301 301 300 294 290 298 294 290 290 294 296 296 295 294 289 293 292 294 291 288 287 287 286 289 285 287 286 285 284 285 286 282 278 293 294 289 293 294 294
302 303 302 301 301 302 301 301 301 301 300 298 287 293 296 290 290 295 295 296 297 299 300 295 295 294 295 290 290 291 289 288 286 282 290 286 287 285 286 285 292 295 296 296 295 294 293

GFSGBSN_sfc_thetae_018.txt.gz
Theta_e
315 314 316 314 313 313 312 312 313 313 313 313 314 314 313 312 312 312 310 309 310 311 312 315 318 322 315 305 306 321 330 331 325 319 313 310 305 302 297 299 300 296 299 303 304 304 303
314 315 314 313 313 312 313 313 312 312 312 312 312 311 311 311 311 311 310 310 310 310 310 312 316 320 309 297 316 322 322 322 321 318 313 311 307 306 301 300 298 300 301 301 302 302 303
314 313 313 313 313 313 313 312 311 311 311 311 311 311 310 311 310 310 309 309 310 310 310 312 315 315 305 301 315 318 321 318 321 318 312 315 313 307 304 300 304 302 297 299 300 301 300
314 313 313 312 313 312 312 310 310 310 310 310 310 310 309 309 309 309 309 309 309 309 310 312 315 313 299 313 312 314 316 314 316 319 317 318 314 307 303 303 300 297 296 290 297 300 301
312 312 312 312 312 312 311 310 309 309 309 309 309 309 308 308 309 308 309 309 309 310 311 311 310 307 297 315 308 313 315 312 316 318 318 318 314 305 301 295 290 291 285 288 293 300 299
313 313 312 312 312 311 311 309 309 309 309 309 309 308 308 308 308 308 308 309 309 309 307 309 311 299 301 301 308 308 310 315 311 312 310 309 306 299 296 294 284 285 285 288 289 294 295
312 312 311 311 311 311 310 309 308 309 309 308 308 308 308 308 308 308 305 299 294 294 300 298 300 299 300 308 310 306 308 311 311 306 298 302 296 292 293 292 292 293 289 287 290 294 291
311 311 310 311 311 310 309 309 309 309 308 307 307 307 307 307 307 307 302 293 296 297 290 301 303 303 306 307 301 304 310 303 303 295 297 294 291 296 296 296 293 293 288 286 290 292 290
311 310 310 311 310 309 309 308 309 309 308 306 306 307 307 308 308 302 298 297 304 302 291 295 302 301 303 305 300 300 305 302 299 294 293 289 292 296 294 292 291 288 286 286 286 289 288
310 310 310 310 310 309 308 308 308 308 306 307 308 307 308 308 301 298 296 304 306 301 280 290 295 300 304 304 297 305 308 301 298 293 293 292 295 294 292 291 290 284 290 290 288 284 279
309 310 308 308 309 308 308 307 308 307 307 307 308 308 308 308 300 296 300 302 302 296 273 292 296 308 304 298 299 300 306 302 294 294 295 290 291 290 289 291 292 288 292 289 287 282 279
308 309 308 308 308 308 307 308 307 306 307 307 308 308 309 306 304 302 302 301 297 280 273 287 296 295 295 297 297 300 300 303 302 296 295 290 294 293 291 293 292 293 288 286 284 280 271
308 308 308 308 308 307 307 307 306 307 307 308 309 308 306 306 297 304 303 295 277 273 286 287 290 294 293 292 293 296 294 292 289 285 286 290 288 292 294 288 291 288 282 272 270 268 272
308 307 307 308 307 307 306 307 306 307 308 309 308 306 305 304 304 301 298 285 275 283 286 294 293 292 289 292 293 293 291 288 291 287 285 279 277 288 291 288 286 285 283 274 271 271 273
308 307 307 307 307 307 307 306 307 308 310 310 307 302 302 302 302 299 291 279 279 284 292 291 291 287 288 290 291 291 290 289 289 289 281 278 280 291 291 292 290 284 278 284 276 274 269
307 307 306 307 306 305 306 306 307 310 311 309 296 296 297 303 302 297 288 284 285 289 294 293 285 288 284 286 286 288 288 290 289 291 290 286 278 289 291 292 290 286 288 276 272 265 269
307 307 306 305 305 305 305 306 306 309 310 307 294 289 298 305 302 292 285 285 289 297 296 292 287 286 286 286 286 285 286 289 291 291 291 288 283 282 288 285 283 284 280 281 280 276 270
307 306 305 305 304 304 304 305 306 308 310 301 292 282 300 305 290 290 286 288 294 294 296 295 291 289 287 288 286 285 285 288 293 292 287 290 285 274 282 287 289 287 284 282 273 272 275
307 306 305 305 304 303 303 304 305 307 309 295 288 288 299 299 286 288 291 293 295 295 295 294 291 292 292 287 284 286 288 292 294 293 289 290 283 273 278 285 288 284 286 286 283 280 272
306 305 305 305 304 303 303 303 304 305 308 295 288 281 288 294 292 289 290 289 290 296 295 295 291 293 290 288 289 287 288 292 295 295 298 295 285 277 275 277 284 279 284 285 284 279 278
306 305 305 304 304 303 303 303 303 305 306 296 290 290 292 283 287 291 293 292 290 290 295 295 292 291 290 287 287 287 289 290 293 298 296 292 279 280 284 286 285 284 284 285 282 284 281
305 305 305 304 304 303 302 302 303 304 305 295 292 291 293 288 291 289 290 288 290 292 292 291 291 293 292 289 289 287 289 288 287 289 289 292 284 285 283 285 285 282 285 285 286 286 287
304 306 304 305 304 303 302 302 302 302 300 293 292 297 294 289 288 287 287 290 291 293 294 295 293 293 292 293 295 294 293 293 291 289 287 287 284 281 273 283 283 279 283 285 286 287 287
304 305 304 304 304 303 302 302 301 301 300 296 295 295 292 286 287 289 291 293 292 293 291 294 296 294 296 299 298 295 295 295 294 293 295 289 284 280 274 280 272 286 290 291 288 290 292
303 305 304 303 303 302 302 302 302 301 301 292 299 291 291 286 290 290 291 291 292 293 292 294 296 298 300 296 290 289 289 288 291 293 292 293 289 277 276 276 282 287 291 290 289 288 293
303 304 305 302 303 303 302 302 302 301 301 290 297 299 293 288 287 293 291 293 288 286 289 294 298 299 298 293 288 282 283 287 286 289 294 292 292 286 283 278 276 285 291 295 293 284 293
302 303 304 302 302 303 302 301 301 301 300 292 290 297 293 289 293 290 291 293 294 290 288 291 293 293 294 288 285 283 280 289 284 284 286 288 288 284 284 282 282 289 291 295 282 284 293
302 302 303 302 300 301 302 301 300 301 300 293 289 293 289 289 289 292 294 294 295 292 287 291 291 292 290 287 285 287 286 288 287 288 286 286 284 285 285 282 278 292 293 288 292 293 294
302 302 303 303 301 301 302 301 300 301 300 298 287 292 293 287 286 293 295 296 295 297 296 295 292 291 292 287 286 289 288 288 285 284 288 286 287 285 286 285 292 294 294 296 295 293 293

GFSGBSN_sfc_thetae_021.txt.gz
Theta_e
314 314 313 313 313 314 314 314 312 312 312 312 312 312 312 311 311 312 311 311 310 310 311 311 312 315 315 303 303 318 328 330 324 321 313 308 304 302 297 299 299 296 299 302 303 304 302
315 314 313 313 313 314 313 312 311 310 311 311 311 311 311 311 310 310 310 310 310 310 310 311 312 313 309 295 312 317 322 322 321 317 311 309 305 305 300 298 298 299 300 300 301 301 301
313 313 313 313 313 313 313 311 311 310 310 310 311 310 309 309 309 309 310 310 309 310 310 310 311 310 306 301 312 314 322 320 320 317 310 311 311 305 303 299 302 301 296 297 299 300 300
313 314 313 313 312 312 312 311 310 309 310 309 310 309 309 309 309 309 309 309 309 309 309 310 311 308 300 312 312 309 316 316 320 319 316 316 315 306 302 302 299 296 294 290 296 299 300
313 313 313 312 312 312 311 310 309 309 309 310 309 309 309 309 309 309 309 309 309 309 310 310 305 307 297 315 308 310 315 311 313 316 317 317 312 303 300 294 290 292 285 288 292 299 298
312 313 311 312 312 312 311 310 309 310 310 309 308 307 308 308 308 308 308 309 309 308 306 307 306 299 302 300 308 310 314 316 312 312 310 309 305 295 293 290 284 285 285 287 288 292 294
311 312 310 311 312 311 310 310 309 309 309 309 308 307 307 307 308 307 304 298 292 292 297 294 299 298 301 308 310 306 310 311 310 307 299 302 297 292 293 291 290 289 288 286 289 294 290
311 311 311 309 310 310 310 310 309 309 309 307 307 307 307 308 308 308 300 292 296 298 287 297 302 303 306 308 300 304 312 304 303 296 298 296 292 298 299 296 294 294 291 285 289 292 289
310 310 309 309 310 310 309 308 308 309 307 306 307 308 308 308 307 302 298 296 302 302 290 294 299 301 303 306 299 300 307 304 298 295 295 292 293 298 296 294 292 287 286 285 286 289 287
310 310 309 310 309 309 308 308 308 307 307 307 308 308 308 308 301 299 295 303 303 300 277 287 292 300 303 303 296 305 308 302 299 293 294 293 295 296 292 290 290 284 289 289 287 284 279
310 310 309 310 308 309 308 307 308 308 308 308 307 307 308 307 300 296 299 301 303 296 266 290 293 307 304 297 298 300 307 303 295 294 295 289 291 291 289 290 291 287 290 288 286 281 278
309 309 308 308 308 309 307 307 308 309 309 310 309 308 307 305 303 302 301 300 298 274 274 287 296 296 295 296 297 300 300 302 302 296 294 290 294 292 290 292 292 292 287 284 282 279 271
309 308 308 307 307 306 306 307 309 310 310 308 307 308 305 305 297 302 300 295 275 272 286 287 291 294 293 292 294 296 294 291 289 286 286 289 288 291 293 288 290 288 282 271 270 268 272
308 308 308 307 306 306 307 307 308 310 310 307 308 306 304 302 302 300 295 284 275 283 283 294 293 293 289 292 293 293 291 287 290 288 284 281 278 288 291 288 286 284 283 273 270 269 273
308 307 307 306 305 306 306 306 308 310 311 308 305 300 300 300 301 298 291 279 280 283 288 291 291 287 288 290 292 291 290 288 289 288 282 278 280 290 291 291 289 283 277 283 276 274 269
308 307 306 306 305 305 305 306 307 309 311 308 297 294 294 301 301 296 288 284 285 289 294 290 284 287 284 286 287 288 288 291 290 290 290 285 278 288 290 291 290 286 287 277 272 265 269
308 307 306 306 305 304 304 305 307 308 310 306 295 289 297 304 301 290 284 284 291 297 296 290 286 286 286 286 287 286 286 288 291 289 290 287 283 285 287 284 283 284 280 280 279 275 269
307 307 306 305 305 304 304 304 305 307 309 300 290 282 297 302 287 289 286 288 294 294 295 293 290 289 288 287 285 284 284 287 292 291 287 289 284 275 282 287 289 286 283 281 273 270 273
306 306 306 305 305 304 304 304 304 305 308 293 287 287 297 296 286 288 290 292 294 293 293 293 289 292 291 286 284 285 287 291 293 291 288 289 280 272 278 284 287 284 284 284 281 278 271
306 307 306 306 305 304 303 303 303 304 307 294 287 282 289 291 293 290 289 288 289 294 293 292 291 292 289 287 288 286 287 292 293 294 298 294 283 277 274 277 282 279 283 284 282 276 277
305 307 305 305 305 304 303 303 303 303 305 295 288 288 292 287 291 292 291 290 289 289 293 293 290 290 289 285 286 286 288 289 294 298 293 289 279 279 283 285 283 283 284 284 280 283 278
305 306 305 305 305 304 303 303 302 303 303 292 288 291 293 288 288 287 288 287 289 290 291 290 289 291 290 287 287 286 288 287 288 291 291 291 283 283 281 284 283 282 284 285 285 285 284
304 305 306 305 304 304 303 303 302 302 299 290 290 294 291 288 286 285 286 289 291 292 293 294 293 291 291 292 293 292 291 291 290 289 287 286 284 281 275 281 282 279 283 284 285 286 286
304 305 306 304 304 304 303 302 302 302 298 295 295 294 291 284 286 287 289 292 291 291 290 293 295 292 295 298 296 295 294 292 291 290 292 288 286 283 273 279 271 284 288 289 287 288 289
303 304 305 305 303 303 303 302 302 302 301 294 297 289 291 286 289 288 290 290 290 291 291 293 295 296 298 295 289 287 289 289 291 292 292 292 288 277 276 277 280 285 290 289 288 287 291
303 303 304 304 302 302 302 301 302 301 301 290 294 294 290 288 285 292 289 290 287 285 288 292 296 298 297 292 287 281 282 285 285 288 293 292 291 285 283 278 274 283 290 293 292 283 292
303 302 303 304 302 301 301 302 300 301 301 291 288 291 289 287 289 289 287 290 292 288 286 289 290 291 293 287 285 282 281 289 283 284 286 287 288 284 283 282 281 288 290 294 281 284 292
302 303 303 303 304 302 301 302 301 301 301 292 289 291 286 285 286 290 292 289 293 291 287 290 290 290 289 285 284 284 284 288 287 288 287 286 284 285 285 282 277 292 292 287 291 291 293
302 303 302 302 303 303 302 300 300 301 301 298 287 291 292 285 283 290 291 292 293 296 293 295 290 289 291 287 285 286 285 288 285 284 287 286 286 284 285 284 290 293 293 295 294 292 291

GFSGBSN_sfc_thetae_024.txt.gz
Theta_e
315 315 314 315 314 313 314 314 312 311 310 311 311 311 311 311 311 311 311 311 311 311 311 311 311 312 310 305 301 315 323 328 320 320 315 311 305 301 297 299 299 297 298 302 303 303 302
315 314 315 315 313 313 314 313 312 311 310 311 310 310 310 310 310 309 310 310 310 310 310 310 310 311 306 297 312 312 317 321 318 318 312 308 305 304 300 298 298 300 300 300 301 300 301
314 314 315 314 312 313 313 313 311 311 310 310 311 310 310 309 309 309 309 309 310 310 310 309 309 307 302 302 312 310 319 319 321 317 309 309 308 304 302 298 301 300 295 297 298 300 299
314 314 314 312 311 313 313 312 311 311 310 310 310 309 308 309 308 309 309 309 309 309 309 309 308 306 298 313 315 311 312 317 320 318 315 314 312 305 301 301 298 296 294 289 296 299 300
314 313 312 312 312 312 312 311 311 310 310 311 310 309 308 308 308 308 309 309 309 309 309 309 303 301 297 313 307 310 312 312 316 316 316 316 312 304 299 293 291 292 284 287 292 297 297
313 312 312 312 310 311 311 311 310 310 310 310 309 308 307 307 307 308 308 309 308 306 305 306 304 299 303 300 307 310 314 315 312 312 309 307 305 297 292 293 283 285 285 286 287 291 293
313 311 312 310 311 310 311 310 309 309 309 309 307 307 308 307 308 308 304 297 291 289 296 291 295 298 301 307 310 307 312 312 310 306 296 302 295 292 293 291 290 289 287 286 289 293 290
312 311 312 310 311 311 310 309 308 308 308 308 307 307 308 308 307 307 299 291 296 295 286 295 296 302 305 307 299 304 312 304 303 297 299 296 292 296 296 294 292 291 288 285 289 291 288
310 311 310 310 310 309 310 308 309 309 310 310 308 307 307 308 307 302 296 295 301 302 288 294 299 301 302 305 299 300 308 304 299 296 296 293 295 300 297 294 293 290 289 285 286 288 286
310 311 310 309 309 308 307 308 310 310 311 310 310 308 307 307 300 299 294 301 303 299 275 284 293 300 303 303 296 305 309 303 298 292 292 293 296 297 294 293 291 286 289 288 286 283 279
309 310 310 308 307 307 308 309 310 311 310 309 308 308 308 306 298 295 298 303 300 294 263 288 292 307 303 297 298 300 307 303 294 294 293 289 291 294 291 292 292 288 290 287 285 281 277
309 309 309 308 307 307 307 308 310 311 309 309 309 309 307 303 301 302 300 299 295 273 270 286 295 295 294 295 296 300 300 303 302 294 293 291 295 293 291 292 293 290 286 283 281 279 272
309 308 309 308 307 306 306 308 309 310 309 308 308 307 304 303 296 302 299 291 274 272 285 286 290 293 292 293 294 296 294 291 290 286 285 289 288 291 292 288 290 287 282 272 270 269 272
308 309 308 307 307 306 306 307 309 309 310 309 306 305 302 300 300 299 294 282 276 283 283 293 293 292 289 292 293 293 291 287 290 288 283 281 281 289 291 288 286 284 282 274 269 268 272
308 308 307 307 307 306 306 306 308 308 310 310 306 296 296 299 300 297 287 275 277 283 287 291 291 288 288 291 292 291 289 287 288 286 281 278 280 289 290 290 288 283 277 282 275 272 269
308 308 307 306 307 306 305 306 307 307 309 309 294 292 294 302 303 293 285 285 286 290 293 289 284 286 284 287 287 289 287 289 288 289 288 284 279 287 289 291 290 286 287 277 273 266 269
307 308 307 306 306 305 305 305 306 307 308 306 292 288 296 301 298 291 284 285 292 297 295 289 285 285 285 285 287 285 286 287 289 288 290 286 283 285 287 284 283 284 281 280 278 275 270
307 308 307 307 306 305 304 304 305 306 308 298 289 283 296 299 288 290 287 290 294 293 294 292 289 288 285 286 283 283 284 286 291 291 286 288 283 275 283 286 288 286 283 280 272 271 274
306 307 307 306 305 305 304 304 304 305 306 293 286 286 296 295 286 288 289 291 293 292 292 291 288 291 289 286 283 285 286 291 292 290 287 289 280 272 279 283 286 283 283 282 280 277 271
306 306 307 306 306 305 304 304 303 304 306 293 287 282 289 294 294 291 289 287 288 294 292 291 289 290 288 286 288 285 285 291 292 292 297 293 283 278 274 276 282 279 282 283 281 272 276
305 306 307 306 306 305 304 303 303 303 304 294 288 288 292 285 286 290 289 289 287 288 292 292 288 288 287 284 285 285 287 288 292 296 292 289 278 279 282 284 283 283 283 283 279 280 275
305 305 306 306 305 305 304 303 303 303 303 292 288 288 293 287 286 285 287 286 288 289 290 288 288 292 289 286 286 285 287 286 287 291 288 289 281 281 277 283 283 281 283 284 283 283 284
305 305 306 306 304 305 304 303 303 302 299 289 289 295 293 287 285 283 284 287 290 291 292 293 291 290 289 291 292 291 291 291 290 288 287 288 284 278 275 280 281 278 281 284 284 285 286
304 304 305 306 304 303 304 303 302 302 298 295 295 294 290 282 283 286 288 289 290 290 288 292 294 293 295 297 294 293 291 290 290 288 290 287 285 283 274 278 271 282 287 288 286 287 287
304 304 304 304 304 302 303 303 302 302 301 290 292 290 290 285 288 287 288 288 290 289 289 291 294 295 297 294 288 286 288 288 288 291 290 290 287 279 276 278 280 284 288 286 286 286 289
304 304 304 304 305 302 301 302 301 301 301 289 289 289 289 286 282 290 289 289 285 284 287 291 295 297 295 290 286 281 281 281 283 287 292 291 289 284 282 278 274 282 290 293 290 283 291
304 304 304 304 304 304 302 302 302 301 301 291 288 290 286 285 287 288 286 289 291 286 285 287 290 290 292 288 284 281 279 285 282 282 286 287 287 283 283 279 281 287 290 292 281 284 291
304 303 303 302 303 303 303 302 301 301 301 294 289 291 286 280 282 287 290 288 290 293 285 288 289 289 287 285 285 283 282 285 283 285 286 285 283 284 284 279 276 291 291 287 290 290 292
302 302 302 302 302 303 303 304 302 301 301 299 290 293 293 287 283 287 289 290 289 291 290 293 290 288 290 285 284 284 284 284 285 282 285 284 285 283 284 283 289 293 292 294 293 292 291

GFSGBSN_sfc_thetae_027.txt.gz
Theta_e
315 315 315 315 315 314 314 315 314 313 312 312 311 311 311 311 310 310 310 310 310 311 311 311 310 309 308 302 303 314 320 321 320 319 315 311 306 304 300 301 301 299 300 303 305 304 304
315 315 315 314 314 314 313 314 313 312 312 312 311 311 310 310 310 310 309 310 309 310 310 310 309 309 303 295 312 313 312 320 316 317 314 312 308 305 302 301 300 302 302 302 302 302 303
314 315 314 314 314 312 312 313 312 312 311 311 311 311 310 309 309 309 309 309 309 309 309 310 309 305 300 299 311 314 312 317 317 318 312 312 311 305 302 299 303 301 297 299 299 301 300
313 314 314 313 312 312 312 312 311 311 311 311 311 310 310 309 308 308 309 309 309 309 309 309 308 304 294 312 314 313 311 316 319 320 317 314 311 306 304 303 300 297 297 292 298 300 301
313 313 312 313 312 313 312 311 311 309 310 310 310 309 307 308 307 308 308 309 309 309 308 308 302 299 295 314 306 311 312 310 316 316 315 316 311 305 302 295 293 294 287 290 294 300 299
314 313 312 312 311 312 311 312 310 310 310 310 309 308 307 308 307 308 308 309 307 306 305 305 303 295 300 299 308 309 312 315 312 312 308 307 304 298 297 293 285 287 288 290 290 294 296
312 312 312 312 310 310 311 309 310 311 311 311 311 308 308 308 308 307 303 296 291 289 296 289 292 295 301 307 310 308 313 312 311 306 297 302 295 290 294 294 292 291 289 289 292 294 292
312 311 312 311 310 309 309 310 311 312 311 310 310 309 306 307 306 306 299 291 293 295 286 294 294 297 302 307 300 305 313 305 298 295 299 296 292 296 297 294 292 291 288 288 291 292 291
311 311 311 310 309 309 310 310 311 312 311 310 310 308 303 306 306 301 295 294 301 300 288 294 299 296 301 305 299 300 308 305 295 291 293 292 295 298 296 293 292 290 289 288 289 290 289
310 310 311 309 309 308 309 309 311 312 310 310 310 309 307 305 299 298 293 301 301 298 275 287 293 299 303 303 297 307 309 303 298 292 295 293 297 296 295 293 294 289 292 290 288 286 283
310 310 310 309 308 307 308 309 310 311 311 309 309 309 308 305 297 294 298 302 299 291 266 288 293 304 304 297 299 300 307 304 294 292 294 289 293 295 293 294 294 289 291 288 286 284 283
310 310 309 308 308 307 307 309 310 311 311 309 307 308 307 301 299 300 299 299 293 274 268 286 293 294 294 297 297 300 300 304 302 294 294 291 297 294 293 295 294 291 287 284 283 282 277
309 309 308 308 308 307 307 308 309 310 311 311 308 306 302 301 294 300 298 290 274 273 285 286 289 293 292 292 294 295 293 291 290 286 285 290 289 293 293 289 291 289 285 277 275 275 277
308 309 309 308 308 307 307 307 308 309 310 310 309 304 301 300 299 297 293 281 272 282 282 293 293 291 290 292 292 293 291 288 289 288 285 283 282 289 292 290 287 286 285 278 274 273 276
308 309 308 308 307 307 306 306 307 308 308 309 305 295 295 299 302 297 288 278 274 283 288 290 291 286 288 291 292 291 288 287 288 288 284 282 281 290 290 291 290 285 280 284 276 274 274
308 309 308 308 307 307 306 306 306 307 309 308 293 291 292 299 301 294 288 285 287 291 292 289 284 286 283 288 288 288 286 289 288 289 289 285 280 288 289 291 290 287 287 280 276 269 272
307 308 308 307 307 306 306 306 306 306 308 304 291 288 295 300 297 290 285 286 291 295 293 288 285 284 285 285 286 285 286 289 291 289 289 286 284 285 289 285 284 285 282 281 280 278 274
307 307 308 307 306 306 305 305 305 305 307 297 288 284 296 298 288 291 288 290 295 293 294 290 289 287 285 285 283 283 285 287 292 291 287 288 284 280 284 287 289 287 284 282 276 274 276
306 306 308 307 307 306 305 305 305 305 306 292 286 286 295 295 286 288 290 291 292 291 291 291 288 290 288 285 283 285 287 291 292 290 288 289 281 275 281 284 287 284 284 283 281 279 275
306 306 306 308 306 306 305 304 304 304 306 292 286 282 289 291 291 288 287 286 287 293 291 290 289 289 287 286 287 285 285 291 291 292 297 292 283 279 275 278 283 281 283 283 282 277 277
306 305 306 307 306 306 305 304 304 303 304 293 288 289 292 284 286 286 287 288 286 287 291 291 288 288 286 283 284 284 287 288 292 296 292 289 279 279 283 284 284 284 284 283 280 282 278
305 305 306 306 306 305 305 304 303 302 302 292 287 289 292 286 285 284 285 284 287 288 289 287 287 290 287 285 285 284 287 286 286 289 288 289 282 281 278 284 284 282 284 284 284 284 283
305 305 305 306 306 304 304 303 303 302 299 293 294 295 292 286 283 282 284 286 288 289 291 292 292 291 288 290 291 290 289 290 290 288 287 288 284 277 275 282 281 278 282 284 285 285 286
305 305 305 305 305 304 303 303 302 302 297 291 292 293 289 282 283 284 286 287 289 290 288 291 292 291 294 295 293 292 290 289 290 288 290 286 285 281 274 278 272 283 287 288 286 287 287
305 305 305 305 304 304 303 303 302 302 299 291 289 290 289 284 286 284 287 286 288 289 288 290 292 294 295 292 287 285 288 288 289 289 288 291 287 280 276 278 279 284 287 285 285 287 289
305 305 305 304 304 304 303 303 303 302 299 291 288 288 286 284 281 289 288 290 285 282 286 289 294 295 293 289 286 280 277 281 281 287 291 289 288 284 280 275 274 282 290 292 292 285 292
305 305 304 304 303 303 303 303 302 301 300 292 289 289 285 280 284 288 285 287 293 287 283 285 288 289 291 286 284 281 279 284 281 282 285 286 287 283 282 281 281 287 292 294 284 286 292
305 305 304 304 303 302 302 302 303 302 301 294 290 290 286 281 282 285 288 285 286 291 288 288 288 288 288 286 287 285 281 284 282 283 285 284 283 283 283 280 276 291 291 287 291 292 293
305 304 303 303 303 303 302 302 303 301 301 298 290 293 293 285 285 287 288 289 288 288 286 290 290 287 289 285 283 283 283 283 283 283 285 282 284 283 283 282 288 294 294 296 294 292 292

GFSGBSN_sfc_thetae_030.txt.gz
Theta_e
315 315 316 316 316 315 313 313 313 313 313 313 313 312 312 311 310 310 310 310 310 310 310 310 311 308 306 300 299 316 319 320 321 318 315 312 309 308 303 305 305 303 304 306 307 308 308
314 315 315 314 315 313 313 314 313 313 312 312 312 311 311 311 310 310 309 309 310 309 309 310 310 308 302 293 309 315 315 316 319 316 314 314 309 311 306 305 303 305 304 305 307 307 307
314 316 315 314 313 313 313 312 313 312 312 311 311 311 310 309 311 310 309 309 309 309 309 309 309 306 299 296 313 317 315 313 319 316 313 315 314 309 308 303 307 305 301 303 304 305 304
315 314 314 314 314 312 312 312 311 311 312 312 312 311 309 308 308 308 308 309 309 309 309 309 309 304 293 307 310 313 314 314 318 319 317 318 315 309 306 307 304 300 300 294 301 304 304
314 313 313 313 312 312 312 311 312 312 313 313 312 311 309 309 308 307 308 309 309 309 309 308 303 300 293 312 307 312 314 310 314 316 318 317 313 307 305 299 295 297 291 293 296 303 301
314 313 312 312 311 311 312 312 312 313 312 312 311 311 308 307 307 307 308 307 307 308 307 306 304 295 299 299 308 311 314 313 311 311 310 308 306 302 300 297 287 290 291 293 292 298 300
313 312 312 311 310 310 311 311 312 313 311 311 311 310 307 307 307 306 305 303 297 296 299 292 292 294 300 307 312 308 312 310 311 307 298 303 297 294 296 298 296 295 293 292 295 297 297
312 312 311 310 310 310 310 311 312 312 310 310 310 309 305 307 306 306 304 297 297 298 289 296 296 295 300 304 301 305 314 303 303 296 300 297 293 299 300 298 296 296 292 292 295 295 296
311 312 311 310 310 309 309 311 312 312 310 310 310 307 304 307 307 304 300 298 305 303 291 295 297 296 298 306 300 302 306 301 299 296 297 292 296 299 298 295 295 295 292 291 292 294 294
311 312 311 310 310 308 309 310 311 312 312 309 310 309 307 306 302 302 298 305 306 302 286 287 293 298 302 303 299 308 307 302 296 291 296 294 298 297 295 294 296 291 297 294 292 292 289
310 311 310 310 309 308 308 309 310 310 311 310 309 308 307 306 301 298 301 305 304 299 277 290 292 304 303 298 300 299 308 303 293 290 294 289 295 296 294 295 298 293 296 293 291 290 289
310 310 310 310 309 308 308 308 309 309 309 311 307 307 306 305 305 303 305 303 300 285 277 287 293 295 295 298 298 300 301 303 301 293 294 292 297 295 294 296 298 294 292 291 290 289 284
309 310 309 309 309 308 307 307 308 308 309 309 310 306 304 305 298 305 304 299 286 281 287 287 290 295 294 294 294 295 293 292 291 286 286 289 289 293 295 291 293 292 290 285 283 283 284
309 309 309 309 308 308 307 307 307 307 308 309 309 305 303 304 306 304 301 291 282 284 286 293 294 294 291 294 292 293 293 290 293 292 290 286 284 289 292 292 289 291 291 287 279 279 282
308 309 309 308 308 308 307 307 307 306 308 308 305 304 304 304 305 304 296 285 284 285 290 291 292 288 289 293 293 293 292 291 292 293 288 286 284 292 292 293 294 289 288 288 283 281 282
308 308 309 308 308 308 307 307 306 306 308 308 302 301 301 304 306 302 295 286 288 291 294 293 287 290 285 288 289 291 291 293 291 293 294 289 284 290 291 294 293 292 292 285 286 279 278
307 307 309 309 308 307 307 307 306 306 307 305 301 298 302 305 305 300 287 289 293 297 296 292 289 289 290 288 291 290 289 292 294 292 294 292 290 287 291 289 288 288 288 286 287 284 282
306 307 308 309 308 307 306 306 305 305 307 302 298 297 303 305 298 297 291 292 295 296 298 294 294 292 290 290 289 289 288 292 296 295 291 291 289 284 286 291 292 291 289 288 285 281 283
306 306 307 308 307 306 306 306 305 305 305 301 296 296 304 304 292 293 294 294 295 295 294 293 292 293 293 290 287 289 290 294 295 294 292 293 287 281 283 288 290 288 289 288 286 286 282
306 306 306 306 308 306 306 305 304 304 305 301 297 293 299 301 298 294 292 292 292 296 294 294 293 294 291 290 292 289 289 293 294 294 297 296 288 285 282 285 288 285 287 288 287 284 284
306 306 306 306 307 306 305 304 304 304 304 300 297 290 293 292 294 293 293 293 291 291 296 295 292 292 291 288 289 288 291 291 293 296 294 293 286 286 287 287 287 287 287 287 284 287 285
305 305 305 305 306 306 304 304 303 303 302 298 291 291 294 292 291 291 291 292 291 293 293 291 291 292 293 290 290 289 292 292 291 294 292 293 286 286 284 286 287 285 288 288 288 288 288
305 305 306 305 306 305 304 304 303 303 301 295 296 296 293 290 290 291 291 291 292 294 295 296 295 294 293 294 297 296 296 296 296 292 291 291 287 285 282 285 285 282 286 288 288 289 289
305 305 306 305 305 305 305 304 304 303 299 297 294 294 290 288 290 290 290 291 292 293 293 296 298 295 297 299 298 298 297 295 295 293 295 290 289 287 283 284 278 287 291 291 289 291 292
305 305 305 305 305 304 304 303 304 303 300 295 295 293 291 286 289 288 290 289 292 294 294 296 298 300 302 298 293 289 290 290 291 293 293 294 290 285 282 281 285 288 289 289 288 291 293
305 306 305 304 304 304 303 303 303 303 300 296 295 294 291 286 285 289 289 290 289 292 293 295 300 303 300 297 292 285 283 286 286 289 294 293 293 288 284 279 279 288 295 297 295 289 296
305 306 305 304 304 303 303 303 303 303 302 296 295 294 291 284 287 289 287 289 293 292 291 292 296 297 299 294 289 287 286 289 284 284 286 288 288 285 284 282 286 292 296 298 287 291 297
305 305 304 304 304 304 303 303 303 303 302 298 296 295 292 286 287 287 290 288 288 290 289 293 294 294 293 290 289 288 288 289 288 289 287 286 284 284 286 281 279 295 294 290 296 297 298
306 305 304 304 304 304 303 302 302 302 302 300 294 295 295 289 288 290 291 292 291 291 289 289 291 293 296 293 293 292 289 290 290 285 292 285 290 287 288 288 294 297 298 300 299 298 298

GFSGBSN_sfc_thetae_033.txt.gz
Theta_e
315 316 316 316 315 314 314 314 314 314 314 314 313 312 312 312 311 310 311 311 310 310 310 310 310 310 307 299 299 319 320 325 322 319 313 312 307 308 304 305 306 303 304 306 307 308 308
315 315 314 315 314 314 313 313 312 312 313 313 313 313 311 310 309 309 311 310 310 309 309 310 310 309 302 293 307 314 315 315 317 317 313 312 307 312 306 304 304 306 306 305 306 307 308
315 315 314 314 314 312 313 313 313 313 314 314 313 313 312 309 307 307 308 310 309 309 309 309 310 307 300 298 310 316 315 312 314 317 309 313 312 309 308 303 308 306 301 304 304 305 305
315 314 314 314 312 312 312 313 313 314 314 313 313 312 311 309 309 308 308 308 309 309 309 309 309 305 295 306 309 307 314 312 315 318 313 315 314 309 306 308 305 301 301 295 301 304 305
314 313 314 313 312 312 312 312 313 314 312 311 312 312 311 308 307 307 307 308 309 309 308 308 305 301 294 310 302 305 312 310 311 316 315 317 313 307 305 299 296 298 291 294 296 303 303
313 313 312 312 312 311 312 313 313 314 312 311 311 311 310 308 307 306 307 307 307 308 307 306 304 295 298 297 305 310 314 312 310 311 309 308 306 300 299 296 287 291 291 293 294 300 301
313 313 313 311 312 310 311 312 312 313 312 311 311 309 308 308 307 307 306 306 299 296 299 293 293 295 298 304 310 308 311 310 310 306 299 305 299 294 296 297 297 295 293 292 296 299 298
312 313 312 311 311 310 310 311 312 313 313 311 309 307 308 308 308 306 306 298 298 299 291 296 296 296 300 303 300 305 312 301 302 297 300 297 294 299 300 299 297 296 293 292 296 299 297
312 312 312 311 311 310 309 310 311 312 312 310 309 306 307 307 305 305 302 300 307 304 292 294 297 295 299 305 300 301 305 300 297 296 297 294 296 301 298 296 295 295 293 292 292 296 297
311 312 311 311 310 310 309 309 309 310 310 311 309 308 307 306 304 304 299 305 306 304 287 289 293 297 303 304 298 306 306 299 293 295 297 295 300 298 297 295 296 291 297 296 293 292 287
311 311 311 311 310 309 309 309 309 309 309 310 311 308 307 308 304 300 302 306 306 301 278 291 291 304 303 299 299 298 307 303 291 291 294 289 295 296 294 295 298 294 299 296 295 292 291
310 310 310 310 309 309 309 308 308 308 308 309 309 310 307 307 307 304 307 306 302 285 279 287 294 295 295 298 298 300 300 303 299 293 293 292 297 296 295 298 299 299 295 294 294 291 285
309 310 310 310 309 309 309 308 308 308 308 308 309 310 306 307 301 307 306 302 286 282 288 288 291 295 296 293 294 295 292 291 288 285 285 288 288 294 295 293 296 296 293 286 283 284 284
309 309 310 309 309 309 309 309 308 308 307 307 309 309 307 306 309 307 304 293 284 286 288 295 295 295 291 293 292 294 293 290 295 294 288 287 283 289 291 293 291 292 293 288 280 282 284
308 308 310 309 309 309 308 308 308 307 308 308 308 308 305 308 307 306 298 287 286 287 292 292 293 290 290 293 294 294 294 291 294 294 288 287 285 292 291 294 297 291 288 291 285 285 285
307 308 309 310 309 308 308 307 307 307 307 308 305 304 305 307 308 303 296 287 290 293 296 295 288 291 286 290 291 293 292 295 293 295 296 292 285 291 291 295 294 293 295 286 288 281 280
307 308 308 308 308 308 307 307 307 306 306 307 304 300 306 308 307 302 289 291 294 299 298 293 291 290 290 289 292 291 291 294 296 294 296 295 291 288 292 290 289 289 288 289 289 286 283
307 307 307 307 309 307 307 306 306 305 306 307 303 298 307 309 300 301 294 294 295 297 299 296 295 293 292 292 291 291 290 294 298 297 292 293 292 285 288 293 294 293 291 291 286 283 286
306 306 307 307 307 307 306 306 305 305 304 301 299 301 308 308 295 294 296 295 297 296 296 294 293 295 295 292 289 292 292 296 297 296 293 294 289 282 283 289 292 289 291 291 289 288 285
306 306 306 306 306 307 306 305 305 304 304 303 300 295 303 305 302 297 294 294 294 298 296 296 295 296 294 292 294 291 292 295 296 296 297 297 290 287 284 287 291 287 290 291 289 285 286
306 305 306 306 306 306 305 305 304 304 303 303 299 292 295 295 297 297 297 295 293 293 297 297 294 294 292 289 290 290 293 293 295 296 296 295 288 287 288 289 289 289 289 289 286 288 286
304 306 306 306 306 306 306 305 305 303 303 300 292 291 295 296 295 295 293 294 293 294 295 292 292 294 294 291 292 290 293 293 291 295 294 295 287 288 285 289 288 286 289 290 289 289 289
304 306 306 306 306 305 305 304 304 303 301 295 297 297 293 294 294 294 295 294 294 296 297 298 297 295 293 295 298 298 298 298 297 294 292 292 289 286 284 287 286 283 287 289 290 291 291
305 305 306 306 305 305 304 304 304 303 300 296 294 294 290 292 293 293 293 294 294 295 294 298 299 297 297 301 301 300 298 297 297 296 296 291 290 288 284 285 278 289 293 293 291 292 293
305 306 306 305 305 304 303 304 304 304 301 297 296 293 290 286 289 291 292 292 295 297 296 297 300 302 303 300 294 291 290 291 292 294 294 295 291 286 283 283 287 289 290 289 289 290 294
305 306 305 305 304 304 303 303 304 304 303 299 296 297 291 286 288 290 289 292 291 294 295 297 302 305 302 298 293 285 284 288 286 289 295 294 294 288 285 281 280 289 295 297 296 290 297
305 305 305 304 304 304 304 303 304 303 302 299 297 296 292 286 288 289 288 289 293 293 292 295 298 299 301 295 289 287 286 290 285 285 286 288 288 285 284 282 286 294 298 299 288 291 299
305 306 304 304 304 304 304 303 302 302 302 301 298 298 292 288 289 290 290 288 288 290 289 294 295 297 296 291 290 290 288 290 288 290 288 287 285 284 286 282 280 296 297 291 296 299 299
306 306 305 304 304 304 304 303 303 303 303 301 295 298 297 291 289 294 293 293 291 291 289 292 292 294 296 294 294 294 289 291 290 286 293 286 290 288 289 289 296 298 298 301 301 300 300

GFSGBSN_sfc_thetae_036.txt.gz
Theta_e
316 316 315 315 315 314 314 314 314 315 315 315 314 314 314 313 312 311 311 311 311 310 310 310 310 311 306 298 297 314 322 324 322 320 312 311 304 306 303 304 304 302 303 305 306 307 306
316 316 315 315 314 314 314 314 314 314 315 313 313 313 313 312 310 309 309 309 310 309 309 309 309 310 301 292 307 314 317 318 318 316 311 312 305 309 306 304 302 304 304 304 304 305 307
316 315 315 315 313 313 314 314 314 314 314 313 314 312 312 311 307 307 307 308 309 309 309 308 309 307 299 296 310 315 313 311 316 315 310 311 311 307 307 303 307 305 299 302 302 304 304
315 315 314 314 313 312 313 313 314 314 314 313 313 312 312 310 308 307 308 307 308 308 309 309 309 304 293 305 307 305 312 311 313 315 315 314 313 307 307 306 304 300 299 293 301 302 304
315 314 314 313 313 312 312 312 314 314 314 313 312 312 310 309 308 307 307 307 308 309 308 308 303 300 292 310 300 304 306 307 310 313 314 315 312 304 306 298 295 297 289 293 296 303 302
314 314 313 313 312 312 312 312 313 314 313 312 310 310 310 309 308 307 307 307 308 308 307 306 303 294 297 295 302 303 308 312 307 309 305 306 305 298 299 295 286 290 290 292 292 298 300
314 313 313 312 312 311 311 311 312 313 313 311 309 309 310 309 308 307 306 305 299 296 299 293 293 293 296 302 307 304 310 308 306 304 297 303 295 291 294 296 296 294 292 290 294 300 296
312 313 313 312 312 311 310 310 310 312 312 312 310 309 309 309 308 308 307 297 297 299 290 297 296 296 299 302 297 303 309 298 300 296 300 297 291 297 300 297 295 293 291 290 293 297 295
312 312 312 312 312 311 310 310 310 310 310 310 311 310 309 309 309 307 301 300 306 304 292 294 297 296 299 302 297 299 303 298 296 296 295 292 295 300 297 294 293 292 290 290 290 294 295
311 312 312 311 311 311 310 310 309 309 309 308 309 310 310 309 303 304 299 305 307 305 285 288 293 298 301 303 297 306 305 300 296 294 296 294 300 298 296 294 295 288 295 294 293 289 283
311 311 311 311 311 310 310 311 310 309 308 308 309 310 310 308 304 300 302 306 306 301 276 291 293 304 303 298 297 299 307 299 292 295 295 290 295 295 294 295 297 293 297 294 293 289 286
310 311 311 311 310 309 309 310 310 309 308 308 308 309 310 307 307 304 307 306 302 285 278 287 294 294 296 298 297 298 299 301 299 295 294 293 297 296 295 298 298 299 294 293 291 288 278
309 310 311 311 310 310 309 309 309 309 308 307 308 308 308 305 301 308 307 300 285 280 289 288 291 295 294 293 294 295 291 290 287 285 285 289 288 294 296 293 297 296 288 281 278 277 277
309 309 310 310 310 309 309 309 308 308 307 308 309 308 309 305 308 307 302 292 280 286 288 295 295 295 290 293 293 293 290 288 294 292 287 285 281 289 293 293 291 291 289 282 275 276 277
308 309 309 309 310 309 309 308 308 308 308 307 309 308 306 309 309 306 296 284 284 285 293 292 293 290 290 293 294 293 292 291 294 294 287 286 284 291 292 294 295 291 286 288 281 281 276
308 308 309 309 309 309 308 308 307 308 307 307 303 304 305 308 308 302 294 286 290 294 296 295 288 291 287 290 291 292 291 294 292 295 295 290 284 290 291 295 295 292 294 283 281 273 275
307 308 308 308 308 308 307 307 307 306 307 308 303 299 304 309 307 298 288 291 294 298 298 293 291 290 289 289 291 290 290 293 295 293 295 294 289 288 290 288 287 288 286 287 285 282 277
307 307 307 307 307 307 307 306 306 306 306 305 302 295 306 309 298 298 292 295 297 297 299 296 296 294 291 292 290 289 290 292 297 296 291 292 289 284 287 293 295 293 290 290 283 279 280
306 306 307 307 307 307 307 306 306 305 304 299 297 299 308 307 292 292 296 295 297 296 296 295 293 295 295 291 288 291 291 295 297 295 291 292 286 280 283 288 290 288 290 291 288 286 282
306 305 306 307 307 307 306 306 306 305 304 301 298 292 301 303 300 296 294 293 294 299 296 296 295 295 293 291 292 290 290 295 295 296 297 296 289 283 277 280 288 284 288 289 285 279 282
305 305 307 307 306 306 306 306 305 304 305 302 297 291 294 291 295 295 296 295 293 293 298 297 294 293 292 288 289 289 292 292 295 296 294 293 281 282 286 289 288 287 287 288 283 287 280
304 306 306 306 306 306 305 305 305 304 305 297 291 290 293 293 295 294 293 294 293 294 294 292 292 294 293 290 290 289 291 290 288 292 291 292 283 283 281 288 286 283 288 288 288 288 287
304 305 306 306 306 305 305 305 305 304 302 292 293 296 293 294 294 292 292 293 293 296 297 298 296 295 292 294 297 296 295 294 293 291 289 289 284 280 277 285 284 279 285 287 288 289 288
305 306 306 306 305 305 304 304 305 304 302 296 293 293 289 288 290 291 292 293 293 294 293 297 299 296 296 299 298 296 293 294 294 292 293 288 287 284 278 280 272 286 291 291 289 290 290
304 306 306 305 305 305 304 304 304 304 303 297 295 291 288 283 286 288 289 291 293 295 295 297 299 300 300 298 292 289 289 289 291 291 291 292 288 284 277 278 284 286 289 288 288 288 293
304 305 306 305 305 305 304 304 304 304 302 299 296 296 291 284 282 287 285 287 288 290 293 296 301 302 299 295 291 284 282 285 285 288 292 292 291 286 284 277 276 288 291 294 293 285 294
304 305 306 304 305 304 304 303 303 303 303 300 297 297 292 285 288 287 285 287 290 290 290 294 296 296 298 291 288 285 284 287 282 283 285 287 286 281 283 281 283 293 296 296 284 287 294
305 306 306 305 304 304 304 304 304 304 303 300 298 298 292 287 288 290 290 286 286 285 283 289 291 294 293 289 287 288 286 287 284 287 285 283 283 283 284 281 276 296 294 288 293 295 297
306 307 307 305 304 304 304 303 303 303 303 302 294 298 297 290 288 293 293 293 291 290 286 287 288 290 292 290 289 289 285 286 286 282 289 284 287 284 285 284 292 294 294 297 297 296 296

GFSGBSN_sfc_thetae_039.txt.gz
Theta_e
317 316 316 316 314 314 314 314 314 315 316 314 315 314 313 313 312 310 310 309 310 310 309 310 310 312 306 297 296 309 318 321 322 319 312 309 303 304 301 303 303 301 303 306 308 308 307
316 316 315 315 314 313 314 315 315 315 315 315 314 314 313 312 310 309 309 308 309 309 309 310 310 312 301 292 307 313 317 316 318 316 311 310 302 307 303 303 301 303 304 304 304 305 306
316 315 315 314 313 313 313 314 314 315 314 313 314 313 312 311 310 309 308 308 309 309 309 309 309 307 299 296 306 312 314 312 316 315 310 311 308 305 304 301 306 303 299 301 302 303 303
315 315 314 314 313 313 312 313 313 314 313 312 312 311 311 310 309 309 309 308 308 308 308 309 308 303 292 304 303 303 310 310 313 315 315 314 311 306 303 305 302 299 298 292 299 302 303
315 315 314 314 313 313 312 312 312 313 314 312 311 311 311 310 309 309 308 308 308 308 308 308 302 298 291 308 301 302 304 305 309 312 314 315 310 303 302 296 293 295 288 291 295 302 301
314 314 314 313 313 313 312 311 311 312 313 313 311 310 311 310 309 308 309 309 308 307 306 306 302 294 297 295 302 302 307 311 307 308 306 306 303 295 295 294 286 289 289 291 292 297 299
313 314 313 313 313 312 312 311 311 311 311 311 312 310 310 310 310 310 306 301 296 293 297 293 293 293 295 302 307 301 310 307 306 302 295 300 296 290 293 294 293 293 292 290 294 298 297
313 313 313 312 312 312 312 312 311 310 310 309 310 311 311 310 310 311 305 294 297 297 289 297 297 295 298 302 296 302 309 298 299 293 298 294 290 295 297 296 295 292 290 289 292 298 296
312 312 312 312 312 311 311 311 312 311 310 309 308 309 311 311 310 304 300 300 306 303 291 294 297 296 299 301 296 298 303 298 295 293 295 290 293 298 296 293 292 289 287 288 289 293 293
311 312 311 312 311 311 311 310 310 311 309 309 308 308 309 311 302 299 297 304 305 302 284 288 293 297 299 299 295 304 305 300 297 292 294 293 298 296 293 292 292 286 293 292 292 288 283
311 311 311 311 311 311 311 310 310 309 309 308 308 308 309 310 299 298 300 303 303 298 274 291 294 304 301 296 296 296 306 300 294 294 296 291 294 294 292 293 294 291 295 292 291 288 286
310 310 311 311 312 310 310 310 310 309 309 308 307 308 308 304 302 304 303 302 300 282 276 287 295 293 295 295 295 297 299 301 300 294 294 293 296 294 294 298 298 297 292 291 289 287 278
309 310 310 310 310 310 309 309 309 309 308 307 307 308 306 305 299 305 303 298 281 274 288 288 291 295 294 293 293 294 292 292 289 283 285 289 289 294 295 292 296 294 286 277 277 275 275
309 309 309 310 310 309 309 309 308 309 308 308 308 310 307 306 303 303 300 289 277 286 287 294 295 294 290 293 292 292 291 289 293 289 287 284 282 290 293 291 288 289 287 280 274 273 277
308 309 308 309 309 308 308 308 308 309 308 307 308 302 300 303 304 302 294 278 279 284 290 292 293 289 289 293 292 292 291 290 293 293 284 284 282 291 293 294 293 291 286 287 280 278 273
308 308 308 308 308 308 308 308 308 308 307 307 296 297 299 305 304 299 288 281 284 292 294 294 287 288 286 289 290 291 290 294 292 295 295 290 283 290 292 295 295 291 293 284 281 272 273
307 307 307 307 308 308 308 308 307 307 307 307 296 292 300 305 302 295 281 281 292 297 296 292 290 287 286 286 289 287 287 293 295 295 295 292 288 287 291 289 288 288 286 286 285 279 274
306 306 306 307 307 308 307 307 307 307 307 300 293 292 301 303 290 289 283 291 296 295 297 294 292 291 288 288 287 287 286 290 296 295 291 293 288 284 287 294 296 292 288 287 280 278 278
306 306 307 307 307 307 306 306 307 306 305 298 289 291 301 301 289 286 291 294 296 294 294 293 292 293 292 289 286 288 289 294 295 294 291 292 285 280 282 288 291 288 289 291 287 285 279
306 306 307 307 307 307 306 306 306 305 306 297 292 290 296 295 298 295 290 290 291 296 295 294 292 293 290 288 289 287 288 293 294 294 299 295 287 281 277 280 286 283 288 290 287 281 282
305 306 307 307 306 306 306 306 306 306 307 296 291 290 293 289 290 290 295 295 293 292 295 294 291 291 290 285 287 287 289 290 293 296 292 290 279 281 285 287 286 286 286 286 283 285 280
304 306 307 306 306 306 305 305 306 306 303 290 289 287 291 287 291 289 291 293 292 293 293 291 292 292 290 290 288 286 289 287 287 289 288 290 279 280 277 287 286 282 286 287 287 287 286
305 306 306 306 306 305 305 305 305 305 299 286 287 290 290 290 288 288 291 292 293 293 295 296 295 293 291 292 294 292 291 292 291 289 287 287 280 275 274 283 282 278 283 286 287 289 288
305 306 306 306 305 305 305 305 305 304 301 289 288 288 284 283 284 286 288 291 291 291 291 295 296 293 295 297 296 293 292 292 292 289 291 286 283 278 273 278 271 283 288 289 288 289 289
304 306 306 305 305 305 305 304 304 304 304 291 291 287 284 280 283 284 285 285 288 291 292 295 297 297 299 296 289 287 287 289 289 290 288 291 286 278 275 275 281 286 288 287 286 286 291
304 305 306 305 305 305 304 304 304 304 304 293 291 291 287 281 280 285 283 285 283 284 291 295 298 300 297 293 289 284 282 284 284 288 291 290 291 283 283 276 276 287 290 292 292 283 293
304 304 306 305 305 304 305 304 304 304 303 296 295 293 287 282 286 286 282 284 285 284 285 290 291 293 295 288 284 283 283 286 281 281 284 286 284 280 283 281 282 289 292 294 283 286 292
305 305 306 305 304 304 304 304 304 303 303 297 294 296 287 282 284 288 288 283 284 283 280 285 287 292 292 286 284 283 283 285 282 284 283 282 280 280 281 279 275 294 293 288 292 293 294
305 306 307 306 304 304 304 304 304 304 303 300 294 298 297 287 284 290 291 292 290 289 284 283 284 289 289 289 289 286 284 283 283 280 285 281 284 282 283 283 290 294 293 296 296 295 294

GFSGBSN_sfc_thetae_042.txt.gz
Theta_e
317 316 316 315 314 314 314 315 315 316 314 314 314 314 314 312 312 311 310 309 310 309 310 309 310 312 306 296 296 309 320 318 315 319 314 305 304 303 299 301 304 301 304 307 309 310 310
317 316 315 315 314 314 313 314 314 315 313 313 312 312 312 311 310 310 309 309 309 310 310 310 311 310 302 291 306 306 312 313 316 316 312 307 304 307 303 301 301 304 304 305 308 308 308
316 316 315 315 314 313 312 313 314 314 314 312 312 312 311 310 310 310 310 309 309 310 310 309 311 305 299 296 306 306 312 312 316 315 310 311 306 305 302 300 304 303 299 301 301 304 303
315 315 315 315 314 313 312 312 312 313 314 313 311 311 311 310 310 309 308 308 309 309 309 309 309 303 293 305 304 304 310 310 314 316 314 313 310 304 301 303 301 297 297 292 299 302 303
315 315 314 314 313 313 313 312 311 311 313 313 312 311 310 311 310 309 309 309 308 308 308 308 301 297 290 307 300 303 306 305 310 313 315 315 309 301 300 296 291 294 288 291 294 302 301
314 314 314 313 313 313 314 313 311 311 310 310 311 312 311 310 310 310 311 310 308 307 305 306 303 292 296 294 301 302 306 309 306 308 307 306 302 294 294 294 286 288 288 292 292 298 299
313 313 313 313 313 312 311 312 312 312 311 310 309 310 311 311 311 311 307 300 294 291 296 292 292 292 295 299 306 305 308 302 304 304 292 301 293 289 290 293 292 292 290 290 293 298 297
313 313 312 313 312 312 312 311 310 310 312 310 309 308 310 311 311 311 303 294 296 295 288 297 296 295 298 301 296 302 306 293 298 292 294 294 290 293 296 297 293 292 290 289 292 297 296
312 312 312 312 312 312 311 311 311 311 310 310 308 308 309 310 311 303 298 298 304 303 291 294 297 296 298 301 296 297 302 296 296 292 291 290 293 297 296 293 292 288 288 288 289 293 293
311 312 311 312 311 311 311 311 311 310 309 309 308 308 308 309 302 298 296 303 303 303 284 288 293 296 299 299 293 303 304 300 296 293 294 292 298 295 294 292 292 285 291 291 291 288 284
311 311 311 311 311 311 311 310 310 310 309 309 308 308 309 308 297 297 300 303 301 297 274 290 294 303 299 294 295 297 305 300 293 293 292 289 294 294 292 292 293 289 293 291 290 287 286
310 310 310 310 310 309 310 310 309 309 309 308 307 307 308 304 302 302 302 301 300 278 273 286 292 289 290 294 294 298 299 301 301 294 295 293 297 294 293 295 295 294 291 289 287 284 277
309 310 309 309 310 309 308 309 309 309 308 308 307 308 306 305 297 303 302 297 278 275 288 288 291 288 289 288 292 293 292 291 290 284 286 290 290 294 294 291 296 291 285 275 277 274 276
308 309 308 308 308 308 308 308 308 308 308 307 307 308 306 305 302 302 300 289 274 285 287 295 294 293 288 292 292 292 291 289 292 288 288 283 283 291 292 290 288 287 285 277 273 273 275
308 308 308 308 308 308 309 308 307 308 308 308 306 299 300 303 303 301 293 274 277 280 288 291 291 288 289 292 292 291 290 290 293 290 285 281 282 292 293 293 292 288 285 286 278 276 272
307 307 307 308 308 308 308 308 308 308 308 307 295 295 297 304 302 298 284 280 282 291 293 292 285 287 285 289 290 290 290 293 292 293 292 287 282 290 292 295 293 290 291 282 278 271 272
306 307 307 308 308 308 307 307 307 307 307 305 295 292 299 304 301 293 277 280 290 296 295 291 288 286 286 286 288 287 288 293 295 293 293 290 285 286 291 290 289 287 285 285 285 281 274
306 306 307 307 307 307 306 307 307 306 307 299 291 288 300 302 292 286 281 290 296 294 295 293 291 290 286 287 286 285 286 290 297 295 290 290 288 283 287 294 296 292 287 288 283 277 276
306 306 307 307 306 306 306 306 307 306 306 295 291 290 299 300 282 284 289 293 294 293 292 292 290 292 290 287 285 287 288 293 296 294 291 291 284 278 282 287 291 290 290 289 287 283 276
305 306 307 306 306 306 306 306 306 306 306 296 290 288 292 297 294 289 288 289 290 295 293 293 291 291 289 286 289 286 287 292 293 293 298 295 286 280 278 281 287 285 288 289 286 277 281
304 306 306 306 306 306 306 306 306 305 303 294 288 289 292 288 291 291 292 292 291 291 293 293 290 290 288 284 285 285 288 289 292 295 292 289 280 280 284 287 285 285 287 288 285 288 284
305 306 306 306 306 306 305 306 305 305 300 287 284 287 289 288 290 289 291 291 292 292 291 290 291 292 290 288 287 285 288 286 286 288 287 288 278 280 277 285 284 282 285 288 289 289 288
306 306 306 306 306 305 305 305 305 304 296 285 285 287 288 289 286 290 290 291 292 291 293 294 295 291 289 290 292 292 290 290 289 288 286 286 280 275 273 282 282 278 283 285 286 288 288
306 306 306 305 305 305 304 304 305 305 297 288 287 285 282 280 284 285 285 288 286 289 290 293 296 293 294 297 295 292 290 290 290 288 289 285 281 276 271 277 269 282 286 288 287 288 290
306 306 305 305 305 305 304 304 305 304 303 290 289 286 282 278 281 282 283 285 286 289 290 293 296 297 298 295 287 285 285 286 287 288 287 288 284 276 275 272 279 283 286 285 284 284 290
306 306 305 305 305 304 305 304 304 304 304 292 289 289 285 279 279 284 282 285 282 283 288 294 296 295 296 291 287 280 278 282 283 287 289 291 290 281 279 276 275 283 288 290 290 281 290
305 305 306 305 304 304 304 304 304 304 304 294 291 291 285 280 284 285 281 282 284 281 281 289 286 290 293 286 283 281 278 286 281 280 281 286 285 283 280 281 281 287 291 293 281 284 292
305 305 305 306 304 304 304 304 304 303 303 295 292 293 287 281 283 286 287 283 283 282 278 283 286 290 290 284 283 282 281 283 280 283 282 281 279 280 282 279 274 291 292 287 291 293 293
306 306 306 306 304 304 304 303 304 304 303 299 289 295 296 285 283 288 290 291 290 288 283 282 282 288 288 288 288 287 285 285 281 279 283 281 284 281 283 283 289 292 292 295 295 294 294

GFSGBSN_sfc_thetae_045.txt.gz
Theta_e
316 316 316 315 315 314 313 314 314 316 314 313 313 312 312 311 311 311 311 310 311 310 311 310 310 312 306 297 296 308 314 311 316 314 311 303 303 305 299 300 303 301 304 307 310 310 309
316 316 315 315 314 314 313 312 313 314 316 313 312 313 311 311 310 310 311 310 310 310 310 310 310 310 301 291 305 307 305 311 312 312 311 305 304 308 302 300 301 303 305 306 308 307 308
316 315 315 314 314 313 313 312 311 312 313 314 313 311 312 311 310 310 309 310 309 310 310 310 308 304 298 296 306 305 307 312 312 313 310 309 308 304 302 299 303 303 301 304 305 306 306
315 315 314 314 313 314 313 314 312 311 311 313 313 312 311 311 311 310 310 309 309 309 309 308 309 304 293 305 305 304 308 311 316 316 314 314 309 304 300 301 300 296 299 293 301 304 305
315 314 314 314 313 313 312 312 313 313 311 310 310 312 312 311 311 311 311 310 309 309 309 308 299 296 289 306 301 303 303 306 311 313 314 314 308 300 298 294 290 291 287 290 294 303 302
315 314 313 313 313 313 313 311 311 311 313 310 310 309 310 312 311 311 312 309 309 307 305 306 302 290 294 293 300 304 306 307 306 307 307 305 301 293 292 291 285 287 285 290 291 298 300
314 313 313 313 312 312 313 313 312 312 311 312 310 308 309 310 311 311 305 298 293 290 295 290 291 291 294 298 305 305 305 303 303 303 293 301 292 289 289 291 290 291 288 288 292 298 297
313 313 313 311 312 313 312 312 312 311 311 310 310 308 308 309 310 311 300 292 296 294 287 296 295 295 297 301 296 300 302 296 297 291 293 292 289 293 296 296 292 291 288 287 292 297 297
312 312 312 311 312 312 311 312 311 311 310 309 309 308 308 309 310 302 297 297 303 301 291 293 297 295 297 300 295 296 299 295 294 291 291 288 293 296 295 293 291 287 287 286 288 293 293
311 311 311 311 311 311 311 311 310 310 309 309 308 308 307 309 301 297 295 302 302 301 281 288 292 295 299 298 293 303 302 297 296 290 291 289 297 294 292 292 291 284 290 290 290 288 284
310 310 310 310 310 310 310 309 310 309 309 309 308 307 307 308 296 296 299 302 300 297 274 290 293 302 298 295 295 296 305 299 293 292 293 288 292 291 290 291 293 289 291 289 289 285 285
309 310 309 309 310 310 309 309 308 309 308 308 307 307 308 303 304 301 301 300 300 276 270 285 292 290 290 294 294 298 298 302 300 294 295 293 296 295 292 294 294 293 290 288 286 283 278
308 309 309 308 309 308 308 309 308 308 308 308 307 308 306 304 296 303 302 296 278 272 287 286 287 289 289 289 291 293 291 291 288 284 285 290 291 295 294 291 292 292 285 281 277 274 275
308 308 308 308 308 308 309 308 308 308 308 307 308 308 306 304 302 301 299 287 271 283 287 294 290 289 287 290 289 289 289 288 292 289 287 285 282 290 292 289 287 286 285 277 274 273 275
307 307 308 308 308 308 308 307 307 307 308 308 305 298 299 302 302 301 292 271 276 278 287 290 289 286 288 291 289 289 288 289 292 291 285 281 284 293 292 294 291 288 281 284 277 274 272
307 306 307 307 308 308 307 307 307 307 308 307 294 294 296 303 304 300 284 280 281 289 291 291 285 288 286 288 288 289 288 292 292 293 292 286 282 291 293 294 293 288 289 280 276 269 271
306 306 307 308 307 307 306 307 307 307 307 305 294 292 298 302 303 294 276 279 288 294 294 289 286 285 286 288 290 288 289 293 296 292 292 288 284 286 292 290 287 286 284 283 283 278 273
306 305 307 307 307 307 307 307 307 307 306 298 290 286 299 301 293 290 279 288 295 293 294 292 290 289 285 287 286 286 287 289 297 294 288 289 286 282 287 294 295 291 286 285 278 275 275
306 306 307 306 306 306 306 306 307 306 305 293 290 289 299 301 281 283 288 292 293 292 291 290 289 290 289 285 284 285 287 293 297 294 290 290 282 281 283 289 292 289 289 287 285 281 276
305 306 306 306 306 306 306 306 306 306 304 294 289 283 289 297 292 287 287 288 289 294 292 292 290 290 287 285 288 285 286 291 294 295 298 295 285 280 277 280 287 286 289 289 285 278 281
306 306 306 306 306 306 306 306 306 305 302 292 287 286 288 282 289 290 289 291 290 290 292 292 289 289 287 283 284 285 287 288 291 295 291 290 283 281 284 287 285 284 287 289 285 287 281
306 306 305 305 306 305 305 305 305 306 298 286 283 284 287 286 289 290 291 290 291 292 290 289 290 290 289 286 285 285 287 285 286 287 287 287 278 280 276 284 284 282 285 287 288 289 288
306 306 305 305 305 305 305 305 305 305 296 284 284 286 287 286 286 289 286 290 289 292 293 294 294 290 288 289 290 290 290 289 289 287 285 284 279 275 273 281 281 277 282 284 286 290 289
307 306 305 305 305 305 305 305 305 305 297 287 285 284 282 279 285 283 284 286 286 287 290 291 296 291 293 297 294 291 289 288 289 286 288 283 280 276 271 277 270 281 285 287 286 288 291
307 306 305 305 305 305 305 304 304 305 302 289 287 284 281 277 279 281 284 285 287 288 290 293 294 294 296 293 287 284 283 285 286 287 287 287 283 276 273 273 278 282 284 284 283 284 289
307 306 305 305 304 304 304 304 304 304 303 291 288 287 283 279 278 283 281 283 280 281 287 290 292 290 294 290 286 279 277 280 280 286 290 290 289 281 278 274 273 281 288 288 288 280 288
307 307 306 305 304 304 304 304 304 304 303 293 290 289 284 280 282 283 279 279 282 281 282 286 285 287 291 285 284 280 278 283 280 280 281 285 285 281 282 280 281 286 288 290 279 281 291
306 306 306 305 304 304 303 304 304 304 303 294 291 292 286 281 282 286 286 282 282 281 280 283 284 285 288 283 282 281 280 281 279 281 282 281 279 280 282 280 275 288 290 285 289 292 293
306 306 307 306 304 304 303 303 304 303 302 297 287 293 294 284 283 287 288 289 288 286 283 282 280 287 287 286 285 287 283 284 279 278 282 280 283 281 283 282 289 290 292 294 294 293 294

GFSGBSN_sfc_thetae_048.txt.gz
Theta_e
317 316 316 315 315 314 314 314 312 312 314 315 313 312 312 312 311 311 311 311 311 311 311 311 310 311 306 297 297 308 314 310 311 313 310 306 301 299 298 303 304 302 303 306 308 308 309
317 316 315 315 315 315 314 314 312 311 312 314 314 312 311 311 311 311 310 310 311 311 311 310 310 309 302 291 306 308 307 309 310 311 309 307 302 304 301 303 303 305 304 306 308 308 308
316 315 315 314 314 313 313 313 314 314 312 311 313 313 312 311 311 311 311 310 310 310 310 310 309 305 299 296 306 306 305 310 312 310 308 307 307 303 301 300 304 304 301 304 305 306 305
315 315 315 314 313 314 313 313 312 312 313 312 310 311 312 313 311 311 311 312 309 309 310 309 309 302 293 305 304 305 305 310 313 313 313 313 310 304 299 301 299 298 300 295 302 304 306
315 315 314 313 313 313 314 314 313 312 313 312 311 309 310 311 312 311 312 312 309 308 309 308 298 295 288 306 301 304 304 307 312 312 314 315 308 301 298 294 289 291 286 291 296 303 303
314 315 314 313 313 313 314 313 313 313 312 312 311 310 308 310 311 311 312 310 309 306 304 304 302 289 293 292 299 303 307 308 306 306 304 305 302 294 291 291 284 286 284 288 291 299 301
314 314 313 312 312 313 313 313 313 312 312 311 310 310 308 309 309 311 305 297 292 289 293 289 291 290 293 298 306 302 303 304 305 301 291 297 292 289 289 290 289 289 287 287 291 299 297
313 313 313 312 312 312 312 311 312 312 311 310 309 309 308 308 309 310 299 292 294 293 286 295 294 294 297 301 294 299 302 297 297 291 290 290 287 292 295 294 291 290 287 286 291 297 297
313 313 312 312 311 311 312 311 311 311 310 310 310 309 307 308 308 302 295 295 302 300 289 292 295 295 297 299 294 296 298 296 292 289 286 289 291 296 295 293 289 286 286 286 288 292 293
312 311 312 310 310 311 310 310 310 310 310 310 309 308 307 308 301 296 294 301 301 300 283 287 291 294 298 297 292 302 301 298 295 288 290 290 296 293 292 291 290 285 290 290 289 288 283
311 310 311 310 310 310 309 309 310 309 309 308 308 308 306 308 296 295 298 301 299 295 274 289 292 301 298 294 293 296 302 299 290 291 291 287 293 291 290 292 294 288 291 289 288 284 284
310 310 310 308 309 309 308 309 309 309 309 308 307 307 307 304 304 300 300 300 299 276 273 285 291 290 289 293 293 297 297 302 300 294 294 293 297 293 292 293 293 292 288 287 286 283 276
309 309 309 308 309 308 309 309 308 308 308 307 307 308 306 303 295 301 302 295 278 273 287 285 287 289 288 288 290 292 291 289 288 284 285 290 291 293 293 290 291 289 284 275 274 273 274
309 308 308 308 308 308 308 308 307 308 307 307 307 307 306 302 300 300 297 284 271 282 286 291 289 289 285 289 289 289 288 287 292 290 285 285 281 290 292 288 286 286 285 277 273 273 275
308 307 307 307 308 307 307 307 307 308 307 307 304 297 298 303 303 302 291 271 274 276 288 290 289 286 285 289 288 288 287 288 291 291 285 284 284 293 292 292 290 286 280 283 276 273 271
308 306 306 307 307 307 307 307 307 307 307 306 294 294 295 302 304 299 287 280 281 288 291 291 286 288 284 287 285 286 286 292 292 292 290 285 283 291 293 293 292 287 289 283 277 269 271
308 306 306 307 307 307 306 307 307 307 306 304 293 294 297 303 303 293 276 281 287 293 293 289 287 286 288 287 288 287 285 291 293 291 290 287 285 287 292 288 286 286 282 282 282 277 272
307 306 306 306 306 306 306 307 307 307 305 298 290 289 298 303 292 290 278 286 295 292 293 291 290 289 287 289 287 284 285 288 295 294 288 289 285 283 287 293 292 287 284 284 277 275 275
307 306 306 305 306 306 306 307 307 305 304 292 288 291 301 301 286 282 286 290 292 291 290 290 288 289 288 285 284 286 286 291 295 292 289 290 284 280 281 288 290 289 289 286 284 280 275
307 307 305 305 306 305 306 306 306 304 304 294 287 282 290 297 294 285 284 287 288 292 291 291 289 289 287 285 287 284 286 293 296 295 298 294 284 280 277 279 285 284 288 289 286 282 283
307 307 305 305 305 305 306 306 306 303 302 292 286 285 286 280 286 286 287 289 288 289 291 291 289 288 286 282 283 283 286 288 293 297 293 290 279 279 283 285 285 284 284 288 286 287 283
307 306 305 305 305 305 305 305 305 302 298 286 283 283 286 284 286 284 287 288 288 291 290 288 289 289 288 285 284 284 286 284 285 286 288 288 280 280 278 284 284 282 284 286 288 288 288
307 306 306 305 304 305 305 305 305 302 294 284 283 285 285 283 283 288 284 287 286 288 292 295 294 290 288 289 290 289 289 288 287 287 285 284 279 275 273 280 280 277 282 284 285 288 288
307 306 306 305 304 304 304 304 305 302 295 287 284 282 282 279 280 282 284 285 285 286 289 291 295 291 292 296 293 290 288 288 288 286 287 282 279 276 271 276 268 280 284 286 285 287 290
307 306 306 305 305 304 304 304 304 303 299 288 286 283 280 277 279 280 283 284 285 286 289 293 291 290 291 292 287 284 283 284 285 285 284 285 281 275 273 272 278 280 284 283 282 283 286
307 306 305 305 304 304 304 304 304 303 301 290 287 286 282 279 278 282 280 281 278 279 287 289 290 288 291 289 285 278 277 280 280 284 290 289 288 281 277 273 272 280 286 288 287 279 287
307 306 305 305 304 304 304 304 304 303 301 292 289 287 284 280 281 281 278 279 281 280 281 284 284 287 289 284 283 280 277 282 279 279 281 284 285 279 278 277 280 285 287 289 278 280 290
307 306 306 305 304 303 304 304 303 303 301 293 289 291 285 281 282 285 286 281 281 280 278 281 284 285 285 282 282 281 280 280 278 280 280 281 278 278 280 278 273 287 288 283 288 290 292
307 307 306 305 304 303 304 304 303 302 301 295 287 291 291 283 283 286 287 287 286 285 282 282 281 286 285 286 285 284 281 283 278 277 280 279 282 282 281 281 287 287 290 292 292 292 292

GFSGBSN_sfc_thetae_051.txt.gz
Theta_e
317 317 316 316 314 314 315 314 315 314 313 312 314 315 313 311 312 311 311 312 311 312 311 312 311 311 305 297 296 308 312 311 308 310 309 306 302 301 299 302 305 302 304 307 308 308 309
317 317 316 315 314 314 314 314 313 313 314 314 311 312 313 312 310 311 311 311 311 311 311 310 309 310 302 291 306 308 307 306 306 309 308 308 303 303 301 302 302 304 305 304 307 307 308
317 316 315 315 314 314 314 314 313 313 313 313 314 310 311 312 313 311 311 312 310 309 310 310 310 306 299 296 306 306 306 304 309 311 307 310 308 304 303 300 306 305 301 304 305 306 305
318 316 315 315 313 314 313 314 314 314 313 313 312 312 309 311 311 312 311 312 311 309 310 308 309 301 293 304 307 306 306 304 311 313 313 312 311 305 303 304 302 300 301 294 302 305 306
318 315 315 314 313 314 314 314 313 314 314 313 312 311 309 309 311 311 312 312 310 308 309 308 299 296 289 305 302 304 305 306 310 311 313 312 309 303 301 296 294 296 291 293 298 305 303
318 315 315 314 313 313 314 314 313 313 313 312 311 311 310 309 310 310 312 310 309 305 304 304 302 290 293 292 299 303 307 309 305 306 305 305 302 295 294 293 285 289 289 292 294 300 301
318 315 314 313 313 312 313 312 312 312 312 311 310 310 310 308 309 310 305 296 292 289 294 290 291 290 293 299 305 302 303 304 305 301 294 298 293 289 292 292 292 291 290 290 294 302 299
317 314 314 313 312 312 312 312 312 311 311 311 310 310 310 307 308 309 299 291 293 293 286 295 294 294 297 301 294 299 303 296 297 290 293 290 288 293 296 294 292 291 289 290 293 300 299
317 314 313 312 311 311 311 311 310 310 310 310 310 309 309 307 309 302 295 294 302 300 288 292 295 295 297 299 294 296 299 296 293 289 289 289 291 296 296 292 290 289 288 288 290 296 296
316 313 312 312 310 310 310 309 310 311 310 310 309 308 308 307 300 296 294 300 301 300 282 287 290 294 298 297 292 301 302 298 293 288 289 289 296 295 294 292 291 287 292 291 291 291 286
315 312 311 310 309 309 309 309 310 309 309 309 308 307 307 307 295 294 297 301 300 294 272 289 292 300 298 293 293 294 302 299 290 290 290 287 293 293 292 292 293 289 292 290 290 287 287
313 311 310 309 309 309 309 309 309 309 309 307 307 307 307 305 303 299 300 298 299 276 272 285 291 289 290 292 293 297 296 302 300 292 292 292 297 295 293 295 293 292 289 289 288 287 282
312 310 309 308 308 309 308 308 308 308 307 307 307 309 306 302 295 301 300 294 279 271 287 284 286 288 288 288 290 291 291 291 288 284 285 290 292 293 294 291 293 290 286 281 280 278 279
311 310 308 308 308 308 307 308 307 307 307 307 307 306 305 302 300 301 298 285 274 281 286 290 288 288 286 288 288 289 289 288 292 290 286 285 282 290 292 291 289 288 286 279 274 275 279
310 309 308 307 307 307 307 307 307 307 307 307 305 297 301 303 303 302 292 272 273 280 290 287 287 283 283 288 287 287 287 288 291 291 284 285 284 293 292 293 291 288 286 285 277 276 276
310 309 307 306 307 306 306 307 307 307 306 305 294 293 295 302 304 299 287 280 283 288 292 290 285 286 280 285 283 285 285 291 291 293 291 287 283 292 293 293 292 289 289 282 279 272 273
310 308 307 306 305 306 306 307 307 307 305 304 293 294 297 304 303 294 280 282 287 292 293 290 288 287 286 284 284 284 284 291 294 292 290 288 286 287 292 289 286 287 284 284 284 280 276
309 308 307 306 305 305 306 306 307 306 304 298 291 291 299 303 292 290 282 285 294 291 293 292 291 290 289 290 286 283 285 289 295 293 288 289 286 284 287 293 293 289 286 285 280 277 277
309 308 307 306 305 305 306 306 306 305 304 292 287 294 301 301 286 281 285 289 291 290 289 289 288 290 290 288 284 286 287 292 295 292 289 290 283 281 283 288 290 290 289 287 284 281 276
308 308 307 306 305 304 305 305 305 303 305 293 287 283 293 297 295 287 285 286 287 292 290 290 288 289 286 285 286 285 286 294 295 295 297 293 284 280 278 280 285 284 287 288 285 278 281
308 308 307 306 305 304 305 305 305 301 305 292 285 283 286 287 287 284 286 287 287 288 290 292 288 288 285 283 283 283 286 290 294 297 292 289 280 281 283 285 286 285 286 288 286 287 283
308 307 307 306 305 304 304 305 304 300 298 286 284 284 285 282 284 284 286 286 287 288 290 288 288 288 287 285 284 283 286 286 288 290 292 289 280 281 279 284 285 283 285 285 288 288 287
308 307 307 306 305 304 304 304 303 300 294 283 282 284 284 281 282 286 283 285 285 288 291 294 293 289 288 288 289 289 288 288 288 287 285 286 283 280 277 281 281 279 283 284 285 288 289
308 307 306 306 305 304 304 304 302 300 293 286 283 283 282 279 279 281 285 286 286 286 288 291 293 290 292 293 293 289 288 287 287 286 287 282 280 277 272 277 270 281 285 286 285 286 289
307 307 306 306 305 304 304 304 303 300 298 287 285 283 280 277 279 280 283 283 285 286 288 291 289 288 288 290 286 284 283 284 285 286 285 285 281 276 274 273 278 281 284 284 283 284 287
307 307 306 306 304 304 304 304 303 301 299 288 286 285 282 280 278 281 279 280 279 281 287 288 289 289 292 289 285 279 277 280 280 284 289 289 287 282 278 274 273 280 286 288 287 280 289
307 307 306 305 304 304 304 303 303 301 300 292 288 286 284 280 280 279 278 278 280 279 280 282 284 286 289 286 284 280 277 281 279 279 281 284 285 281 280 280 280 285 287 289 279 282 290
307 306 305 305 304 304 304 303 302 302 300 293 289 289 284 281 281 284 285 279 280 279 279 281 283 284 285 283 282 280 279 279 277 279 279 281 279 279 281 280 274 287 288 285 287 290 291
308 306 305 305 304 304 304 303 302 301 300 294 287 291 289 284 283 286 286 286 286 284 281 280 281 285 283 286 285 284 281 282 277 276 281 279 283 281 282 281 286 288 288 290 289 288 289

GFSGBSN_sfc_thetae_054.txt.gz
Theta_e
320 318 317 317 316 315 314 315 314 313 314 314 315 311 312 314 312 311 312 312 312 312 312 311 311 312 308 299 298 310 312 313 310 312 309 307 305 305 301 305 307 303 304 307 308 309 310
320 318 317 316 315 315 315 314 315 315 314 314 314 313 310 312 313 313 311 312 312 311 311 311 311 309 303 292 307 309 308 308 308 308 308 309 306 307 303 304 304 307 307 305 307 308 307
321 319 317 316 315 314 314 314 314 314 315 314 314 313 311 309 311 313 312 312 313 310 311 310 310 306 300 296 308 308 307 305 307 309 306 310 310 306 306 303 308 307 303 305 305 306 304
322 320 317 316 315 314 314 314 315 314 315 314 313 312 311 309 310 312 312 312 312 309 310 310 309 304 295 305 308 307 307 305 307 310 312 313 312 308 306 308 305 302 302 296 304 306 307
323 320 317 316 315 314 314 314 314 314 314 314 312 311 311 309 309 311 311 312 312 310 309 310 303 300 293 307 301 304 307 305 308 310 312 313 310 304 305 299 297 299 293 295 298 306 305
324 321 317 316 315 314 313 313 313 313 313 312 312 311 311 309 308 310 310 311 309 307 306 306 304 295 297 294 300 304 308 309 305 306 305 304 303 298 299 296 288 291 293 296 296 301 303
325 321 317 315 314 314 313 312 313 313 312 311 312 310 310 309 307 310 309 305 300 296 298 293 294 293 295 302 306 302 305 305 305 302 295 298 292 292 295 297 296 297 295 295 297 303 300
324 320 316 315 314 313 312 312 312 311 311 311 310 309 309 309 307 309 307 298 296 299 290 297 297 297 299 303 295 299 306 294 297 292 295 291 288 297 299 298 297 296 294 295 298 302 301
323 319 316 314 313 311 311 311 310 310 311 310 310 309 309 308 307 306 302 298 306 303 293 294 297 297 299 301 295 296 301 294 295 292 291 289 292 299 297 296 293 295 293 294 294 300 301
323 319 315 313 312 310 310 310 310 310 309 309 309 308 308 306 303 304 300 304 306 304 288 287 292 296 299 300 293 302 303 295 294 291 291 290 297 296 295 294 295 290 297 297 295 294 289
321 318 314 312 311 309 309 309 310 309 309 308 308 308 307 306 303 300 301 306 306 301 278 290 292 302 300 295 295 296 303 299 291 291 293 288 293 294 294 295 297 293 297 296 295 293 292
320 316 313 312 309 309 308 308 309 308 308 308 308 308 307 306 305 304 306 305 303 285 277 286 292 291 292 294 294 297 298 302 300 294 294 292 298 297 296 297 297 297 295 295 295 293 285
319 314 312 311 309 309 308 308 308 307 307 307 308 308 306 306 301 307 306 301 285 282 288 284 286 290 290 289 291 291 292 291 289 286 286 291 292 296 299 293 296 296 293 284 283 283 283
316 313 311 310 309 308 307 307 307 307 307 307 307 307 306 305 306 306 303 290 282 285 285 290 289 290 286 289 289 290 290 288 293 292 287 286 283 292 296 295 292 292 292 286 278 280 284
315 312 311 309 308 307 307 307 307 307 307 307 307 306 305 304 305 305 295 286 285 286 290 288 289 284 286 289 288 288 289 290 292 293 287 286 285 295 296 296 296 292 288 290 285 283 285
314 312 310 309 308 307 306 307 307 307 307 306 304 303 302 305 306 302 292 286 288 291 292 290 284 287 284 287 285 287 288 293 292 295 296 291 285 293 294 297 296 294 295 287 288 280 278
313 311 309 309 308 306 306 306 307 307 305 305 303 298 303 306 306 296 286 287 290 294 295 290 289 287 288 286 287 286 287 293 296 294 295 294 291 288 294 292 291 291 290 290 290 287 282
312 311 309 309 307 306 305 306 306 306 305 303 302 294 304 305 294 293 288 291 295 295 296 295 293 291 290 289 286 288 288 292 298 297 291 293 292 285 288 295 296 294 292 293 286 284 286
311 310 309 308 307 306 305 306 306 305 305 301 298 296 304 302 290 291 292 292 295 294 293 293 292 293 294 291 287 289 291 296 298 296 293 294 289 282 284 289 293 292 292 292 291 289 285
311 309 309 307 306 306 305 305 305 303 305 301 298 290 295 298 297 291 291 292 292 296 294 294 292 294 291 289 291 289 291 295 297 297 297 297 290 287 285 287 291 288 291 292 291 287 287
310 309 308 307 306 306 305 304 304 301 306 300 295 293 294 289 292 292 293 292 291 291 295 296 293 292 291 288 289 289 291 293 295 297 295 294 287 287 288 289 290 290 290 292 288 290 287
310 309 308 307 306 306 304 304 302 302 302 296 293 293 293 291 290 292 291 290 291 292 294 293 291 292 292 290 289 289 291 291 292 295 294 293 287 287 284 287 288 287 290 290 291 292 291
309 308 308 307 306 305 304 304 301 301 298 294 292 293 294 286 289 291 289 288 289 292 295 296 295 294 293 293 296 296 295 295 295 294 291 291 288 286 282 284 285 282 286 288 290 292 292
309 308 308 307 306 305 305 303 301 299 297 295 293 294 292 285 289 287 287 289 290 291 292 294 296 295 295 296 298 295 294 294 294 292 294 289 287 286 283 283 277 285 289 289 289 290 292
309 308 307 307 306 305 304 303 301 300 297 295 292 291 291 284 286 286 287 287 290 292 293 293 292 292 295 296 292 289 289 289 289 291 291 292 289 283 282 281 284 287 289 289 288 289 293
308 308 307 306 305 305 304 303 302 300 298 295 292 291 293 288 284 285 285 285 289 288 291 291 293 295 297 295 291 284 283 285 285 287 291 291 291 288 284 279 278 286 291 293 292 286 293
308 308 307 306 305 304 304 304 302 301 299 296 293 291 293 286 286 286 286 285 286 286 288 287 286 291 295 293 288 286 285 287 284 284 285 287 287 285 284 282 285 290 292 293 284 285 292
309 308 306 305 305 305 304 303 302 301 299 297 293 293 293 287 287 288 288 286 285 286 289 285 288 290 292 289 288 287 287 286 285 286 286 285 284 285 285 282 279 289 293 288 288 290 289
308 308 306 305 305 304 304 303 302 301 299 297 292 294 294 291 287 290 290 291 290 289 287 287 288 287 289 290 289 288 285 287 284 283 288 284 286 286 286 286 289 289 291 290 290 289 289

GFSGBSN_sfc_thetae_057.txt.gz
Theta_e
323 321 319 318 317 316 315 315 315 315 315 315 315 315 313 311 313 314 312 312 313 312 312 312 312 311 310 300 299 312 311 313 314 312 310 308 306 306 301 303 302 303 306 309 310 310 311
325 323 320 318 317 317 315 315 315 315 314 315 315 314 312 311 310 312 313 312 313 313 310 311 311 311 305 294 308 309 309 309 312 309 308 309 307 309 303 303 301 304 307 308 309 309 310
325 324 322 319 318 317 315 315 315 315 315 315 315 313 312 311 310 311 313 313 312 313 310 311 310 308 301 297 308 309 308 306 311 309 303 310 312 307 306 302 307 303 299 305 306 307 305
327 325 323 320 317 317 315 315 315 315 314 314 314 313 312 311 310 309 312 312 313 312 309 311 310 305 295 306 310 307 308 307 309 310 308 311 312 307 305 306 304 301 302 295 303 305 306
329 327 324 321 317 317 315 314 314 314 314 313 312 312 312 311 310 309 311 311 312 311 310 310 306 301 293 308 302 306 307 304 307 308 309 311 311 305 305 299 296 299 292 295 299 306 305
331 329 325 320 317 316 315 314 313 313 313 312 312 311 310 310 309 308 310 311 310 310 307 306 304 297 298 296 300 303 307 306 305 304 301 303 302 299 299 297 288 292 292 295 296 302 304
330 330 325 320 317 315 315 314 313 312 311 311 311 310 310 309 309 308 309 307 301 298 299 294 295 294 296 303 307 303 306 305 304 301 294 295 293 292 296 298 297 296 294 294 298 303 301
330 330 324 319 317 315 314 313 312 311 310 311 310 310 309 309 308 308 308 300 299 301 292 298 297 297 300 304 296 299 305 293 297 293 296 292 288 297 299 298 296 295 294 294 299 303 301
330 329 323 318 316 314 313 311 311 310 311 310 309 309 308 308 307 307 304 300 307 305 294 295 298 297 299 302 295 297 301 295 295 294 293 290 292 299 297 296 294 295 294 294 295 300 301
329 328 322 318 316 314 312 310 310 310 309 309 308 308 308 308 301 306 301 305 308 306 288 289 293 297 300 300 294 301 302 296 294 291 293 291 296 296 296 294 296 291 298 297 296 295 290
329 325 320 317 314 313 311 310 309 309 309 308 308 308 308 307 304 301 304 308 307 303 279 291 292 303 300 295 296 296 304 298 293 293 293 289 292 294 294 295 297 293 298 297 297 294 293
328 322 319 315 313 311 310 309 309 308 308 308 307 308 308 305 306 306 308 307 304 285 277 287 292 292 292 295 295 297 298 302 300 296 293 293 299 298 296 298 298 299 296 295 295 293 286
324 321 317 315 313 311 310 308 307 308 307 307 307 308 306 307 301 308 307 302 286 282 288 285 287 291 291 290 291 293 293 292 290 286 285 289 290 297 300 295 298 297 293 285 283 284 283
323 321 316 314 312 311 309 308 307 306 307 306 306 307 306 307 310 308 304 292 283 286 286 292 290 291 287 291 290 291 290 288 294 293 288 286 282 293 299 295 292 293 292 286 278 281 284
322 318 315 313 312 310 309 308 306 306 306 306 307 307 306 306 308 308 297 286 286 288 291 289 290 287 287 290 290 291 289 290 293 295 288 287 286 295 298 298 297 292 290 293 287 288 286
321 317 314 312 311 310 309 307 307 307 306 307 305 304 304 307 308 304 293 288 290 293 294 292 286 288 285 288 288 290 290 293 292 296 297 292 286 294 296 298 297 295 297 287 289 280 279
319 316 313 312 310 309 308 307 307 306 305 307 305 299 305 309 308 298 289 291 292 296 294 291 288 287 289 288 289 288 289 294 296 295 297 296 291 290 294 293 291 292 290 292 292 288 283
318 315 313 311 310 309 307 307 307 306 307 305 304 294 305 308 294 297 291 294 296 296 298 295 294 292 290 290 288 289 289 293 299 298 292 295 292 286 289 295 297 296 293 293 286 285 287
317 315 312 310 309 308 307 307 307 306 308 307 298 298 305 305 290 292 295 295 296 295 295 294 293 294 295 292 288 292 293 297 299 297 294 296 290 283 284 291 295 292 294 294 293 291 287
316 314 311 310 309 307 307 307 306 305 307 306 300 291 297 299 298 294 294 293 293 298 296 296 294 296 294 292 294 291 292 296 299 298 297 298 291 288 284 288 292 288 291 293 291 286 286
315 313 311 310 308 307 307 306 306 304 306 305 300 296 298 290 294 296 296 295 292 292 297 297 294 294 292 290 291 290 293 295 297 297 297 296 289 288 290 292 292 292 291 292 289 290 287
314 312 310 309 308 307 306 306 304 304 306 302 296 295 297 297 297 296 293 294 293 294 295 293 293 294 294 291 291 290 293 293 292 296 295 296 287 289 287 289 290 288 291 292 293 293 292
313 311 310 308 308 307 306 305 303 307 305 300 298 299 298 292 295 295 294 293 293 296 297 298 296 295 294 295 297 298 297 298 296 294 294 293 290 287 284 286 286 283 288 290 291 293 292
312 310 309 308 307 306 305 303 303 306 303 301 301 301 296 291 294 294 292 294 294 294 294 296 297 296 296 299 299 298 297 296 296 295 297 292 290 289 284 285 278 286 291 290 289 291 293
311 310 309 308 307 306 305 303 302 303 302 299 299 298 297 291 293 291 293 293 295 296 295 295 294 295 299 298 293 290 290 290 291 293 293 295 291 286 283 282 286 288 290 290 289 289 293
311 309 308 307 306 306 305 303 301 301 300 299 297 297 298 292 289 292 292 294 293 293 294 293 296 299 300 297 292 285 283 287 285 288 293 292 293 288 285 280 278 287 292 295 294 285 293
310 309 308 308 306 305 305 304 302 301 300 300 296 297 298 289 289 289 291 291 292 293 293 292 291 295 298 294 288 287 286 289 284 284 285 287 288 285 285 282 286 289 293 295 283 285 291
310 309 308 307 306 305 305 304 303 301 300 301 295 298 297 289 289 291 290 289 289 290 292 290 292 293 295 291 290 289 287 289 288 289 287 286 285 284 285 282 279 290 293 287 289 292 292
309 308 307 306 306 305 304 303 302 300 300 301 293 297 299 293 289 293 292 293 292 291 291 292 291 291 293 292 292 291 287 289 288 284 291 285 289 287 287 287 291 292 291 292 292 290 291

GFSGBSN_sfc_thetae_060.txt.gz
Theta_e
325 325 324 322 320 319 318 316 316 316 316 316 316 316 315 313 312 311 312 314 313 314 312 312 312 313 308 300 299 311 311 314 314 313 307 307 306 304 300 301 306 303 305 309 311 311 310
327 326 326 324 321 319 318 316 316 316 316 316 315 315 314 313 312 311 311 313 314 313 313 311 312 311 304 293 308 309 309 309 310 310 306 307 306 308 303 303 302 302 304 305 308 308 310
330 328 327 326 323 320 318 317 315 316 316 315 314 314 313 313 312 311 310 313 313 313 312 311 312 307 300 297 307 308 308 306 309 309 304 307 308 305 304 301 306 303 299 302 305 306 306
331 330 330 327 324 320 318 317 315 315 315 315 314 313 313 312 312 311 309 311 312 313 312 310 312 305 295 307 308 306 308 306 308 311 308 308 309 306 304 306 302 296 297 291 302 306 305
331 331 330 330 326 320 318 317 316 315 314 314 312 312 312 311 311 310 309 311 311 312 312 311 305 302 293 308 301 305 306 302 305 307 307 308 307 304 304 297 294 296 287 288 296 305 303
331 330 330 329 326 320 318 317 316 314 314 312 311 312 311 310 310 310 308 311 311 310 309 306 303 295 299 296 302 303 307 306 302 303 301 298 299 297 297 294 286 289 290 291 292 300 301
330 330 330 329 324 319 317 316 315 313 312 311 312 311 310 310 310 309 307 306 300 297 300 294 294 294 296 303 306 302 306 302 303 300 288 293 290 289 292 296 296 295 293 291 295 301 298
330 330 330 328 322 319 316 316 314 312 311 311 310 310 309 309 309 307 307 300 300 301 292 298 297 297 299 303 296 300 305 295 294 290 292 289 287 294 298 298 296 294 292 292 298 302 299
329 330 330 327 321 318 316 314 312 311 310 310 309 309 308 308 307 305 303 302 308 305 294 295 297 297 298 302 295 296 300 295 292 290 290 288 293 298 296 295 293 293 291 293 294 299 300
329 329 329 326 320 318 315 313 311 310 310 309 309 308 308 308 302 304 301 306 309 307 287 289 293 297 300 300 293 301 301 296 295 290 293 291 295 294 294 293 294 289 296 297 296 293 287
328 328 328 325 320 318 314 312 310 309 308 309 308 307 308 308 302 300 304 308 308 303 277 290 292 302 300 295 296 296 304 299 293 292 293 288 291 291 293 294 296 292 298 296 296 292 289
325 327 327 323 319 316 314 311 309 308 308 307 307 308 308 304 305 306 308 308 303 284 275 286 292 292 292 295 294 298 297 301 301 294 295 293 299 297 296 297 298 297 294 294 292 289 279
320 326 326 321 319 315 313 311 309 307 307 306 307 308 306 307 301 309 307 301 285 280 288 285 287 291 291 289 291 294 292 292 289 282 285 289 291 297 299 293 296 294 289 279 278 276 277
320 325 324 321 317 314 312 310 308 307 307 306 307 307 306 307 309 308 304 292 281 285 286 291 290 291 288 291 290 292 289 288 293 291 287 285 281 292 299 294 291 291 290 282 276 275 279
319 321 323 320 317 314 312 310 308 308 307 307 307 306 305 306 308 308 297 285 285 287 290 288 290 286 287 290 290 291 289 289 292 294 286 286 285 295 297 298 295 290 285 290 283 283 279
315 320 322 319 316 313 311 310 308 308 307 308 305 303 302 307 309 303 293 288 289 294 293 291 285 288 285 287 288 289 289 293 292 296 296 290 285 293 296 298 296 293 293 283 283 274 275
314 316 321 318 315 312 311 310 309 308 307 308 304 298 303 309 307 297 288 290 293 296 295 291 289 287 288 287 289 288 289 292 295 295 295 294 290 289 293 291 289 290 288 289 288 283 279
313 314 320 317 313 311 310 309 309 308 307 306 304 293 305 308 294 295 291 294 295 295 297 295 294 292 290 290 288 288 289 292 298 296 292 295 290 284 288 295 296 294 291 290 281 280 282
312 313 318 315 312 311 310 309 308 307 308 305 298 296 305 304 290 290 295 295 296 295 295 294 293 294 295 290 287 291 292 297 299 297 293 295 288 280 282 289 293 290 292 292 291 288 281
309 311 317 314 311 310 309 308 308 308 310 304 298 289 295 299 297 292 292 292 292 298 295 296 295 296 294 291 293 290 291 297 298 298 298 296 290 284 279 283 288 285 289 291 288 280 283
307 311 315 313 311 310 309 308 308 307 309 304 299 294 295 288 291 294 296 294 292 291 297 297 293 294 292 289 290 289 292 294 297 297 295 294 286 284 288 291 290 289 288 289 285 287 281
306 311 314 312 311 309 308 308 308 307 308 300 295 294 296 295 296 294 294 293 293 294 295 292 292 294 293 290 291 289 291 292 289 293 292 293 284 284 281 288 288 284 289 291 291 291 290
305 307 313 312 310 308 308 308 307 306 307 299 297 299 296 295 294 293 293 293 294 296 296 297 296 294 292 293 294 295 295 296 295 293 291 290 284 281 279 284 283 278 285 288 289 290 289
304 311 313 311 309 308 308 307 305 307 307 300 298 299 294 288 293 293 294 295 294 295 293 295 297 295 295 298 297 294 294 294 294 294 295 291 288 283 277 279 271 282 288 289 288 290 290
305 306 312 310 309 308 307 305 304 308 308 298 298 297 294 290 291 292 294 294 295 295 294 293 293 294 297 296 291 287 287 288 289 291 290 292 289 282 279 277 282 284 287 287 286 287 290
304 306 310 309 308 307 306 304 304 307 308 298 297 296 296 292 287 294 292 294 291 291 291 292 295 297 296 294 289 281 281 285 283 286 290 291 289 283 280 276 274 284 290 292 290 281 288
305 311 311 309 308 307 305 303 303 305 304 299 294 296 295 287 287 289 288 289 293 291 291 290 291 293 295 290 285 282 281 287 281 281 281 284 284 280 280 278 282 286 290 292 280 280 288
304 310 309 308 307 306 305 303 302 302 302 299 294 297 295 288 287 290 290 287 288 288 288 287 289 290 291 288 286 284 283 284 283 285 283 283 280 280 282 280 275 288 289 284 285 288 288
304 306 309 307 306 306 305 303 302 302 302 301 292 296 297 290 287 291 291 291 290 290 288 290 289 290 289 289 287 286 284 285 284 280 286 281 284 282 284 283 287 288 287 289 289 288 288

GFSGBSN_sfc_thetae_063.txt.gz
Theta_e
330 329 328 327 327 324 321 319 318 317 317 317 317 316 316 315 313 313 312 312 314 314 313 314 312 313 307 299 299 311 312 314 314 313 306 304 302 302 298 300 304 302 305 308 310 311 308
331 331 330 329 327 326 322 320 318 317 317 317 316 315 314 314 313 313 311 311 314 314 313 313 311 312 303 292 307 311 309 308 310 309 305 304 303 306 301 300 302 304 305 307 309 309 309
331 331 331 330 329 328 324 320 319 317 316 317 316 315 313 313 313 313 311 310 312 313 313 312 310 307 299 295 306 308 307 306 309 308 304 306 307 303 304 301 305 304 300 302 306 307 306
331 331 330 331 330 329 325 320 318 317 316 315 315 313 313 312 312 312 311 309 311 312 313 312 310 304 293 307 305 305 307 306 308 310 308 308 308 304 303 305 302 299 298 292 300 303 306
331 331 330 330 330 330 325 320 318 317 316 314 314 312 313 311 311 310 310 309 310 312 312 312 303 299 292 308 301 303 304 302 305 307 307 307 303 301 303 297 293 294 287 290 292 302 303
329 330 330 330 330 330 325 320 318 317 315 313 311 312 311 311 310 310 309 310 310 310 307 308 303 292 297 296 301 304 306 305 302 302 299 299 296 295 296 293 285 288 285 290 290 299 300
324 328 329 329 329 328 324 320 317 317 313 312 311 310 310 310 309 308 305 302 297 294 298 292 293 293 296 303 306 302 305 302 302 299 289 293 288 286 289 293 294 294 290 289 294 300 298
320 323 327 329 328 327 323 319 317 315 312 311 311 309 309 308 308 307 304 297 297 298 291 297 297 296 299 303 296 299 304 294 295 290 292 289 286 292 296 295 295 294 291 290 295 298 298
317 321 324 327 328 327 322 319 317 314 311 311 309 308 308 307 307 302 299 300 305 302 291 295 298 297 298 301 295 296 300 296 292 289 289 287 291 296 295 293 293 291 290 292 293 298 299
315 318 322 324 327 325 321 318 315 312 310 310 308 307 307 307 300 300 300 305 305 302 284 287 293 296 299 299 293 302 302 296 294 287 291 291 296 295 293 293 294 287 294 296 296 293 288
313 315 318 322 324 324 320 317 314 311 310 308 308 307 307 308 298 300 302 305 303 298 267 288 292 302 300 295 295 297 304 298 291 291 292 288 292 292 292 294 296 292 295 296 295 292 290
312 314 316 321 321 323 320 316 313 311 309 308 307 308 309 303 303 305 304 302 299 281 265 280 293 292 292 295 294 298 297 301 301 294 294 293 298 297 295 297 297 296 293 292 293 290 280
312 314 316 317 319 322 318 315 312 310 309 307 307 309 306 306 300 304 303 297 284 269 287 282 287 291 290 289 292 293 292 290 289 283 284 289 289 297 298 291 295 292 286 280 279 276 278
311 313 315 317 319 321 316 313 312 310 308 307 308 308 306 307 305 303 299 291 272 284 281 290 290 290 287 290 290 290 288 285 293 291 286 284 281 292 297 293 288 288 286 279 276 274 277
310 313 314 314 315 320 316 312 311 309 308 308 308 301 303 302 305 303 296 284 283 283 288 288 289 284 285 289 289 289 288 289 292 293 285 285 285 295 296 296 293 288 281 287 281 280 276
308 313 313 313 314 318 315 312 310 309 308 308 299 299 301 304 304 299 291 287 288 292 292 290 283 286 282 285 285 287 287 291 291 295 293 290 284 292 295 296 295 291 291 282 279 272 274
308 311 311 313 313 316 313 312 310 309 308 309 299 296 302 305 302 296 286 288 292 295 294 290 285 285 285 284 287 287 287 290 293 294 293 291 288 288 291 290 288 288 287 288 286 282 277
306 309 309 309 313 315 313 310 310 309 309 305 297 289 303 302 292 293 288 293 296 294 297 293 291 290 288 287 286 287 289 289 295 294 289 292 288 284 287 294 295 292 289 289 280 280 280
306 308 308 308 310 314 312 310 310 309 309 299 294 294 304 302 284 287 293 294 297 294 295 293 291 292 292 288 284 291 291 296 299 295 290 292 287 281 282 287 291 289 291 291 290 286 280
307 308 307 307 310 313 311 309 310 310 310 301 293 287 295 297 295 290 289 290 291 298 296 296 293 293 292 288 290 289 290 296 298 295 299 295 287 281 278 283 287 285 289 290 287 279 283
307 308 306 307 312 312 310 309 310 310 310 300 294 288 291 286 286 290 294 292 290 290 294 294 291 292 290 286 289 289 291 294 295 297 294 292 282 281 287 290 289 288 287 288 285 286 281
307 308 306 306 313 312 309 309 310 309 310 296 292 290 290 288 291 291 292 292 291 293 292 291 291 292 291 288 289 287 290 291 291 291 290 291 281 283 279 287 287 284 287 288 288 288 288
306 307 305 306 308 311 309 308 309 309 306 294 293 293 292 290 289 288 288 291 292 293 294 295 295 292 290 291 291 292 293 292 293 290 289 288 282 278 275 283 282 278 284 286 288 289 290
305 307 305 307 311 310 308 307 308 309 307 296 293 293 288 285 289 289 292 294 292 292 291 292 294 291 293 295 295 293 292 292 292 293 294 288 284 279 273 277 270 281 286 288 287 288 289
304 306 305 306 312 309 308 307 308 308 308 294 293 293 289 284 288 291 294 291 292 292 290 290 291 292 295 293 287 285 284 285 287 289 288 290 286 278 276 273 279 283 286 286 285 284 287
304 306 305 306 307 309 308 307 308 307 308 294 291 292 291 287 282 285 291 291 287 286 288 289 292 295 294 291 287 279 278 283 281 284 288 289 287 282 278 275 274 282 288 291 289 279 286
304 305 305 307 309 308 307 306 306 307 308 295 290 293 289 283 284 286 286 287 289 288 285 287 289 291 293 287 283 280 278 285 279 280 280 282 282 278 277 275 280 284 287 291 278 278 286
304 304 304 310 309 307 306 306 305 308 308 295 290 293 289 283 283 287 287 284 286 286 285 286 287 288 288 285 284 282 281 282 281 284 282 281 277 278 279 279 276 286 287 283 284 286 287
305 304 304 304 307 307 305 304 304 307 303 297 288 293 293 286 283 288 289 289 288 287 287 287 287 287 288 286 285 284 282 282 281 278 284 280 283 281 281 280 286 286 285 287 287 286 285

GFSGBSN_sfc_thetae_066.txt.gz
Theta_e
331 331 330 330 330 329 329 326 322 320 319 318 318 317 316 314 314 313 313 311 312 314 314 313 313 312 306 298 298 310 312 311 314 311 305 302 302 302 298 300 302 301 303 307 309 310 308
330 331 330 330 330 330 330 329 323 320 319 318 317 316 315 313 314 314 313 310 311 313 313 313 311 311 301 291 305 311 309 308 309 307 305 303 303 305 301 300 297 304 306 306 308 308 308
326 329 329 330 330 329 330 330 326 321 319 318 316 316 314 313 312 312 313 310 310 311 313 313 311 307 298 294 304 307 307 305 308 308 303 306 306 302 303 298 305 305 300 303 306 306 306
322 325 327 329 329 329 329 329 326 321 319 318 316 314 312 313 312 311 310 310 310 310 312 312 310 303 292 305 304 304 304 305 308 310 308 309 307 302 302 303 302 298 298 292 297 305 306
318 320 321 324 327 329 329 328 325 320 319 318 315 312 312 312 311 311 310 310 310 310 312 312 302 298 291 307 300 303 303 301 305 306 307 308 304 299 302 297 294 295 286 291 291 301 303
314 316 319 321 323 326 328 328 323 320 318 317 313 310 311 310 310 309 309 309 310 309 306 307 304 291 295 294 300 303 305 304 301 302 299 299 297 293 295 294 285 287 287 289 288 298 299
312 313 316 318 320 323 326 328 323 320 318 315 312 311 309 309 309 308 304 300 296 293 296 292 292 292 295 302 306 302 305 301 300 297 289 294 289 287 290 294 292 292 290 289 294 300 298
310 311 313 316 317 319 322 327 323 319 318 313 311 310 308 308 307 307 302 295 296 297 289 297 295 295 297 302 295 299 303 296 294 289 291 289 286 292 294 295 294 293 290 290 295 299 297
310 311 311 313 315 317 319 324 323 319 316 312 310 309 308 307 307 301 298 299 303 301 289 294 297 295 297 299 294 296 299 296 292 289 289 286 288 294 293 293 293 292 290 290 290 296 299
309 311 311 313 313 316 318 322 322 319 314 311 310 309 307 307 300 299 297 304 303 301 277 284 292 296 298 299 293 302 302 297 292 289 291 291 295 292 292 292 292 288 294 295 293 292 286
309 308 309 311 314 315 317 318 321 317 312 310 309 308 307 308 298 297 301 303 301 295 265 286 290 301 300 295 295 297 303 298 290 290 292 288 292 291 290 292 294 291 296 295 295 291 290
308 308 308 309 312 313 316 318 320 315 311 309 309 308 308 305 300 303 303 301 298 276 265 279 292 290 292 294 294 296 297 301 300 292 293 293 298 294 294 296 296 296 292 291 292 290 283
307 308 307 308 310 313 315 316 318 313 311 309 308 308 306 304 297 303 301 296 276 268 284 280 286 290 289 289 292 292 291 290 287 283 284 289 290 296 298 291 296 294 288 281 280 280 279
306 307 306 308 308 313 315 315 316 312 310 308 309 309 306 305 303 302 297 287 268 280 279 289 289 288 285 289 289 290 287 287 293 290 285 284 282 291 296 292 290 290 287 280 276 276 279
306 306 305 307 307 314 314 315 314 311 309 309 309 300 300 301 304 301 290 276 277 279 287 287 288 283 283 288 288 287 287 289 292 292 285 283 285 295 295 295 294 289 285 289 281 280 277
307 307 307 306 309 310 312 314 312 310 309 309 300 298 298 303 303 297 287 285 285 289 291 289 282 285 280 284 285 286 286 291 291 293 293 288 283 292 294 294 293 289 290 282 282 273 275
306 307 307 306 309 309 310 315 310 310 309 308 299 293 300 303 301 292 281 287 290 294 293 288 284 283 284 284 286 286 285 291 292 293 293 289 285 287 289 288 286 287 285 286 284 281 276
306 306 307 308 308 308 310 313 310 309 310 305 297 287 300 302 290 292 288 292 296 292 294 291 290 288 286 285 285 285 287 288 293 293 288 290 287 282 283 291 294 292 288 285 277 277 278
306 306 307 308 308 307 308 311 310 310 310 301 293 294 302 301 286 286 293 294 295 293 293 292 289 291 290 287 285 290 290 294 296 293 288 290 284 274 280 285 290 289 290 291 288 285 281
305 305 307 308 308 308 307 311 310 311 310 302 292 287 294 296 294 290 290 291 292 296 294 295 292 292 289 287 289 289 290 296 297 293 299 295 285 280 276 280 286 284 288 289 286 279 281
305 305 306 307 307 306 311 310 310 310 310 301 292 286 291 286 288 287 289 291 290 289 293 293 290 291 288 284 286 287 292 293 294 296 293 290 281 280 285 287 287 286 287 288 284 286 283
305 305 305 306 307 306 311 310 310 309 310 300 291 288 289 286 289 287 290 289 289 291 290 289 289 290 289 287 286 285 291 289 287 290 289 289 279 282 278 286 285 284 286 287 287 287 286
305 305 305 305 306 306 307 309 309 309 308 296 294 292 291 288 286 287 289 292 291 292 292 293 293 290 289 289 290 291 291 291 291 289 287 286 281 277 276 281 281 278 282 285 287 287 287
305 305 304 305 305 305 309 309 309 309 305 297 292 292 288 285 287 288 291 293 292 291 290 290 294 290 292 294 293 292 290 290 290 289 291 285 282 278 272 277 270 281 286 288 286 286 287
305 305 304 306 305 307 310 308 308 309 305 294 292 292 288 283 287 289 292 290 290 290 289 289 290 291 294 292 287 284 283 285 286 287 288 289 284 278 275 273 278 281 285 284 283 281 284
305 304 303 306 305 305 307 307 307 308 310 294 290 291 290 287 282 284 290 291 286 284 286 288 292 294 294 289 285 278 277 280 280 282 287 287 286 280 277 274 274 281 285 287 287 279 284
305 304 303 305 304 307 307 307 307 308 308 294 290 292 288 282 282 284 287 288 288 286 284 286 288 289 291 285 282 280 278 283 279 279 280 281 280 278 277 275 279 284 286 288 278 279 285
304 303 304 304 305 308 309 307 306 307 305 294 290 292 288 282 283 285 286 285 286 286 284 286 287 288 287 283 283 281 280 281 280 281 281 280 277 277 278 276 276 285 285 283 283 285 286
304 303 304 304 305 308 307 306 306 307 304 296 288 292 291 285 284 287 287 288 288 286 286 286 286 286 287 285 283 282 281 280 280 277 282 280 282 280 281 280 283 285 284 285 286 285 284

GFSGBSN_sfc_thetae_069.txt.gz
Theta_e
324 325 326 328 329 329 329 329 329 329 325 322 320 319 318 317 315 314 314 314 312 311 314 313 313 311 305 297 297 308 313 310 312 311 304 301 299 299 296 297 300 299 301 306 308 309 308
320 321 322 323 324 326 328 329 328 328 327 323 320 318 317 315 313 313 313 313 311 311 313 313 312 310 300 289 303 307 308 306 307 306 304 302 300 303 300 299 297 302 301 305 307 308 308
316 317 318 319 321 323 324 327 327 327 327 323 320 318 316 314 313 312 311 311 311 310 311 313 312 306 297 293 302 305 305 304 306 307 302 303 304 301 302 298 301 302 297 303 305 306 305
314 315 315 316 317 319 323 323 325 327 327 323 319 317 314 312 313 312 311 310 310 310 311 312 311 302 291 304 302 303 303 302 306 309 307 307 307 301 301 303 299 295 293 293 298 303 306
312 312 312 313 315 316 318 321 322 324 326 322 318 315 313 312 312 311 310 310 310 310 310 312 301 296 290 306 299 301 302 300 304 306 307 307 304 298 300 294 292 292 285 290 293 301 301
311 311 312 311 312 314 315 318 320 322 325 321 318 313 312 311 310 309 308 309 309 308 306 307 303 291 294 293 299 302 304 304 300 301 299 299 297 293 293 293 284 286 285 290 291 297 299
311 310 311 312 312 312 313 314 317 319 324 319 316 312 312 310 309 308 303 299 295 292 295 291 292 291 294 301 304 300 304 299 300 297 289 294 290 284 291 291 292 291 289 289 293 299 296
308 309 310 309 310 312 311 312 315 316 321 319 314 312 311 309 308 307 301 294 295 296 288 296 295 294 297 300 294 299 302 295 293 288 292 289 287 291 293 293 293 292 289 289 295 299 296
308 308 308 309 310 309 312 311 314 315 318 318 313 312 310 308 307 302 297 298 302 300 288 293 295 294 296 299 293 295 298 295 291 289 289 285 289 294 292 290 290 291 288 288 290 295 298
307 307 308 310 310 309 309 311 311 314 316 316 313 311 309 308 300 299 296 302 302 299 274 283 290 295 299 299 293 302 302 296 292 288 288 289 294 292 289 286 292 287 294 293 293 290 284
307 306 307 307 308 309 308 310 310 313 315 314 312 310 309 308 298 297 300 302 301 292 263 284 289 300 300 294 295 296 303 298 289 290 291 288 290 290 288 290 295 290 297 294 294 290 290
308 307 306 307 307 307 307 308 309 312 316 312 311 309 308 304 300 301 302 301 295 275 263 278 290 289 291 294 293 295 296 300 299 293 294 292 297 294 293 296 296 296 294 292 292 289 282
307 307 307 307 307 306 307 307 309 313 315 311 310 309 306 304 296 302 301 294 275 268 282 279 284 288 289 289 291 293 291 291 288 283 284 289 290 294 297 291 294 294 288 281 279 280 280
307 307 307 307 307 306 307 307 310 313 314 310 309 308 306 304 303 301 296 285 267 277 278 287 287 287 284 288 287 289 289 288 292 289 286 284 281 289 295 291 289 289 286 280 275 277 279
307 307 306 307 308 308 307 308 312 312 311 309 309 302 301 303 302 300 289 274 275 278 285 286 286 282 283 286 287 287 288 288 292 290 284 284 284 295 295 294 292 289 283 289 280 279 279
306 306 307 307 307 308 307 310 311 312 309 310 301 299 299 303 302 297 289 282 283 287 289 288 281 284 279 282 283 284 285 289 290 292 291 288 284 291 294 295 293 290 290 283 282 275 274
306 306 306 307 308 308 308 310 313 310 309 308 300 294 299 303 301 294 283 282 288 292 291 286 283 282 283 282 284 284 284 289 292 291 291 288 285 285 289 289 285 286 284 285 284 282 276
306 306 306 308 308 307 308 308 312 309 310 305 298 289 300 300 290 290 285 289 294 291 292 290 288 287 284 285 284 283 285 288 293 292 287 288 285 282 283 290 292 289 285 284 278 278 277
305 306 306 307 307 307 308 307 309 310 310 301 294 293 300 300 283 284 292 292 292 291 291 290 288 289 289 285 283 288 288 293 295 291 287 289 281 273 277 283 289 287 288 287 285 282 277
305 305 306 307 307 307 307 307 309 309 310 302 294 287 294 296 291 288 290 289 289 294 292 293 290 290 288 286 288 287 288 294 294 293 298 293 283 279 275 279 284 283 287 287 284 276 279
305 305 305 306 307 306 307 306 310 309 311 303 293 287 292 286 287 289 290 292 289 288 291 293 289 289 287 282 285 288 292 291 293 295 291 288 280 280 284 286 285 285 286 287 283 285 280
305 305 306 306 306 305 307 306 309 308 310 300 291 287 290 288 288 289 290 288 290 289 289 288 288 289 288 285 285 285 291 288 285 290 287 288 278 281 277 283 284 283 285 286 286 285 285
305 305 305 306 305 304 306 306 306 309 308 298 296 292 290 290 285 287 287 288 290 291 290 292 291 289 287 288 289 289 290 291 289 287 286 285 281 277 275 280 281 278 280 283 285 285 285
306 305 305 306 304 305 305 306 308 309 307 298 293 290 287 284 286 287 291 292 291 290 289 289 292 290 291 294 291 291 290 289 288 287 289 284 281 277 272 276 270 279 284 286 284 284 285
305 305 305 305 304 306 306 310 309 308 304 296 292 290 288 283 286 288 292 290 290 288 287 289 290 290 293 290 286 283 282 285 286 286 287 287 282 277 273 272 277 280 284 284 283 282 283
305 305 305 305 304 306 306 307 308 308 306 295 291 290 290 287 282 283 290 289 285 283 285 288 292 293 292 288 284 278 276 279 279 281 288 286 284 280 277 274 273 279 285 286 286 279 284
305 305 305 304 305 305 308 308 308 308 308 296 290 291 288 282 281 285 289 289 289 285 283 285 287 289 290 284 282 280 277 282 278 278 279 281 280 277 276 274 279 283 285 286 277 278 284
305 305 304 304 305 305 308 308 307 306 306 296 289 291 288 281 282 285 286 286 286 286 285 286 287 288 286 283 282 281 279 281 278 280 279 279 277 277 277 275 273 284 285 282 283 284 285
304 304 304 304 305 307 308 307 307 307 303 298 290 291 291 285 283 286 286 287 287 286 286 285 285 286 287 284 282 281 281 279 279 277 280 279 281 280 280 280 282 283 283 285 285 284 283

GFSGBSN_sfc_thetae_072.txt.gz
Theta_e
317 317 318 318 319 320 321 324 325 326 327 329 329 323 320 319 318 316 314 314 314 312 311 314 314 311 304 296 295 306 315 310 311 310 304 301 297 297 291 293 296 296 297 301 305 307 308
314 314 315 315 315 316 318 319 321 322 324 326 328 323 319 319 317 315 313 312 313 311 310 312 313 310 298 288 301 305 307 306 305 305 303 301 298 301 294 295 295 297 298 300 305 305 308
312 312 313 313 313 314 315 316 318 320 322 324 327 323 318 317 315 314 313 311 311 311 310 311 312 305 296 291 301 303 304 303 304 305 300 303 303 299 298 295 299 298 295 298 302 304 304
312 312 312 311 312 312 312 313 314 316 318 322 324 322 318 315 314 313 312 311 311 310 310 310 311 301 291 302 301 302 302 301 304 307 305 306 305 300 297 300 298 293 295 290 298 303 305
309 310 310 311 312 311 312 311 312 313 316 319 322 319 316 314 313 312 311 310 310 310 310 310 301 295 289 304 299 300 301 300 302 304 305 306 302 298 298 291 291 292 284 286 291 302 300
310 310 309 310 310 310 311 311 312 312 314 316 319 319 315 313 312 310 309 309 308 309 306 307 302 291 293 292 298 301 303 302 300 299 299 298 296 293 292 288 281 286 284 288 288 297 298
309 309 308 309 309 309 310 310 310 311 311 315 316 318 313 312 311 309 304 300 295 292 295 290 291 291 293 300 303 300 303 298 298 295 289 294 289 286 287 287 293 289 288 286 293 298 296
308 308 308 308 308 308 309 309 309 310 311 313 313 316 313 312 310 308 301 294 295 296 287 295 295 294 296 299 294 298 301 293 291 287 291 289 286 291 293 293 293 291 288 287 293 298 296
307 308 309 309 308 308 307 308 309 309 309 311 313 315 313 311 309 303 297 298 302 299 288 291 295 293 295 299 293 295 298 294 291 288 288 286 289 293 292 291 291 290 288 288 287 293 296
308 309 309 309 309 308 308 307 308 308 308 310 311 314 312 309 301 299 296 302 302 297 275 282 289 293 298 299 293 302 301 294 291 287 289 289 294 291 289 288 291 287 293 293 291 288 283
308 309 308 308 308 309 309 308 308 307 307 309 310 314 311 308 299 297 300 302 301 291 264 282 287 299 299 294 294 296 303 297 289 289 291 287 290 289 287 289 293 289 295 293 292 290 289
308 308 308 308 307 309 308 308 308 307 306 308 309 313 310 305 301 302 302 301 295 275 264 277 289 289 291 294 293 295 296 299 298 293 294 292 295 294 290 292 294 296 292 292 291 289 281
307 307 307 307 307 308 308 308 307 307 306 308 310 311 307 305 297 302 301 294 275 269 281 279 284 288 290 289 291 292 291 290 288 281 284 289 290 294 296 292 295 293 288 281 280 280 279
306 307 307 307 307 308 308 308 307 307 307 310 311 309 306 304 304 301 296 284 269 277 277 285 286 287 284 289 289 291 290 288 290 288 286 279 276 290 295 292 290 288 286 280 275 277 280
306 306 306 306 307 307 308 309 309 308 310 310 309 304 302 303 302 300 289 272 275 277 284 285 286 282 282 285 287 288 288 289 292 290 283 284 284 294 293 293 292 289 283 287 280 281 279
306 306 306 307 307 307 308 309 309 310 311 309 301 299 299 303 303 297 286 281 283 285 288 286 281 282 279 282 283 284 285 289 291 293 292 287 284 291 293 292 293 288 290 281 281 274 274
306 306 306 306 307 307 307 308 311 310 309 307 300 293 300 304 301 293 280 281 287 290 290 285 282 281 281 282 283 282 283 290 292 290 291 288 285 286 288 287 284 286 285 285 283 280 277
306 307 307 306 307 306 307 308 308 309 308 305 298 287 301 301 290 290 285 287 293 290 291 289 287 286 283 283 282 282 284 288 293 291 286 287 284 282 282 288 291 290 284 282 277 278 277
306 307 307 306 306 306 307 307 308 309 308 302 292 292 301 300 284 285 288 290 290 289 289 289 287 289 288 284 282 285 287 293 293 290 286 287 280 272 277 282 287 285 286 286 283 280 276
306 306 306 306 307 306 307 307 307 310 309 302 293 286 293 296 293 283 286 287 287 292 291 291 289 290 287 284 286 285 286 292 293 292 297 292 282 278 274 278 283 283 285 285 282 275 278
306 306 306 306 306 306 306 306 307 310 309 302 293 288 293 286 288 285 287 289 287 287 290 291 288 288 286 282 283 285 288 289 291 294 290 287 279 278 281 284 284 285 285 285 280 282 278
306 306 306 306 306 306 305 307 308 310 310 300 291 289 290 289 286 285 290 287 287 288 288 286 287 288 287 284 284 284 288 285 284 289 286 286 277 280 278 282 283 283 283 285 285 284 284
306 306 306 306 306 306 306 306 306 307 308 298 296 294 291 290 285 284 287 289 290 290 290 290 290 287 287 287 288 287 289 289 288 285 285 283 280 276 275 279 280 277 280 283 284 284 285
306 306 306 306 306 306 305 307 307 307 307 299 295 292 288 285 285 286 289 290 289 289 288 288 290 288 290 291 290 290 289 288 287 286 287 283 280 277 272 276 270 279 283 284 284 283 283
305 306 306 306 306 305 306 307 308 307 306 297 293 292 288 285 284 287 290 288 287 287 287 288 289 289 292 288 285 283 282 284 285 285 285 285 281 276 273 271 277 279 283 283 281 282 284
305 306 306 306 305 305 307 308 310 309 304 295 292 291 287 286 285 281 290 287 284 282 284 288 291 292 291 286 283 277 275 278 278 280 285 285 283 280 277 273 272 278 284 286 285 278 283
305 306 305 306 305 305 307 309 309 308 305 296 291 290 286 281 280 283 288 287 287 285 283 285 286 289 289 283 282 279 276 280 277 277 278 280 279 276 276 274 278 282 284 286 277 278 283
305 305 305 305 304 305 307 309 309 307 304 297 289 289 287 281 282 286 287 286 286 286 284 286 287 288 286 283 282 280 279 279 277 277 277 279 276 276 277 274 272 283 284 280 282 282 284
305 305 305 305 305 306 309 308 309 307 304 298 288 290 290 284 283 288 288 288 286 285 286 284 285 285 286 283 282 281 280 278 278 276 279 278 280 279 280 279 282 282 282 283 284 284 282

GFSGBSN_sfc_thetae_075.txt.gz
Theta_e
314 313 313 314 314 314 314 315 317 317 318 320 322 325 326 323 321 318 317 315 313 313 312 311 314 311 304 296 295 305 312 311 313 309 304 301 297 296 292 294 295 294 296 299 301 302 305
312 312 313 312 312 313 313 313 313 314 315 316 319 322 323 321 319 317 315 314 312 313 311 311 312 310 300 286 300 305 306 307 305 306 303 302 298 299 294 294 293 296 296 297 300 301 304
311 311 311 310 310 312 311 312 311 311 313 314 318 319 324 320 318 316 315 313 311 311 311 311 312 305 297 290 301 302 304 303 305 304 300 303 303 298 297 292 297 297 292 294 297 300 301
311 311 311 310 310 310 310 311 311 311 312 313 315 317 322 319 316 315 314 312 311 310 309 311 311 301 290 301 302 302 303 302 304 305 305 305 305 299 295 297 295 291 292 286 294 299 303
310 311 311 310 310 309 310 309 310 311 311 312 312 314 316 317 314 313 312 310 309 310 310 310 303 295 288 303 299 301 302 300 302 303 305 306 302 296 295 289 287 290 283 284 292 301 301
309 310 309 309 310 309 309 309 309 310 310 310 312 312 314 316 313 312 309 308 308 308 307 307 302 291 293 291 298 301 303 302 299 299 298 297 295 290 292 289 282 284 285 288 289 296 297
309 309 309 310 311 311 310 309 309 309 310 309 310 311 313 314 312 311 305 303 296 293 296 291 290 290 293 299 303 300 303 299 299 295 288 293 288 284 289 289 287 288 288 287 292 297 295
309 309 309 310 310 310 309 309 309 308 308 308 308 309 311 312 312 310 302 296 297 296 288 295 295 294 296 299 294 298 302 293 291 286 291 288 285 291 293 290 287 289 288 288 292 297 296
308 308 309 309 309 309 309 309 309 309 308 308 308 308 310 312 311 305 299 298 303 299 289 292 295 293 294 298 293 294 298 294 290 287 288 286 289 293 291 286 289 290 288 288 287 292 294
307 308 308 309 309 309 309 308 308 309 308 308 307 307 308 311 302 300 297 302 303 298 280 284 289 293 297 298 292 301 301 295 291 287 289 289 293 291 290 289 292 287 293 291 290 288 283
306 307 307 308 308 308 308 308 308 308 309 309 307 307 307 309 299 296 301 303 300 293 271 283 287 299 298 294 295 296 303 295 289 289 290 287 290 290 287 289 293 290 295 292 291 289 288
306 307 307 307 307 308 308 308 308 308 308 309 307 307 307 304 302 303 303 301 295 279 268 277 289 288 291 294 294 295 296 299 298 292 293 291 296 294 290 292 293 295 293 292 291 290 282
305 306 307 307 307 307 308 308 308 308 308 309 307 306 306 305 298 304 301 293 280 272 281 280 284 287 289 288 291 292 290 289 287 280 284 288 290 295 293 292 295 293 288 281 279 279 280
305 306 307 307 307 307 308 308 308 307 307 307 307 308 308 304 305 302 296 286 274 278 278 285 286 286 284 289 289 291 290 288 291 288 285 277 279 290 295 292 290 289 287 280 276 277 282
305 306 307 307 307 307 307 307 307 307 308 309 308 304 301 303 304 301 291 280 277 279 283 284 285 282 282 286 288 288 288 289 291 291 283 285 284 294 294 294 293 290 285 288 282 282 281
305 306 307 307 307 307 307 307 308 306 310 309 301 298 298 304 304 298 288 282 283 284 286 286 281 282 279 283 284 285 285 290 291 294 293 288 284 291 293 293 293 290 290 282 283 278 276
306 307 307 307 307 307 307 307 307 307 308 307 298 291 300 304 302 292 283 282 287 288 289 284 282 281 281 282 284 283 284 290 292 291 291 287 285 287 288 287 286 287 285 284 284 282 279
307 307 307 307 307 307 307 307 307 308 307 304 297 287 301 303 288 290 284 286 292 289 290 288 287 286 283 283 283 283 284 288 292 292 286 288 286 281 284 289 291 290 286 283 281 279 278
306 307 307 307 307 307 307 307 306 308 307 300 290 292 301 300 285 286 289 289 289 288 288 287 287 288 287 285 283 286 289 293 293 290 287 288 281 274 280 284 287 287 288 285 283 281 278
305 306 307 307 307 307 307 307 307 308 308 301 292 285 291 295 293 287 288 285 285 291 290 290 288 289 286 284 286 286 286 292 292 292 296 290 282 279 276 280 285 285 286 286 283 279 280
305 306 307 307 307 307 307 306 307 308 307 300 293 288 292 285 288 288 289 287 286 285 290 290 288 287 285 281 282 285 288 289 291 292 289 287 280 279 281 284 286 286 286 285 282 283 281
305 306 306 307 307 307 307 307 307 308 308 299 291 289 292 288 288 287 289 284 286 286 287 286 287 287 286 283 283 282 287 285 284 288 286 286 278 280 277 282 284 284 285 285 286 285 284
305 305 306 307 307 307 307 306 307 307 307 298 296 295 291 289 287 287 288 286 288 289 289 289 289 287 286 286 288 287 289 287 287 286 284 283 280 276 275 279 281 278 281 284 285 285 285
305 305 306 306 307 307 306 306 308 309 306 300 294 292 289 285 287 287 290 289 288 287 287 287 289 288 288 290 289 289 288 287 287 286 286 282 280 277 273 278 271 280 284 285 285 285 285
305 305 306 307 306 306 306 307 309 309 305 297 292 292 290 285 286 289 291 288 286 286 286 287 288 288 291 288 285 283 282 284 284 284 284 285 281 276 275 273 277 280 283 283 283 283 285
305 305 306 306 307 307 306 308 308 308 304 296 292 291 291 286 284 282 288 288 283 281 284 287 291 291 290 285 283 277 275 278 279 282 284 285 283 280 277 274 273 279 284 286 286 279 284
305 305 306 306 306 305 307 309 308 307 304 296 291 288 287 282 283 284 287 286 285 284 283 284 285 288 288 283 282 279 276 279 277 277 278 280 279 277 277 275 278 282 285 286 278 279 284
304 306 305 306 305 306 309 309 307 306 303 296 289 288 287 281 283 286 285 285 286 286 284 286 286 288 285 282 282 280 278 278 276 277 277 279 276 276 277 275 272 283 284 281 283 284 285
305 305 305 306 305 305 309 309 308 307 303 298 290 290 290 284 283 286 286 286 284 285 286 284 285 285 286 283 281 281 280 277 277 276 278 278 281 279 280 279 283 283 283 284 285 285 285

GFSGBSN_sfc_thetae_078.txt.gz
Theta_e
313 312 312 313 312 312 312 312 313 312 313 314 315 317 320 320 325 323 319 318 314 313 313 311 311 311 306 297 296 307 312 313 313 310 303 300 298 297 293 294 296 295 297 299 300 302 303
312 312 312 312 312 312 312 312 311 312 312 312 313 313 318 319 325 321 318 316 313 311 312 310 310 311 302 292 303 308 308 310 308 307 303 302 298 300 296 295 293 297 297 298 299 300 302
312 311 312 312 312 311 311 311 311 310 311 312 312 312 315 317 323 319 316 314 312 311 310 310 310 307 299 297 303 307 305 306 307 306 301 304 303 299 297 293 297 296 292 295 297 298 300
312 311 311 311 311 311 311 310 309 310 309 311 311 311 312 315 320 316 315 314 312 311 309 309 311 304 295 303 307 306 306 305 307 307 305 306 305 301 297 298 295 292 290 287 295 297 299
311 311 311 311 311 311 312 311 310 310 310 310 310 310 311 313 317 314 314 312 311 310 310 311 305 301 292 304 301 305 306 302 304 305 306 306 303 298 296 290 287 289 285 287 290 297 297
311 309 310 310 310 311 311 311 310 310 309 309 310 310 310 312 315 313 312 310 310 310 309 308 303 295 297 293 300 303 306 305 300 301 299 299 297 292 291 288 281 285 285 287 288 294 296
309 310 309 309 310 311 311 310 310 310 309 309 310 309 309 311 313 312 308 305 296 295 301 295 294 292 295 300 305 301 305 302 301 297 290 295 289 285 289 290 291 287 287 287 289 293 296
309 309 308 309 309 310 310 310 309 309 309 309 309 308 308 310 313 311 304 298 297 299 292 298 297 296 299 300 294 299 304 296 294 289 292 290 286 291 293 293 290 288 287 289 293 297 297
308 308 308 308 309 309 309 309 309 309 309 309 309 309 308 309 311 307 301 299 305 303 293 293 296 295 297 299 295 296 300 297 292 289 289 286 289 293 292 288 288 287 290 289 288 293 295
308 307 307 308 308 308 308 309 308 309 308 308 308 308 307 308 304 303 299 303 305 302 287 287 292 295 298 299 293 302 302 297 292 288 290 288 294 292 291 287 292 287 294 291 288 288 287
308 307 306 307 308 308 308 308 308 308 308 307 307 308 307 306 301 298 301 304 304 299 277 288 291 302 300 295 296 296 303 296 290 289 289 288 290 291 289 288 294 291 295 291 291 290 291
306 306 306 307 308 308 308 308 308 308 307 307 307 307 307 304 303 303 304 303 299 285 276 283 291 291 291 295 295 296 296 299 298 290 292 291 297 295 292 294 295 296 294 293 293 291 284
306 306 307 308 308 308 308 308 308 308 307 307 306 306 305 305 298 305 303 297 284 279 284 283 287 290 291 290 292 293 290 290 288 285 286 290 290 293 292 292 295 294 291 284 283 284 282
306 307 307 308 308 308 308 307 308 307 307 306 306 306 304 305 306 304 300 290 279 282 282 288 289 290 288 291 289 290 290 287 292 291 288 285 283 289 295 293 292 292 290 285 279 282 283
306 306 308 308 308 308 307 308 308 307 306 307 308 305 302 305 305 303 293 283 284 283 286 288 289 287 287 289 290 288 288 290 292 293 286 287 285 294 295 296 296 291 288 291 287 287 284
306 307 307 307 308 307 308 308 308 307 308 307 301 299 298 305 305 299 290 284 286 287 290 291 285 288 285 287 288 288 288 291 291 295 295 291 285 293 294 296 295 293 293 288 289 281 279
306 306 307 307 307 307 307 308 307 307 307 307 300 290 300 305 303 293 285 286 289 291 292 289 287 286 288 287 289 287 287 291 294 294 295 293 290 289 293 291 290 291 290 289 289 286 283
305 306 307 307 307 308 307 308 307 308 307 303 297 287 300 304 288 290 288 289 293 292 294 292 292 290 289 290 289 289 289 291 296 295 291 293 291 286 288 293 294 294 291 289 288 282 284
305 306 306 307 308 308 308 307 307 308 307 301 291 291 302 301 285 287 291 291 292 291 291 292 291 292 292 290 288 291 292 296 297 295 292 293 289 285 287 291 293 292 291 290 289 289 283
305 306 306 308 308 308 308 308 309 308 308 303 294 285 291 293 294 290 289 289 289 294 293 293 292 293 292 290 293 290 291 295 296 296 295 294 289 285 284 285 290 289 290 291 290 288 286
306 306 306 307 308 308 307 307 308 309 309 304 294 288 292 286 289 290 290 290 289 289 294 294 292 292 291 288 290 290 292 293 295 295 294 294 286 286 287 288 290 290 290 290 288 288 287
305 306 306 306 307 307 307 307 307 308 308 300 291 291 293 292 292 289 291 290 289 290 292 291 291 291 293 289 290 289 292 292 291 295 292 293 287 286 286 288 290 288 290 291 290 289 289
305 306 306 307 307 307 307 307 308 309 307 299 298 298 295 291 290 289 290 291 291 293 293 293 294 293 291 291 295 295 296 295 293 292 290 290 289 287 283 285 286 285 285 289 290 290 290
306 306 306 307 307 307 308 307 309 309 306 303 299 298 293 287 290 290 291 293 292 292 292 292 294 294 293 297 296 297 296 295 294 292 292 289 287 287 285 285 280 285 290 289 288 290 291
306 306 306 307 307 307 306 308 309 307 304 301 297 297 294 288 291 291 292 291 293 293 292 292 293 295 297 295 292 289 290 290 290 290 291 292 289 285 285 284 283 284 288 288 287 288 290
305 305 306 307 308 307 308 310 309 305 302 298 294 296 297 293 287 284 290 293 292 291 292 293 296 298 296 293 290 283 282 284 285 287 291 291 291 289 285 280 279 285 289 291 291 285 290
305 306 306 307 306 306 309 310 308 307 302 298 293 294 296 289 287 286 289 290 292 292 291 293 294 295 295 292 287 285 284 286 283 283 285 287 287 285 285 283 285 288 290 291 283 285 290
305 306 306 306 306 307 309 308 308 304 302 298 293 294 295 289 287 288 288 289 292 293 293 293 293 294 294 289 288 287 286 286 285 285 285 285 285 285 284 283 280 290 290 287 290 289 291
305 305 306 306 305 308 308 308 307 304 302 298 294 294 294 292 288 290 290 291 289 290 293 292 292 292 294 291 290 289 286 286 285 284 287 284 288 287 287 287 289 290 291 291 291 291 291

GFSGBSN_sfc_thetae_081.txt.gz
Theta_e
314 313 313 313 313 313 313 312 312 312 312 313 314 313 314 315 318 319 325 321 319 315 315 313 311 312 308 301 300 311 312 314 314 309 303 300 297 297 293 294 296 294 296 298 300 301 300
313 313 313 312 312 312 311 312 311 311 311 312 311 313 311 314 315 318 323 320 316 314 314 312 312 312 305 294 305 307 308 309 309 307 303 302 299 300 296 295 294 296 296 296 298 298 300
312 313 312 311 312 311 312 312 312 311 310 311 311 311 311 311 313 316 320 315 314 313 313 312 311 309 301 299 305 307 307 306 308 306 302 304 303 298 298 292 298 296 291 294 295 297 296
312 312 311 311 310 311 311 312 312 311 311 311 310 310 310 311 313 315 316 315 314 312 311 311 311 307 298 305 307 304 304 303 306 307 305 306 305 300 296 297 295 291 291 285 294 296 298
311 311 311 310 310 311 311 311 312 311 311 311 310 310 310 310 312 316 315 314 313 311 310 312 307 303 295 306 300 304 307 302 304 305 306 305 303 297 297 290 286 289 283 287 290 297 296
312 311 309 309 309 310 310 311 311 310 310 310 310 310 310 310 312 314 313 312 311 310 309 309 305 297 298 295 301 303 306 304 301 301 299 299 296 291 291 288 279 284 285 287 288 294 295
311 311 310 309 309 309 310 310 310 310 310 309 309 309 310 309 310 313 309 306 297 296 300 297 297 294 295 301 305 302 305 303 302 297 290 295 288 286 290 291 290 288 287 286 290 295 293
309 310 310 308 308 308 309 309 309 309 309 309 309 309 309 309 309 311 308 297 297 300 293 300 298 297 299 301 295 300 305 296 295 289 294 290 286 292 293 292 291 288 286 287 291 295 294
308 309 309 308 308 308 309 309 309 309 309 309 308 308 309 309 309 307 301 300 306 304 295 295 298 296 297 300 295 297 302 297 292 290 290 287 290 294 291 290 289 288 286 287 287 293 295
307 308 308 308 308 308 309 309 309 309 308 308 308 308 308 308 304 303 299 304 305 306 289 290 293 296 299 300 294 302 302 298 294 289 291 290 294 292 291 287 288 284 292 290 290 291 286
306 308 308 308 308 308 309 309 309 309 308 307 307 307 308 307 303 298 304 306 304 302 279 291 292 303 300 295 296 297 303 298 291 291 290 289 290 291 290 289 294 290 295 293 291 289 289
306 307 308 308 308 308 308 308 308 308 307 307 307 307 307 305 304 304 305 304 301 286 279 285 292 292 292 295 296 297 297 299 299 292 291 290 298 295 293 295 296 296 293 292 292 291 284
305 307 308 308 308 308 308 308 308 308 307 306 306 306 305 306 298 308 304 297 285 282 286 284 287 291 291 290 292 292 291 290 289 285 284 291 291 293 294 291 295 295 290 284 284 284 282
305 307 307 308 308 308 308 308 308 308 308 307 306 306 304 304 306 306 300 287 281 285 283 290 291 292 288 291 289 291 290 288 293 291 288 285 284 290 295 293 292 293 290 284 279 282 282
306 306 307 308 308 308 308 308 308 307 308 307 309 302 300 304 305 305 291 283 285 285 287 289 291 287 287 291 291 290 290 290 292 294 287 286 285 294 296 297 296 292 289 294 288 289 284
306 306 307 308 308 308 308 308 307 308 308 308 301 299 298 306 306 299 288 285 286 289 292 293 287 290 286 289 289 290 290 293 292 296 296 291 286 293 296 297 297 293 295 289 291 282 279
306 307 307 308 308 309 308 308 309 308 308 308 301 292 301 307 303 291 286 287 288 292 295 291 289 288 290 289 291 290 288 292 295 295 296 293 291 290 295 292 291 292 290 291 291 288 284
306 307 307 308 308 308 309 309 309 308 307 305 299 286 301 303 288 289 288 291 294 293 296 294 293 292 291 291 290 290 289 292 298 297 292 295 293 287 289 295 296 295 291 291 288 285 288
306 307 307 308 309 309 308 309 309 309 307 304 291 289 299 301 287 288 292 292 294 293 293 293 292 294 295 292 289 292 293 297 298 296 294 295 291 287 288 292 296 292 293 294 292 292 285
306 307 307 308 309 309 308 308 308 310 310 305 295 286 292 293 295 292 290 290 290 297 295 295 294 296 294 293 295 292 293 296 298 297 296 297 291 288 285 287 292 290 292 293 292 288 287
307 306 307 308 308 308 308 307 308 309 309 305 296 290 293 288 292 294 293 292 290 291 296 297 293 293 292 290 292 291 294 295 297 296 296 296 288 289 290 291 292 291 291 292 289 290 287
307 307 307 308 307 308 308 307 309 309 309 301 295 294 296 292 293 293 292 291 291 293 294 292 292 294 295 291 293 291 293 294 293 297 295 296 289 289 289 290 291 289 291 292 292 292 291
306 306 307 307 308 308 307 308 309 310 308 302 303 302 298 292 293 292 292 292 292 295 295 297 296 295 293 294 298 298 298 297 296 294 293 293 291 290 285 288 288 286 287 290 291 293 292
306 306 307 307 308 307 307 309 310 308 309 306 303 302 296 291 293 291 294 295 294 295 293 296 297 295 296 300 300 300 299 297 296 295 296 292 290 290 287 288 281 287 291 291 290 292 293
306 306 307 307 307 307 310 309 309 307 305 304 302 301 298 291 294 294 295 294 296 297 295 294 295 298 299 297 294 291 291 292 293 294 294 295 292 287 286 285 286 287 289 290 289 289 293
306 306 307 307 308 310 311 310 306 305 304 302 299 300 302 295 290 289 294 296 294 294 294 294 298 301 299 295 292 285 285 286 286 289 294 294 294 290 287 282 280 287 291 294 293 286 293
306 306 306 307 307 310 309 308 306 304 303 302 298 299 303 294 291 291 293 293 296 297 294 295 296 297 299 294 289 287 286 288 285 285 286 289 289 287 287 285 287 291 293 294 284 286 293
305 306 306 306 307 309 308 308 307 305 302 302 297 299 300 294 290 292 292 294 296 297 294 296 295 297 296 291 290 289 288 289 287 288 287 287 287 286 287 284 281 293 291 288 291 293 294
305 306 306 305 307 309 307 308 307 305 302 301 298 298 300 297 292 294 293 294 292 292 295 297 295 295 297 293 293 292 288 290 288 285 290 286 290 287 288 288 292 295 294 294 295 294 294

GFSGBSN_sfc_thetae_084.txt.gz
Theta_e
314 314 314 314 314 313 313 313 313 313 313 312 312 312 313 312 313 313 314 319 323 319 316 317 313 314 308 301 300 314 318 318 314 308 302 299 296 295 291 293 294 292 294 296 298 298 298
314 314 313 313 313 312 312 312 313 313 313 313 312 312 311 312 312 312 316 317 322 317 316 314 313 313 304 293 306 310 310 310 308 306 302 301 297 299 294 293 291 294 294 294 295 295 297
313 313 313 312 312 311 311 312 312 312 312 312 312 312 311 311 312 313 315 319 318 315 316 314 313 309 301 298 306 307 306 305 307 306 301 303 302 297 296 292 296 295 290 292 293 293 293
311 312 313 313 310 311 310 311 311 312 312 312 311 311 311 312 312 312 316 317 315 314 314 313 313 307 296 307 307 304 304 302 305 306 304 305 304 299 295 297 293 289 290 283 291 293 294
310 310 312 312 311 310 309 310 310 311 311 311 311 311 310 311 311 314 317 315 314 313 312 312 306 302 296 305 298 302 302 300 303 304 305 304 302 295 295 289 285 287 280 283 287 295 294
311 309 311 311 311 310 308 309 310 310 310 310 310 310 310 310 310 310 315 314 312 310 309 308 305 296 299 295 301 303 306 303 300 301 298 298 296 290 290 286 277 279 282 286 286 292 294
311 309 309 310 310 309 308 309 309 310 310 310 310 309 309 309 310 310 309 304 298 296 301 296 296 295 296 301 304 301 305 302 301 296 289 294 288 283 286 288 288 286 285 284 288 292 291
311 310 308 309 309 308 309 310 310 310 310 309 309 309 309 309 309 309 308 297 298 300 293 300 299 298 300 302 296 300 305 296 295 288 292 289 285 289 291 291 289 287 285 285 290 293 292
311 310 307 309 309 309 309 309 309 310 309 309 309 309 308 309 308 308 303 301 306 304 293 295 298 296 297 299 295 297 301 298 292 289 289 286 288 292 290 289 288 287 286 287 285 290 293
310 308 307 309 309 309 309 309 308 309 309 308 308 308 308 308 303 303 299 306 306 305 286 288 292 295 298 300 294 303 303 298 294 288 291 290 294 291 289 288 289 284 291 290 287 285 280
309 307 308 309 308 309 309 309 309 308 308 308 308 308 307 307 302 297 301 305 305 301 276 291 292 302 299 295 296 297 303 297 290 291 290 286 290 290 290 290 292 287 295 289 290 288 288
307 307 308 308 308 309 309 309 309 308 308 308 306 305 307 305 304 303 305 304 300 284 277 284 292 291 292 294 295 298 297 300 298 292 292 290 295 294 293 295 295 295 293 291 290 289 282
306 307 308 308 309 309 309 309 309 308 308 308 307 306 304 305 298 305 304 297 282 278 286 283 286 291 291 290 291 292 291 290 288 284 284 290 291 294 295 290 295 294 290 282 280 281 279
306 307 308 309 309 309 309 308 309 309 308 308 308 306 305 304 307 304 300 288 277 282 284 290 291 291 288 291 290 292 290 287 293 290 287 284 283 290 295 290 292 290 289 282 278 279 280
306 308 308 309 309 309 309 309 307 307 308 308 308 302 301 303 306 304 291 280 282 284 288 289 290 287 287 290 290 289 289 290 292 294 286 285 285 295 295 297 295 291 287 292 287 287 282
307 308 308 309 309 309 310 311 309 309 308 308 300 298 298 305 306 299 287 284 285 289 292 293 285 289 284 287 288 288 289 292 292 296 295 291 285 293 295 297 297 292 294 286 288 280 278
306 308 308 308 309 309 309 311 310 310 309 308 299 293 299 306 303 292 284 286 287 293 295 291 289 288 289 289 290 289 287 292 295 295 296 293 290 289 294 291 289 290 287 288 287 284 279
308 307 308 308 309 310 309 309 310 311 310 305 296 286 301 304 289 289 286 290 294 294 297 294 294 293 291 291 290 290 289 292 297 296 291 292 290 284 288 294 295 293 289 288 281 281 283
308 308 308 308 310 310 309 309 310 311 309 301 291 290 301 301 286 286 291 292 295 293 294 294 292 294 294 292 288 291 292 297 298 296 291 292 287 281 281 288 292 290 291 291 290 288 281
307 308 308 309 309 309 309 308 310 311 310 305 295 285 293 295 296 290 290 290 290 297 295 296 294 295 293 292 294 291 291 296 296 296 297 295 288 283 279 282 288 286 289 290 288 280 282
307 308 307 309 309 309 309 308 309 310 310 305 297 290 293 288 292 292 292 293 291 290 296 296 293 293 292 290 291 290 293 293 295 297 294 293 283 283 287 290 290 289 288 289 286 286 281
306 307 308 308 308 308 309 309 309 310 310 301 294 293 295 292 293 292 292 291 291 292 293 292 292 294 294 290 291 289 291 291 290 292 291 293 283 284 281 289 288 285 288 289 289 289 288
306 307 308 308 308 308 309 309 310 310 309 301 301 301 297 294 292 290 290 292 293 295 295 296 295 293 291 292 295 294 294 293 291 290 290 289 286 282 278 285 285 280 284 287 289 290 288
306 307 307 308 309 310 311 310 310 309 308 305 301 300 295 289 291 291 294 295 294 294 292 295 295 293 294 298 297 295 294 294 293 292 292 288 286 283 278 280 273 282 288 289 288 290 291
306 307 307 308 309 311 311 310 307 307 307 302 301 299 296 289 293 293 294 294 295 295 293 293 294 295 297 294 291 287 287 288 290 291 291 291 287 280 277 277 281 283 287 287 285 286 290
306 306 307 307 309 310 308 307 306 305 306 302 298 298 299 292 287 290 293 295 291 291 291 293 297 298 296 292 288 280 279 282 282 285 290 292 290 284 281 277 275 283 288 291 290 281 289
306 306 307 307 308 310 310 309 308 305 305 302 297 298 297 290 289 290 290 290 294 293 290 292 293 294 295 289 284 282 280 284 280 280 281 284 284 280 281 278 282 287 289 290 278 281 289
305 306 307 306 307 309 308 308 307 306 304 302 296 298 296 291 288 292 292 291 292 293 290 293 291 293 292 286 284 283 282 283 282 283 282 282 280 280 281 277 275 289 288 283 287 288 290
305 305 306 306 307 309 308 308 308 308 306 304 296 299 299 293 289 293 293 293 291 291 289 293 292 292 292 288 287 285 282 284 283 279 285 280 285 282 283 283 288 289 289 290 290 290 289

GFSGBSN_sfc_thetae_087.txt.gz
Theta_e
314 314 314 314 314 313 313 312 312 313 314 314 313 314 313 312 312 312 312 314 317 320 320 319 316 315 308 300 299 316 321 320 313 309 303 299 294 293 289 290 292 290 293 296 297 296 295
313 312 312 313 314 314 311 312 311 312 313 313 313 313 312 312 312 312 312 314 317 319 319 318 315 314 303 293 311 315 313 315 310 306 302 299 296 298 292 291 289 292 293 293 294 294 294
314 313 312 312 313 313 312 311 310 311 312 312 312 312 312 311 312 312 313 317 316 320 318 316 315 309 301 298 305 309 308 306 307 306 301 302 301 295 294 289 294 293 288 290 291 293 292
314 313 312 311 312 311 312 311 310 310 311 311 311 311 311 311 311 312 312 318 320 317 316 315 315 306 295 307 303 304 304 302 304 305 304 303 302 297 293 294 292 287 287 280 290 292 294
315 314 313 310 310 311 310 310 308 310 310 310 310 311 310 311 311 311 313 316 315 316 316 314 306 302 294 305 299 301 301 299 300 302 303 304 301 293 293 287 281 284 273 280 285 293 293
315 314 311 310 309 310 310 310 310 310 310 310 310 310 310 310 310 311 313 315 314 311 309 308 306 295 298 294 299 300 301 303 299 299 299 297 292 289 289 283 271 273 274 282 283 290 291
310 311 310 309 308 310 310 310 309 310 310 310 309 309 309 309 309 309 306 304 298 296 301 297 296 295 297 301 303 301 304 301 300 296 287 293 286 282 284 286 286 283 282 281 285 290 290
310 310 310 308 309 310 310 310 309 309 309 309 309 308 308 308 309 309 306 298 298 299 292 300 300 298 300 301 295 299 305 296 293 286 290 288 283 288 289 289 287 287 284 283 287 291 291
310 310 308 308 309 309 309 309 309 309 309 309 309 308 308 308 308 305 301 301 306 304 292 295 299 297 296 299 296 296 300 297 290 287 287 282 286 292 289 287 286 286 285 284 284 289 291
309 308 308 309 309 309 309 309 309 309 309 308 308 308 307 307 301 301 298 305 305 304 285 288 292 295 298 299 294 303 302 297 292 287 289 287 292 290 289 287 289 284 291 289 288 287 279
308 308 308 309 309 310 309 309 310 309 309 308 307 306 306 306 300 297 300 305 305 299 273 289 292 302 299 295 296 297 302 295 288 289 289 282 288 288 288 289 292 288 293 291 289 286 287
308 308 309 309 310 310 310 310 310 310 308 308 307 306 306 302 300 302 304 303 299 281 272 284 292 291 291 295 295 297 296 298 296 290 290 289 294 292 292 294 294 295 292 290 290 288 279
307 308 309 310 310 311 312 310 310 310 308 307 307 306 303 304 295 303 301 294 275 271 285 283 286 290 290 290 291 291 290 288 286 284 283 287 290 294 295 289 295 293 287 281 279 279 280
308 308 309 309 310 311 312 311 310 309 307 308 307 306 303 304 305 301 296 283 275 282 282 289 289 290 287 291 290 290 288 284 290 288 285 282 276 290 295 291 290 291 288 281 277 277 279
308 309 309 310 311 311 311 312 309 310 309 309 306 302 298 303 303 300 289 279 280 283 288 288 289 285 286 290 288 286 285 289 291 293 285 284 284 295 294 296 295 289 287 291 286 284 281
308 309 310 310 309 310 311 312 309 308 308 307 299 297 296 303 303 298 284 284 284 289 291 291 284 287 283 286 285 286 288 291 292 296 295 291 284 292 295 297 297 291 294 284 285 279 278
307 309 310 310 311 310 310 311 311 308 308 307 294 290 298 304 302 289 281 285 288 295 295 291 288 287 285 286 288 288 286 290 295 294 295 292 290 288 293 289 288 290 286 288 287 284 279
307 309 309 309 310 310 311 310 311 311 309 301 291 285 301 302 288 288 286 288 292 294 295 293 291 291 287 289 287 287 287 292 297 295 290 293 288 280 286 292 293 290 288 285 280 280 280
307 308 309 310 310 310 310 309 310 312 310 295 291 291 298 297 280 283 290 292 294 292 292 292 291 292 292 290 286 288 290 296 297 294 290 290 285 278 281 285 290 287 289 288 288 284 279
307 308 308 310 310 310 310 309 310 311 311 299 292 285 290 295 291 288 286 288 289 295 293 294 292 293 291 289 290 288 291 295 295 294 298 294 285 281 276 281 286 284 287 288 284 277 279
307 308 308 309 309 310 310 310 310 311 311 298 292 284 288 282 286 288 289 290 289 289 293 293 291 292 291 287 288 287 290 291 294 297 292 290 281 281 285 288 287 285 286 287 284 283 279
306 307 308 309 309 310 311 311 311 311 310 295 288 287 289 287 289 287 289 288 289 290 291 290 290 291 290 287 287 286 289 288 287 291 288 290 281 282 279 286 286 282 285 287 287 287 285
306 307 308 309 310 312 311 311 309 309 307 294 295 295 290 290 287 285 287 290 291 292 293 293 292 290 289 290 291 291 291 291 289 287 287 287 282 278 276 283 283 279 282 284 286 287 286
306 307 308 309 310 310 309 308 308 308 306 297 295 294 288 285 287 287 291 292 291 291 290 292 292 290 292 295 294 292 291 290 290 289 289 286 283 279 275 279 271 282 286 287 286 288 289
306 307 308 308 310 309 309 309 308 307 308 296 294 293 289 284 287 289 291 291 291 291 291 291 292 293 294 292 288 285 284 286 287 288 289 288 285 278 275 274 279 281 285 285 284 284 288
305 306 307 307 310 310 309 308 308 307 308 296 292 293 291 286 284 287 288 290 286 285 288 291 295 295 293 290 285 278 277 280 281 283 289 289 287 282 279 276 274 282 286 289 288 279 287
305 306 307 307 309 309 308 309 308 307 307 296 292 294 292 284 285 286 286 287 290 288 287 289 291 292 293 285 282 280 277 283 279 278 279 281 281 279 278 276 280 285 288 289 277 280 288
304 305 306 306 308 308 308 309 309 308 308 296 292 294 292 284 285 289 290 286 289 289 286 290 290 290 288 283 282 280 280 281 279 282 280 280 277 278 278 275 273 288 286 283 286 287 289
304 305 306 306 307 309 309 310 309 308 307 302 292 296 296 289 287 290 290 290 289 289 287 290 289 289 289 285 283 282 281 281 280 277 283 278 283 281 281 281 287 288 288 288 289 288 288

GFSGBSN_sfc_thetae_090.txt.gz
Theta_e
315 315 314 314 312 313 314 314 313 312 312 313 313 314 313 313 312 312 313 313 313 315 317 322 319 317 309 299 298 312 318 318 312 308 302 298 293 293 288 289 291 288 291 294 295 294 294
317 316 315 314 313 311 313 313 312 312 311 312 312 313 312 312 312 312 312 313 314 315 317 321 318 316 303 292 309 315 315 311 309 304 300 298 294 297 291 290 288 291 292 292 293 293 293
318 316 317 314 312 312 311 311 311 311 310 310 311 311 311 312 312 312 312 313 314 316 317 321 317 309 301 298 311 312 314 310 308 304 299 301 299 294 293 288 293 292 286 289 290 291 291
318 317 313 312 312 310 310 311 311 310 310 310 310 311 311 311 311 311 312 316 317 318 319 318 316 306 295 307 308 305 304 302 305 304 302 302 301 296 292 293 290 286 285 280 288 291 292
313 313 312 311 311 309 310 311 310 310 310 310 310 310 310 310 310 311 311 317 320 318 317 316 307 302 294 306 300 302 302 299 299 301 302 303 299 292 292 285 279 282 273 279 283 292 290
313 311 311 311 309 310 311 310 310 310 310 310 310 310 309 309 309 310 308 313 313 314 310 308 305 297 298 294 298 300 299 301 298 298 298 295 291 286 286 283 270 274 279 280 281 288 289
312 310 310 309 310 310 310 310 310 310 309 309 309 309 309 309 308 309 304 301 297 295 300 296 296 295 297 300 302 300 303 300 299 294 285 291 283 282 283 284 284 281 279 280 284 289 287
310 310 309 309 310 310 311 310 310 310 309 309 308 308 308 307 308 308 303 294 297 299 289 300 299 297 299 301 294 299 304 294 292 285 289 288 283 287 288 287 285 284 283 282 286 290 290
309 309 310 310 311 311 311 310 310 309 310 308 308 308 307 307 307 304 299 298 306 304 292 293 299 296 297 300 295 296 299 296 290 286 286 281 284 290 288 285 284 284 284 284 284 288 289
309 310 310 311 311 311 311 312 311 310 308 308 306 307 307 306 299 300 297 304 305 303 285 288 291 295 297 299 294 302 301 296 291 286 287 285 290 288 287 286 287 283 289 289 289 286 280
310 309 310 311 311 311 312 311 311 310 310 308 307 307 307 305 297 296 301 305 305 300 274 288 290 302 298 295 295 297 301 294 287 288 287 280 286 286 287 287 291 287 292 291 290 286 285
310 310 310 311 311 312 313 312 310 309 309 308 308 307 306 301 299 301 304 303 300 281 273 286 291 291 291 295 295 297 295 297 295 289 289 288 293 291 290 294 293 294 291 291 290 287 279
310 310 310 310 312 312 312 311 310 309 308 309 307 306 302 303 295 303 300 294 277 272 285 283 287 289 290 290 290 290 289 287 285 282 282 288 289 294 295 289 294 292 287 280 278 276 278
309 310 310 310 311 312 311 311 310 309 309 308 307 305 304 304 304 301 296 282 270 282 280 289 289 289 286 290 288 288 287 282 288 288 285 283 278 291 295 291 289 290 287 281 276 277 277
309 310 310 310 311 311 310 311 310 310 308 307 306 297 296 300 302 297 286 275 275 282 288 287 289 285 285 290 286 286 285 288 291 293 285 284 282 293 294 296 294 290 286 291 286 283 278
308 309 310 310 311 311 311 309 308 308 307 306 294 293 295 301 301 293 282 282 283 290 292 291 282 285 281 285 284 284 286 290 292 295 295 290 283 291 295 296 296 292 293 284 285 277 277
308 309 310 310 310 310 310 311 309 309 308 305 292 288 296 301 298 290 282 284 288 294 295 290 286 285 285 286 288 287 284 290 293 293 293 289 289 286 293 290 288 289 288 288 286 284 279
307 309 309 310 310 310 310 310 311 312 307 300 292 285 297 299 285 288 285 288 292 292 295 292 290 289 287 288 286 287 286 289 295 294 289 291 287 280 285 291 292 290 287 285 280 279 278
307 309 309 310 310 310 310 310 311 312 307 294 288 288 296 297 279 282 289 290 292 291 291 291 289 291 291 289 285 288 289 295 296 293 288 288 284 278 281 284 288 286 288 287 285 282 277
307 308 308 310 311 311 311 310 311 311 311 297 289 281 287 292 290 285 285 287 288 294 292 293 291 292 290 288 289 287 289 294 294 293 298 293 284 281 275 281 285 283 285 287 283 276 278
307 307 309 310 312 312 311 311 311 311 311 296 288 282 286 282 286 287 286 289 288 288 292 293 291 290 289 285 286 286 288 290 292 296 291 289 281 280 283 286 285 283 284 285 282 281 278
307 307 309 311 312 311 310 309 309 310 307 294 287 286 288 286 288 285 288 288 288 289 290 289 288 289 289 285 285 284 287 286 286 289 287 288 280 282 279 285 284 281 284 285 286 285 284
306 307 309 310 309 309 309 309 308 309 304 292 293 293 289 289 285 285 286 288 290 290 291 291 290 288 288 288 289 290 290 289 288 286 286 286 281 277 275 282 283 277 281 283 284 286 285
306 307 308 310 309 310 309 309 308 309 303 295 292 292 287 285 286 287 290 291 290 290 288 291 291 288 291 294 293 291 289 289 289 288 288 285 282 278 274 278 270 280 285 286 285 287 287
306 307 308 308 309 309 309 309 308 308 304 294 292 292 288 284 285 288 290 289 289 290 289 289 291 292 293 291 286 283 283 285 285 286 287 287 283 277 275 273 278 281 284 284 283 284 286
305 306 307 307 310 309 309 309 309 309 305 294 291 292 291 286 284 285 286 288 285 284 287 290 293 294 293 288 283 278 277 279 280 282 285 287 285 281 277 275 273 280 285 288 286 278 287
304 306 306 307 309 309 309 309 309 309 307 295 291 292 290 285 284 285 285 286 289 286 285 287 290 290 291 284 281 279 277 281 278 277 278 280 280 278 277 275 279 284 287 288 276 278 287
303 305 306 306 307 309 309 309 309 308 307 296 291 293 291 285 284 288 288 285 288 288 285 289 289 289 287 283 281 280 279 280 278 280 278 279 276 277 277 275 273 287 286 281 284 285 288
302 304 305 306 306 307 309 309 308 307 306 299 291 294 294 289 287 290 289 290 289 288 288 288 288 288 288 284 282 281 281 279 278 276 281 278 281 280 280 280 285 287 286 287 287 287 287

GFSGBSN_sfc_thetae_093.txt.gz
Theta_e
318 318 318 317 315 313 313 313 313 312 313 312 312 313 313 313 313 313 312 312 313 314 314 316 319 318 309 298 296 310 321 319 311 308 301 296 293 292 288 288 290 287 290 293 293 294 293
316 315 314 314 313 313 312 311 311 311 310 310 310 312 312 312 312 312 312 312 313 313 314 315 320 316 304 293 306 311 311 309 307 302 298 296 293 295 290 289 287 290 291 290 292 291 292
315 313 313 312 311 311 310 311 311 311 311 311 310 310 311 311 312 312 311 312 313 314 314 315 319 309 302 298 312 314 311 307 306 303 298 299 298 293 292 287 291 291 285 287 289 290 289
314 311 311 311 310 310 311 311 311 310 311 310 310 310 311 311 311 310 311 311 314 316 316 316 316 306 295 307 312 310 307 304 305 303 302 301 300 295 291 292 289 285 283 279 286 290 291
313 310 310 310 310 310 310 311 311 310 310 310 310 310 309 310 310 310 310 310 317 318 318 317 306 302 293 309 305 303 303 298 299 300 301 303 298 291 291 283 276 281 275 279 282 290 289
311 310 310 310 311 312 312 312 311 311 310 309 309 309 309 309 309 309 307 307 313 311 308 307 305 296 297 296 300 299 299 301 297 296 296 294 290 284 283 279 268 272 273 280 279 286 288
310 310 310 311 312 312 312 312 311 309 311 309 309 309 308 308 308 307 301 299 297 296 299 294 294 296 296 299 302 299 302 299 297 293 284 289 281 277 281 283 281 278 277 279 283 287 286
310 311 311 312 312 312 312 312 312 309 309 310 308 308 307 307 307 307 301 292 295 298 292 300 299 297 299 300 294 298 302 293 291 284 287 283 278 285 287 286 284 283 281 280 285 289 289
311 312 312 312 312 312 312 312 312 310 309 307 307 307 307 306 307 302 298 297 305 304 290 293 297 294 297 298 293 294 298 295 289 285 284 280 283 289 287 284 283 282 282 283 282 288 290
312 312 312 312 312 313 312 311 310 309 309 306 308 306 307 306 300 300 297 304 305 303 285 285 290 295 297 299 293 301 300 294 289 285 286 285 288 287 286 285 286 282 288 288 287 286 277
311 312 312 312 313 312 313 311 310 308 307 306 308 307 307 303 297 296 301 305 305 300 273 288 291 302 297 295 295 296 300 294 287 288 289 281 285 285 285 287 290 286 291 290 290 287 284
310 312 311 312 312 313 312 310 310 310 308 308 308 307 305 299 299 300 304 304 300 279 273 285 291 290 291 294 295 296 294 296 294 288 288 287 292 291 289 292 293 293 291 290 290 287 278
309 311 311 312 311 312 310 309 310 310 309 307 307 308 303 302 294 301 301 295 277 271 286 284 286 290 290 289 289 289 288 285 284 282 279 288 288 293 294 290 293 291 286 275 275 277 275
309 311 311 311 311 310 310 309 310 309 308 307 307 304 304 302 300 298 294 283 275 282 281 289 288 289 285 288 287 288 286 283 286 288 285 283 275 290 295 291 290 289 287 281 275 275 276
309 310 311 311 311 310 309 308 308 308 307 306 304 296 296 300 301 297 285 278 276 283 287 287 289 283 283 288 286 284 286 288 291 290 285 284 282 292 293 294 294 290 286 291 285 284 276
308 310 311 311 311 310 309 307 307 307 307 305 293 292 292 300 299 292 283 282 283 289 291 290 281 284 280 284 282 282 285 289 292 295 295 290 283 290 293 295 296 292 294 285 285 278 275
308 309 310 311 311 310 310 311 310 310 307 304 291 286 294 299 296 289 282 285 289 294 294 290 286 284 284 284 286 285 284 289 292 293 292 291 288 285 292 289 288 289 287 288 287 285 279
308 309 310 311 311 311 310 311 312 312 306 299 291 282 296 297 285 289 286 289 293 292 294 292 289 288 286 287 287 288 284 288 294 293 288 291 286 280 285 289 290 289 286 285 279 279 279
307 308 310 311 312 311 311 311 311 312 304 293 286 286 295 294 279 284 288 290 291 291 290 290 289 291 291 288 283 287 288 293 295 292 288 288 283 277 280 283 288 285 286 286 284 281 277
307 308 310 313 312 311 311 311 311 311 310 295 286 282 288 289 287 284 284 286 287 292 291 291 291 291 289 286 288 285 287 292 293 292 298 292 283 280 274 281 284 283 284 285 281 275 278
307 308 311 311 310 309 309 310 310 310 309 295 287 282 285 282 286 286 285 288 287 287 291 292 289 288 287 285 285 284 287 288 291 293 290 287 281 278 282 285 284 282 282 284 281 280 276
307 308 310 310 310 309 309 309 309 310 306 293 287 286 287 285 286 285 288 287 287 288 289 288 287 289 288 285 284 283 285 285 284 288 286 287 279 281 278 283 283 282 282 284 284 283 284
306 307 309 310 310 309 308 308 309 308 303 292 291 291 289 287 285 284 286 288 289 289 290 290 289 287 287 287 289 289 289 288 287 284 285 285 281 277 275 280 281 277 280 282 284 284 283
306 307 308 310 310 309 309 308 309 307 302 295 292 291 287 284 285 285 289 290 289 289 288 290 290 288 290 293 291 289 287 288 288 286 287 283 281 277 274 277 271 278 284 285 284 286 286
305 306 307 308 310 309 310 310 309 305 303 293 291 291 288 283 284 287 287 288 288 288 288 289 291 291 292 289 285 283 282 283 284 285 284 285 282 276 274 273 277 279 283 283 283 283 287
303 305 307 307 309 310 309 310 309 307 303 293 290 291 290 286 283 285 285 286 284 283 286 288 292 293 291 286 282 278 276 278 279 282 285 285 284 280 277 275 272 279 284 287 285 277 286
302 305 306 307 307 309 309 310 310 308 303 294 291 292 290 285 284 284 286 286 287 285 284 285 289 290 289 283 281 278 276 279 277 277 278 279 279 277 277 275 278 282 286 287 276 277 286
302 304 305 306 306 308 308 309 309 309 304 296 291 292 292 286 285 288 289 285 287 287 285 288 287 288 286 282 281 279 278 279 277 278 277 278 275 276 276 274 272 286 285 281 283 284 286
302 303 304 305 306 306 308 310 309 309 307 299 290 293 292 290 288 289 290 290 290 288 288 287 287 286 287 283 281 280 280 278 277 276 279 278 281 278 280 279 284 286 285 286 287 287 287

GFSGBSN_sfc_thetae_096.txt.gz
Theta_e
316 315 313 313 313 312 311 311 310 311 311 311 311 311 311 312 312 312 313 313 313 313 312 314 315 319 307 299 296 308 322 320 311 305 299 296 293 291 287 287 289 286 288 292 292 292 292
316 314 312 312 312 312 311 311 311 311 311 311 311 311 310 311 311 310 312 312 312 313 312 313 315 317 304 295 307 311 309 307 305 301 297 296 292 294 289 288 286 288 290 289 290 290 290
316 313 312 311 310 310 310 311 311 310 310 311 310 310 310 310 311 311 311 311 312 313 313 313 315 310 302 298 311 310 309 304 304 301 297 298 297 293 290 286 290 289 284 286 287 288 288
313 312 312 311 311 311 311 311 311 311 311 311 310 310 310 309 310 310 310 311 311 312 313 314 315 307 297 309 310 308 307 303 303 303 301 300 299 294 290 291 287 284 282 278 284 288 290
312 312 312 312 313 313 313 312 312 312 311 311 310 309 309 309 308 309 309 309 309 316 316 314 307 302 296 310 307 303 303 299 300 300 301 302 297 290 289 282 275 279 271 278 282 289 288
312 313 313 313 314 313 313 313 312 312 311 309 308 308 309 308 308 308 306 307 306 313 311 309 306 296 297 298 300 300 301 301 297 297 296 294 289 284 282 278 268 272 272 279 279 285 286
312 313 313 313 314 314 313 313 312 311 311 308 308 308 308 307 308 305 300 295 293 296 300 295 296 295 296 302 302 299 302 299 297 293 284 289 281 275 280 282 279 277 276 277 282 287 286
312 313 313 314 314 313 313 313 312 309 308 309 308 308 307 307 308 305 300 289 291 298 290 298 297 297 299 301 293 298 302 292 290 284 287 282 279 283 286 285 282 280 281 281 284 287 289
312 313 314 314 313 312 312 312 311 310 309 308 308 308 308 308 308 302 297 295 302 304 288 292 295 296 297 298 292 294 298 294 287 284 283 279 282 288 286 282 282 283 281 282 283 287 289
311 313 314 313 313 311 313 311 311 310 309 309 307 308 307 306 300 300 297 303 305 304 283 285 290 294 297 298 292 300 300 294 289 284 285 283 287 286 284 285 286 281 288 287 286 286 280
311 313 313 312 312 311 313 312 310 309 309 308 308 308 307 304 297 296 301 305 305 300 272 286 290 301 299 294 293 295 299 293 286 288 287 280 283 284 285 286 289 285 291 289 288 286 285
311 312 313 312 311 311 311 310 310 309 308 308 307 306 304 298 298 300 304 303 299 280 273 285 291 290 291 294 294 295 293 295 293 287 286 286 290 289 289 291 292 293 290 289 289 287 278
310 312 312 312 311 310 310 310 309 308 308 308 308 307 303 302 296 301 300 293 279 274 286 284 286 290 289 288 288 288 287 284 283 281 275 285 287 292 293 289 293 291 287 278 272 274 273
310 311 312 312 310 309 309 309 308 308 308 307 306 304 303 301 299 297 292 282 274 283 283 289 288 289 285 287 286 286 284 282 286 286 283 279 275 289 294 291 290 290 288 279 269 275 278
309 311 312 312 311 309 308 308 307 308 309 308 303 295 294 297 300 295 286 278 275 281 287 286 287 282 282 287 286 283 284 286 289 290 284 283 282 291 293 295 294 290 286 291 284 286 280
308 310 311 312 311 311 310 309 310 311 309 305 291 290 291 298 298 291 285 283 284 289 290 290 282 284 280 283 282 281 282 287 290 293 293 290 283 289 292 294 295 292 294 285 285 277 276
308 310 312 312 311 310 311 312 312 312 309 304 291 287 294 298 296 290 283 285 289 293 293 288 284 282 282 282 283 283 281 288 291 294 294 291 288 284 290 288 287 289 286 288 287 285 279
308 310 312 313 312 310 311 311 312 312 307 298 288 283 296 296 286 287 286 289 294 291 293 291 288 287 285 285 285 286 283 287 293 294 288 290 286 279 284 289 290 288 285 284 278 277 278
308 310 312 312 311 311 311 311 311 311 304 292 285 285 294 294 280 282 286 289 291 290 290 289 288 290 289 287 283 285 287 292 294 292 288 289 282 275 279 282 286 284 285 285 283 280 277
308 309 311 309 311 310 309 310 310 310 307 293 286 283 288 289 285 282 284 286 286 291 290 291 289 290 288 286 287 284 286 291 293 292 298 292 283 281 275 280 283 282 282 284 281 274 277
307 309 311 310 310 310 310 310 310 310 306 294 287 282 285 281 285 284 284 287 286 286 290 291 288 287 286 283 283 283 286 287 290 293 289 287 280 278 282 283 283 283 282 282 280 279 276
306 308 310 311 310 310 310 309 310 309 304 292 288 286 286 284 284 285 287 286 287 288 288 288 287 288 287 284 283 281 284 283 283 287 285 286 279 281 277 283 282 282 283 282 283 283 281
305 307 309 310 310 310 310 310 310 308 302 292 289 290 288 286 284 284 285 286 287 288 289 289 288 286 285 287 289 289 289 287 286 283 284 284 280 277 275 279 280 277 280 282 283 284 283
305 306 308 309 310 309 310 310 310 308 303 294 291 290 287 283 285 285 287 288 287 288 286 289 288 286 289 291 290 287 286 287 286 286 286 282 280 277 273 276 270 278 282 284 283 285 286
305 305 307 308 309 310 309 310 310 309 304 293 291 291 287 283 284 285 286 286 286 287 286 288 289 291 291 288 284 282 281 282 283 283 283 284 281 276 273 272 277 278 281 282 281 282 286
304 304 306 307 308 309 309 309 309 310 305 292 290 291 290 285 283 286 285 285 283 282 285 287 291 291 289 285 282 277 275 277 278 280 283 284 282 279 276 274 272 277 283 286 284 277 285
304 303 305 306 307 308 308 309 309 309 305 294 290 290 290 285 285 286 286 286 287 284 283 283 287 289 287 282 281 278 276 278 276 276 276 278 278 277 276 275 278 281 285 286 275 277 285
304 302 304 305 306 307 308 309 309 309 307 295 291 291 290 286 285 287 289 286 286 286 285 287 285 286 284 281 281 279 278 278 275 278 276 277 275 276 276 273 272 285 284 280 283 283 286
306 303 303 304 305 306 308 310 309 308 304 297 290 292 291 289 287 288 289 288 289 289 288 286 286 286 286 283 281 280 280 276 276 276 277 277 280 277 279 279 283 285 285 285 286 286 286

GFSGBSN_sfc_thetae_099.txt.gz
Theta_e
317 315 314 313 313 312 312 311 312 312 312 312 311 311 311 311 311 312 311 311 313 313 312 310 314 317 308 299 298 308 322 321 309 304 301 298 295 293 289 289 291 289 290 292 293 293 292
313 313 313 313 312 312 313 313 312 312 312 311 311 310 310 310 311 310 309 310 312 313 312 310 311 315 305 297 309 312 309 306 304 301 298 297 295 295 291 289 288 290 290 290 291 291 291
313 313 313 314 314 313 314 313 313 313 312 312 311 310 310 310 310 309 310 309 310 312 312 312 312 311 303 298 312 310 308 304 304 302 298 299 298 294 293 288 292 290 286 287 288 289 289
313 314 315 315 315 314 314 313 313 313 312 312 311 309 309 309 308 308 309 309 310 312 311 312 312 307 298 310 312 307 305 302 303 303 300 300 299 295 292 293 287 285 284 281 286 289 290
313 315 315 315 315 314 314 313 313 313 312 312 310 308 308 308 308 309 307 307 309 312 314 313 307 303 296 312 304 303 304 299 301 302 302 302 298 291 290 284 279 281 277 280 283 289 289
313 315 315 315 314 313 314 313 313 311 310 310 309 309 309 309 309 306 305 308 309 311 310 309 306 297 300 299 300 300 302 302 298 298 297 294 290 286 285 281 275 277 277 280 280 286 287
314 315 315 314 314 314 313 313 310 310 311 310 310 309 308 309 306 304 300 298 294 296 299 295 296 295 299 302 304 300 303 299 298 294 287 291 284 280 282 283 280 279 279 279 282 287 285
313 315 314 313 313 313 313 312 311 311 310 310 309 308 308 309 306 304 299 291 291 295 288 298 299 299 301 301 293 298 302 293 291 286 289 284 281 285 286 286 284 283 280 280 285 288 288
313 314 314 313 312 312 312 311 311 311 310 309 309 308 308 308 306 300 296 296 303 303 287 289 296 296 297 298 293 294 298 294 288 285 285 281 285 288 287 284 283 282 281 281 282 287 290
312 314 313 313 312 311 311 310 310 310 309 309 308 307 307 308 300 300 297 303 305 303 283 283 290 293 297 298 291 300 300 294 290 284 285 285 288 286 286 283 285 281 287 287 286 285 281
312 314 313 312 312 311 310 310 309 309 309 308 308 307 307 305 298 296 300 305 304 300 272 287 290 300 299 293 293 295 299 294 287 287 285 281 285 286 285 285 289 284 290 289 288 286 285
311 313 313 311 310 310 310 310 309 309 309 309 308 307 305 300 299 300 304 303 299 280 272 283 291 292 292 293 293 294 294 296 294 288 287 286 291 289 288 290 291 292 289 289 289 287 280
310 312 313 312 309 309 309 309 308 308 308 307 307 307 302 301 294 301 299 292 280 274 286 283 287 290 289 287 288 288 287 285 283 276 274 284 287 292 293 288 293 291 287 276 273 277 275
310 312 313 313 311 308 308 308 309 310 309 309 305 303 301 301 300 298 292 284 275 283 282 289 289 288 285 286 285 286 285 282 286 286 283 277 276 288 292 290 290 289 288 280 272 274 278
310 311 313 313 312 311 310 311 311 312 310 307 302 293 293 296 299 295 287 279 277 280 286 286 286 282 284 286 285 283 283 285 289 288 282 281 278 291 293 295 294 290 285 291 284 284 281
310 312 314 313 312 311 311 312 312 312 312 306 291 290 291 296 296 291 285 284 284 288 289 288 282 283 279 283 282 283 283 287 291 292 292 289 283 289 292 294 295 292 293 285 285 276 276
309 312 313 312 312 311 311 312 312 312 312 303 290 288 295 297 296 290 282 283 288 293 292 287 283 282 282 282 283 282 283 287 292 293 294 291 288 284 290 289 287 289 286 287 287 285 279
309 311 311 311 310 310 311 311 311 312 309 296 288 285 297 296 286 284 285 289 293 290 292 290 288 287 284 284 283 285 284 287 293 294 288 290 287 281 284 289 290 289 286 285 280 278 280
309 310 311 311 311 311 311 311 310 311 307 291 286 285 295 295 281 277 285 288 290 289 288 289 288 290 288 286 283 286 288 293 294 292 288 289 283 276 279 283 287 285 286 285 284 281 278
307 309 311 311 311 311 311 311 311 311 308 291 287 283 289 288 285 283 284 285 286 291 290 290 288 289 287 285 287 284 286 291 293 292 297 292 283 280 275 280 284 283 283 284 282 277 279
307 308 310 311 310 311 311 311 311 310 306 293 287 283 284 281 285 284 284 286 285 286 289 290 287 287 285 282 283 282 285 286 290 292 290 287 280 279 282 283 284 284 283 283 280 281 278
306 307 309 310 310 310 310 311 310 309 307 292 288 286 284 283 283 283 287 285 286 287 287 287 286 287 286 283 283 281 284 283 283 286 285 286 280 282 278 283 283 282 283 282 284 284 283
306 306 308 309 310 310 310 310 310 308 303 291 288 289 288 286 283 282 283 285 286 287 288 289 287 285 285 286 288 288 288 287 286 283 284 283 281 277 275 279 280 277 280 282 284 285 284
306 305 307 308 309 310 310 310 310 308 301 292 290 289 286 284 284 285 286 287 286 286 285 288 288 285 289 290 288 286 284 286 285 285 285 282 280 277 275 277 270 279 283 285 284 285 286
306 305 306 307 308 308 309 310 310 309 304 292 290 290 287 283 284 284 285 284 285 285 285 287 289 291 290 286 284 282 280 281 282 283 283 284 281 276 273 272 277 278 281 283 282 282 285
306 304 305 306 307 307 308 309 310 308 304 292 289 289 288 284 283 286 285 284 283 281 284 286 289 290 287 284 282 277 275 276 278 279 283 283 282 280 276 274 272 277 283 286 284 277 284
307 304 304 305 306 307 307 308 310 309 305 294 290 290 289 285 285 286 285 285 286 283 283 283 286 287 286 282 280 278 275 278 276 275 276 278 277 277 277 275 278 281 285 286 276 278 285
308 305 304 304 305 306 307 309 310 308 305 295 290 290 290 285 285 287 288 286 285 285 283 285 284 285 283 281 280 279 278 277 275 277 276 277 275 275 275 274 273 285 285 281 284 284 287
309 307 304 304 304 305 306 309 309 308 304 298 290 292 291 288 288 288 289 288 288 289 288 285 284 285 285 282 281 280 280 275 275 276 276 276 280 277 279 279 283 285 286 286 285 287 287

GFSGBSN_sfc_thetae_102.txt.gz
Theta_e
313 314 315 316 316 315 315 314 314 313 312 312 312 311 311 311 310 310 311 311 312 313 313 310 313 316 309 300 300 312 322 320 312 309 306 304 299 298 294 295 296 293 294 295 296 296 296
314 316 316 317 316 316 315 315 314 314 313 313 312 311 310 309 309 309 310 311 311 312 313 312 313 316 306 296 310 314 310 308 307 306 303 303 301 300 296 294 292 294 293 294 294 293 294
315 316 316 316 315 315 314 314 314 314 313 313 312 311 310 309 309 309 310 310 309 310 311 311 313 312 305 302 312 312 310 306 306 306 301 303 302 298 297 293 295 293 289 291 291 292 292
315 316 316 315 315 314 314 314 313 312 312 312 312 311 308 309 309 309 310 309 310 311 312 310 313 308 299 311 312 307 307 304 307 307 304 305 304 299 296 296 292 289 290 288 290 293 293
316 316 314 315 315 314 313 313 311 312 312 310 311 309 308 308 309 309 307 307 308 311 313 312 308 304 298 313 303 305 306 302 304 304 304 303 301 296 294 291 289 289 286 286 288 293 292
316 315 314 314 314 314 313 313 312 311 311 310 308 309 309 310 309 306 307 310 312 313 310 306 306 298 302 298 301 303 307 305 301 300 298 297 296 292 291 290 286 283 283 286 286 290 291
315 314 314 313 313 312 312 312 312 312 311 310 310 309 309 307 306 305 304 303 299 296 301 293 292 297 298 301 304 301 304 302 300 296 290 293 290 286 287 287 287 286 285 284 288 291 290
315 314 313 313 312 311 311 311 311 311 310 310 309 309 308 307 306 304 303 297 296 298 288 297 299 298 301 302 295 299 304 295 294 289 291 290 286 288 290 289 288 287 285 287 290 291 291
314 315 312 313 312 311 311 310 310 310 310 309 308 309 308 306 306 304 300 298 304 301 288 290 295 295 296 299 294 295 299 296 291 288 288 287 287 291 289 288 287 288 287 286 286 291 294
314 314 313 312 312 311 311 311 310 310 309 309 309 308 307 307 301 301 298 304 306 304 286 284 289 293 297 298 292 302 302 296 292 288 289 289 290 289 288 287 289 285 291 289 289 288 285
313 314 313 311 310 310 310 310 309 309 309 309 309 307 308 306 300 298 301 306 306 301 275 288 291 301 298 293 294 295 302 297 291 290 290 287 289 288 288 288 291 289 292 291 290 287 286
312 313 314 312 310 310 309 309 310 311 309 308 308 308 305 303 303 302 305 305 301 287 275 285 291 291 292 294 293 296 296 300 297 291 291 290 293 292 292 293 293 294 291 291 291 287 281
311 313 314 313 311 309 309 309 311 312 311 309 307 307 305 305 299 304 303 298 287 280 286 285 288 291 290 289 290 291 290 290 289 285 285 288 290 293 294 291 294 292 287 283 282 279 282
311 313 314 314 313 312 312 312 312 312 312 312 308 304 303 304 305 304 300 291 279 283 285 290 290 291 287 289 289 290 289 289 290 290 286 285 284 291 295 293 290 289 289 283 278 281 283
311 313 313 313 313 312 312 312 312 313 313 312 302 303 303 302 303 302 295 283 283 285 289 289 289 287 286 289 290 289 290 290 292 292 286 286 286 293 295 297 295 290 287 291 285 285 282
311 313 312 312 311 311 311 312 312 313 313 306 301 300 301 302 303 299 294 284 288 291 292 291 285 288 285 287 288 288 289 292 292 294 296 290 286 292 295 296 297 293 295 285 286 280 279
310 311 312 312 311 312 311 311 311 312 312 303 300 301 304 303 303 299 288 289 291 295 295 291 288 287 288 287 289 288 288 292 295 295 296 294 290 289 293 292 291 291 289 289 288 286 283
308 310 312 312 312 312 311 311 311 312 308 301 300 295 307 306 297 294 290 292 294 293 296 294 293 291 290 290 289 290 289 292 297 298 292 294 290 285 288 293 294 294 290 289 285 282 286
308 309 311 312 312 312 311 311 311 312 305 301 298 297 306 307 292 291 292 292 293 293 292 293 292 294 294 291 288 291 292 296 298 296 293 294 289 284 284 288 291 290 290 289 288 287 285
308 308 309 311 311 311 311 311 310 310 308 301 299 295 301 299 294 293 291 291 291 295 293 293 293 294 293 290 292 290 291 295 297 297 297 296 290 287 284 286 290 287 288 288 288 285 286
308 307 309 309 311 310 310 311 310 308 308 302 298 293 292 293 293 293 293 291 290 290 295 295 292 291 291 289 289 289 291 292 295 295 295 293 287 287 288 289 289 288 288 288 285 288 285
308 307 308 309 310 310 310 310 310 308 305 301 297 295 293 292 290 293 292 290 290 291 292 292 291 291 292 290 290 288 290 290 290 292 292 292 288 287 284 288 288 286 288 288 288 288 288
308 307 307 309 309 310 310 310 310 307 305 300 298 297 296 290 292 292 291 290 290 292 293 293 292 292 291 292 294 295 295 294 293 291 290 289 289 286 283 285 285 283 287 288 289 291 291
307 307 306 307 309 309 309 310 310 308 302 301 298 297 295 291 293 292 291 292 291 291 291 293 293 292 294 297 295 294 293 293 292 292 292 288 287 286 284 284 278 286 290 290 290 291 293
308 306 306 306 307 308 309 309 310 308 303 301 298 298 296 291 292 291 291 292 292 292 292 292 294 296 297 294 291 288 288 287 288 290 290 291 289 286 282 282 286 285 285 288 287 288 293
309 306 306 305 306 307 308 309 310 308 304 300 297 298 297 293 291 293 292 292 292 292 291 291 295 297 295 292 289 284 283 283 284 285 288 288 289 287 283 279 278 285 289 292 291 285 291
310 308 305 305 305 306 307 309 310 308 304 301 297 297 298 294 293 293 293 292 293 292 291 291 292 293 293 291 286 285 284 285 282 282 282 285 285 284 284 282 285 289 291 292 283 286 291
310 309 306 305 304 305 306 308 309 308 304 300 297 297 298 295 295 292 294 293 292 293 291 291 292 291 291 288 287 287 285 286 283 286 284 284 283 282 283 281 279 290 290 286 291 290 293
310 310 308 305 304 304 306 307 308 307 304 299 298 296 296 296 296 293 295 295 296 297 296 292 291 291 293 290 289 289 286 285 284 282 284 282 286 286 286 287 290 293 294 295 291 293 293

GFSGBSN_sfc_thetae_105.txt.gz
Theta_e
317 317 317 316 317 316 315 315 314 314 314 312 311 311 310 310 310 310 310 311 313 313 313 311 313 316 311 303 302 314 322 322 313 310 306 303 300 299 296 298 297 295 297 297 298 297 297
318 317 316 316 316 315 315 315 313 313 314 312 311 310 310 309 309 310 310 311 312 313 313 312 313 316 307 298 311 316 318 313 309 308 306 305 301 302 298 297 296 297 296 295 296 295 295
317 316 315 315 315 314 314 314 313 312 312 313 311 310 310 309 309 310 310 310 309 311 311 312 312 312 305 303 313 315 309 308 309 308 303 305 305 300 300 295 297 295 292 294 294 294 294
316 315 314 314 314 314 314 314 314 314 313 312 312 309 309 309 309 309 310 310 311 309 308 311 312 310 301 313 315 310 309 307 308 308 306 305 305 300 298 298 294 292 292 290 293 294 296
316 315 314 314 313 313 313 313 312 312 312 311 312 310 309 309 309 310 308 308 309 310 311 311 308 304 299 311 304 309 308 304 305 305 305 304 302 297 296 293 292 291 290 289 291 295 294
316 314 315 313 312 312 312 312 312 312 312 311 310 310 311 309 308 308 310 310 311 310 309 309 307 298 302 296 302 306 308 306 301 301 298 297 297 294 293 291 288 289 288 288 289 294 294
316 313 314 312 312 312 312 312 311 311 311 310 310 309 308 307 306 306 308 305 300 296 300 296 293 297 298 301 305 302 305 302 301 297 292 295 292 289 290 290 290 289 288 288 292 294 292
315 314 313 313 312 312 311 311 311 310 310 309 309 308 308 308 306 305 305 299 298 299 289 295 299 298 301 303 295 299 304 296 295 291 293 291 289 291 291 291 290 289 288 290 293 293 293
315 315 312 312 312 312 311 311 311 311 310 309 309 308 307 308 307 306 301 299 305 303 289 289 296 295 297 300 295 295 300 297 294 290 290 290 290 293 291 289 289 290 289 289 288 294 296
314 315 314 311 311 311 311 311 311 311 310 309 308 309 307 307 302 302 299 306 307 306 286 284 290 293 298 299 292 302 303 297 294 290 293 291 292 290 289 288 291 288 292 291 290 289 287
313 314 315 313 311 310 310 310 311 312 310 309 309 307 308 306 302 299 302 307 307 303 276 288 291 300 299 294 295 296 303 299 291 291 293 288 289 289 289 290 293 291 293 292 292 288 286
313 315 315 314 313 312 312 312 313 313 312 311 308 308 307 307 306 305 308 307 303 286 276 285 292 292 292 294 294 297 297 301 299 294 294 292 295 294 294 294 294 295 293 292 291 288 282
313 314 314 314 313 313 312 313 313 313 313 312 310 306 306 306 302 307 307 301 287 281 288 286 288 292 291 289 291 293 292 292 291 286 285 291 292 295 295 292 295 293 289 285 282 282 284
313 313 312 312 312 312 311 311 312 312 312 313 308 306 305 305 307 306 302 294 282 285 286 292 291 291 288 291 291 291 291 290 293 293 289 287 284 292 297 294 290 290 289 285 279 282 284
312 313 312 312 312 312 312 312 312 312 313 310 303 307 307 306 307 306 297 285 284 287 291 290 291 288 288 290 291 292 292 291 294 294 287 287 286 295 297 298 297 290 288 293 285 287 282
311 312 312 312 312 312 312 312 312 313 312 306 306 305 304 306 307 302 296 286 289 294 294 293 287 290 287 289 290 291 291 294 293 296 297 293 287 294 296 298 299 294 295 286 286 279 280
309 311 312 312 311 311 311 312 312 312 309 304 307 303 307 308 306 301 290 291 293 297 297 292 290 289 291 290 292 291 291 294 297 296 298 296 293 291 295 293 292 291 289 290 289 287 281
308 310 311 312 311 311 311 312 312 312 309 306 308 298 310 309 301 299 293 294 295 295 298 296 296 294 293 293 292 292 291 294 300 299 293 296 292 288 290 296 297 296 292 291 285 285 288
309 309 310 311 312 311 311 311 310 310 309 305 302 303 312 312 296 295 296 295 296 295 295 295 295 297 296 293 290 293 293 298 299 297 294 296 291 286 286 290 293 291 293 292 291 289 286
309 308 309 310 311 311 311 311 311 309 309 307 305 298 304 303 300 297 295 294 293 297 296 296 295 297 295 293 295 292 293 296 299 298 297 297 292 288 285 287 290 288 290 291 290 286 288
309 308 308 310 310 311 311 311 310 309 307 307 303 298 298 297 296 297 297 295 293 292 297 297 295 294 293 290 291 291 293 294 297 297 297 295 288 290 290 291 291 289 289 290 287 289 285
309 308 308 309 310 310 310 311 310 309 309 306 301 300 299 297 295 296 295 293 293 293 294 293 292 293 294 291 292 290 292 292 292 294 294 295 289 289 285 290 289 287 290 290 290 290 290
309 308 308 307 309 309 310 310 310 308 309 305 304 303 299 293 295 295 294 293 293 295 295 296 295 294 293 294 296 297 298 297 296 293 292 291 290 287 284 288 288 284 288 289 290 292 291
310 308 308 307 308 309 309 310 310 308 305 307 304 302 299 294 295 294 294 294 293 294 294 296 296 294 297 300 299 297 296 296 296 295 296 291 289 288 285 287 279 288 292 292 291 292 294
310 308 307 307 306 308 308 309 310 309 305 306 305 303 299 295 295 294 294 294 295 295 294 295 297 298 300 297 292 290 290 289 291 294 294 294 291 287 283 283 287 288 288 289 289 289 295
310 309 307 306 306 306 307 309 310 308 306 305 303 303 302 296 294 295 295 295 294 294 294 294 297 300 299 295 291 285 284 285 285 286 290 292 293 288 286 280 279 287 290 294 293 285 295
310 310 308 306 306 305 307 308 310 308 305 304 303 302 302 297 298 297 295 295 296 295 293 294 295 296 297 293 288 286 286 288 284 284 284 286 287 284 285 283 287 292 292 295 284 287 293
311 310 309 307 305 305 305 307 309 309 306 302 302 302 300 299 299 296 298 296 296 296 292 295 294 294 294 289 288 289 287 288 286 289 287 286 285 284 285 283 280 294 292 287 292 293 296
312 311 310 308 305 305 304 306 308 308 305 302 301 301 299 298 299 298 300 301 300 300 298 297 295 294 296 292 292 291 288 289 287 283 289 284 289 288 288 288 293 295 296 297 295 295 296

GFSGBSN_sfc_thetae_108.txt.gz
Theta_e
317 315 316 316 316 315 315 315 314 313 313 313 312 311 311 311 311 311 311 311 314 315 314 311 313 317 313 304 303 313 322 321 313 311 306 302 299 299 295 296 297 294 296 298 298 297 295
316 315 315 315 315 315 314 315 315 314 313 314 312 312 311 311 311 310 311 312 314 314 314 312 313 317 308 298 311 316 319 315 309 308 306 304 301 303 297 296 294 297 297 296 296 295 295
316 316 315 314 313 314 314 313 313 314 313 312 312 312 311 311 311 310 310 310 312 313 313 313 312 313 305 302 314 313 311 310 310 310 305 306 305 301 299 294 297 296 291 293 294 294 294
315 316 314 313 313 313 313 313 312 313 313 313 311 312 311 311 310 310 310 311 310 310 311 312 312 310 300 313 313 311 309 307 309 308 306 305 305 300 298 297 294 291 289 284 291 294 295
315 315 314 313 313 313 313 312 312 312 312 312 312 312 311 311 310 310 308 309 310 310 310 311 308 304 297 311 306 310 308 303 305 305 305 304 303 296 295 290 286 287 284 285 289 295 295
315 314 313 313 313 312 312 312 311 311 312 311 310 310 309 309 309 309 311 309 310 310 309 308 305 299 300 297 304 307 308 306 301 301 299 298 296 290 290 288 281 283 283 286 284 292 293
316 314 313 313 312 313 312 312 311 311 311 310 309 309 308 307 307 308 309 306 299 295 297 295 295 296 297 302 305 303 306 303 301 298 291 296 289 286 288 289 289 287 285 284 290 294 290
316 315 312 312 312 312 312 312 311 311 310 310 308 309 309 307 307 307 307 299 298 299 289 297 298 298 302 303 296 299 305 296 295 290 292 291 287 290 292 292 290 289 288 287 292 294 292
314 316 314 312 311 311 311 312 312 311 310 309 309 307 308 308 308 306 302 300 307 305 289 290 296 295 297 301 295 295 301 298 294 290 290 287 288 292 291 289 289 288 287 288 287 293 294
315 316 315 314 313 312 312 312 313 313 311 309 309 309 308 307 303 304 299 306 308 306 286 284 290 294 298 299 293 302 303 298 295 289 291 289 292 290 289 288 290 286 292 291 290 286 279
316 315 314 314 314 313 313 313 313 313 313 312 309 308 307 309 302 300 302 307 307 303 275 288 291 301 299 294 294 296 304 300 291 290 292 287 288 288 289 290 292 289 294 292 291 287 286
314 313 313 313 313 312 312 312 312 313 313 313 310 308 308 307 306 305 308 307 303 285 276 285 292 292 292 294 294 297 297 302 299 294 293 291 296 294 293 294 294 295 292 292 291 288 280
314 312 313 313 313 312 312 312 313 313 313 312 311 306 307 307 301 308 307 300 285 279 288 286 289 291 290 290 291 293 292 291 289 284 284 290 291 295 296 292 295 292 288 281 278 279 275
312 313 312 313 313 312 312 313 313 313 313 311 307 306 304 305 307 306 302 291 279 285 285 292 291 291 288 291 291 292 291 287 292 292 286 285 277 292 295 293 291 290 288 282 273 279 280
312 313 312 312 312 312 312 313 312 313 311 308 307 306 306 306 307 305 294 284 284 287 291 290 291 288 288 291 291 292 291 290 292 293 286 285 284 295 296 297 295 289 286 292 283 284 277
310 311 312 312 312 312 312 312 312 312 310 307 306 305 303 307 307 301 293 286 288 294 294 293 286 290 285 289 289 290 290 293 293 295 296 291 285 293 295 296 296 294 294 285 285 278 276
309 310 311 311 312 311 311 312 312 311 311 305 305 301 306 308 305 299 288 289 292 297 297 292 290 289 290 289 291 289 289 293 296 295 296 294 291 288 294 291 290 290 288 289 288 286 280
310 309 310 311 311 312 312 312 312 312 311 303 308 295 309 308 298 297 291 294 294 296 298 296 296 294 292 292 291 291 290 293 299 297 292 293 290 282 288 294 295 292 289 288 279 283 283
310 309 309 309 311 312 312 312 311 311 310 305 302 302 312 308 293 292 295 294 296 296 295 296 295 296 296 292 288 291 292 297 298 296 292 292 288 278 280 286 290 288 290 291 288 285 279
310 309 308 309 311 311 311 311 311 310 310 307 304 293 304 302 299 295 294 294 293 298 296 297 295 296 294 291 293 290 292 296 297 297 298 295 289 284 279 282 287 285 288 290 286 278 281
310 309 309 309 310 310 311 311 311 310 310 307 302 295 296 295 294 295 295 295 293 293 296 297 294 294 292 288 289 289 291 292 296 298 294 292 284 285 287 289 288 286 286 288 285 285 280
310 309 309 308 309 310 310 311 310 309 309 305 299 297 297 295 295 295 294 292 293 294 294 292 292 293 293 289 290 288 290 289 289 292 290 292 283 284 279 287 287 284 287 288 288 288 287
310 309 309 308 307 309 309 310 310 309 309 304 303 301 297 294 294 292 291 292 293 295 295 296 294 293 291 293 294 294 294 294 292 288 289 288 285 281 278 285 285 279 285 286 287 288 289
311 309 309 308 307 308 309 310 310 309 306 305 302 300 296 291 292 292 294 294 293 293 292 295 294 292 294 297 296 293 292 292 292 291 292 287 285 282 278 281 272 284 288 289 287 289 290
310 310 309 308 307 306 308 309 310 309 307 304 303 300 296 291 292 293 293 293 293 293 292 294 295 295 297 293 288 286 285 285 288 290 290 291 286 279 276 277 282 284 285 285 285 285 290
310 310 309 308 307 306 307 309 309 309 306 304 301 301 299 293 290 293 292 292 289 289 291 293 295 296 294 291 287 279 278 280 280 283 287 289 288 282 280 277 274 282 286 289 288 279 289
312 310 309 308 307 306 306 307 309 308 306 301 300 300 299 293 294 293 291 291 293 291 289 290 292 292 293 287 283 280 279 284 278 279 279 281 282 280 280 278 282 287 288 290 277 281 288
312 311 310 309 307 306 306 306 308 308 305 301 300 300 297 294 295 295 296 292 293 292 287 291 291 291 289 285 283 283 281 283 280 283 282 281 279 279 280 277 275 290 288 283 287 287 290
313 312 311 310 308 306 306 305 307 308 305 305 298 299 298 293 295 296 297 296 295 295 294 293 291 291 291 286 285 284 282 283 281 277 284 279 284 282 283 283 288 291 289 291 291 290 290

GFSGBSN_sfc_thetae_111.txt.gz
Theta_e
317 316 314 315 315 315 314 315 315 315 315 313 311 312 312 312 312 312 311 312 315 315 314 313 314 318 312 304 301 314 322 320 314 311 305 300 296 295 292 293 294 291 294 296 296 296 294
317 315 314 314 314 313 314 314 315 315 314 313 313 312 312 311 311 312 312 313 314 315 313 313 313 316 307 297 312 315 317 315 310 308 303 301 297 299 294 293 291 294 295 294 294 293 293
316 314 313 313 312 312 313 314 313 314 314 314 313 312 312 312 311 312 312 313 312 313 313 313 312 312 304 302 314 314 310 309 308 307 302 302 300 297 295 291 295 293 289 290 291 293 292
315 314 314 313 313 313 312 312 313 313 313 313 312 312 311 311 311 312 312 311 311 312 313 313 314 308 299 312 313 310 309 305 306 306 304 303 302 297 294 294 292 288 287 282 289 292 293
314 313 313 313 313 313 313 312 311 312 312 312 312 312 311 311 310 310 311 311 311 311 313 311 306 304 297 312 306 309 310 303 303 303 302 304 300 293 293 287 282 284 279 282 286 293 293
315 313 313 313 313 313 313 312 312 311 311 310 310 309 309 309 309 311 310 310 310 307 306 308 306 298 299 299 305 307 307 306 301 299 298 296 293 287 287 285 274 279 279 284 282 290 291
316 314 312 312 312 312 313 314 311 310 311 309 310 310 308 308 310 311 307 301 297 295 298 295 296 296 298 303 306 303 306 303 300 296 286 294 286 280 285 287 287 285 283 283 287 293 289
316 316 314 312 312 312 313 313 312 311 309 309 308 309 308 309 309 308 303 297 298 299 289 297 297 299 302 303 295 300 305 296 294 288 290 287 282 288 291 291 289 287 285 285 291 294 291
316 316 315 314 314 314 314 314 313 312 310 309 309 308 308 309 309 304 299 299 305 302 288 291 296 295 297 301 295 296 302 297 291 288 287 283 286 292 291 288 288 285 284 286 284 291 292
315 314 314 314 313 313 313 313 314 313 312 309 309 308 307 307 301 299 297 305 306 306 283 284 291 294 299 300 293 302 303 298 292 287 289 286 290 290 288 288 289 284 291 290 290 283 276
314 313 314 314 313 313 313 313 313 313 313 310 309 308 307 307 297 296 301 305 305 300 269 288 291 302 299 294 294 295 302 298 290 290 289 283 286 286 288 289 291 288 293 291 290 285 281
314 314 313 314 313 313 313 313 313 313 313 313 308 308 309 304 300 302 305 303 300 277 273 285 292 292 292 294 294 296 298 300 297 291 290 288 293 292 291 293 293 294 290 289 288 286 273
313 314 312 313 313 313 313 313 314 313 313 312 309 308 306 306 297 304 302 296 279 275 287 286 288 291 290 290 291 293 292 290 286 278 279 289 289 293 295 290 293 290 283 273 272 272 272
312 313 312 312 313 313 313 313 313 312 311 310 308 307 304 304 304 304 298 287 276 285 286 292 291 291 288 291 291 292 289 285 290 289 281 278 274 290 293 292 287 290 288 274 267 271 273
310 311 311 311 312 312 313 313 313 312 310 307 308 300 299 302 304 301 291 281 279 284 290 289 290 287 287 291 291 290 290 289 290 291 281 281 282 293 293 297 295 287 285 291 278 279 273
310 311 311 311 312 312 312 313 313 312 309 307 298 298 298 303 302 297 286 282 286 293 293 292 284 288 283 287 287 287 286 290 291 293 293 289 281 292 293 295 295 293 294 284 282 271 276
310 310 311 310 311 312 312 312 312 312 309 308 297 294 301 304 299 292 280 283 291 296 295 291 288 287 286 286 288 286 286 290 294 293 293 292 289 287 292 289 288 289 286 287 286 285 277
311 309 310 310 311 311 312 312 311 311 309 302 298 288 301 302 289 289 282 291 295 294 296 294 293 291 288 290 288 287 287 290 296 295 290 291 288 280 286 292 294 290 287 286 278 280 283
311 310 309 310 310 311 312 312 312 311 310 298 295 294 302 301 284 281 290 293 294 294 293 293 292 294 293 289 286 288 290 295 297 294 290 290 285 275 279 284 288 286 288 289 286 282 277
310 310 309 309 310 311 311 311 311 311 311 300 296 286 295 294 293 288 289 290 290 295 294 294 293 293 291 288 290 288 289 294 296 295 298 295 286 282 278 281 285 283 286 288 285 275 277
310 310 310 308 309 310 310 311 310 310 311 301 293 287 291 284 289 289 291 291 290 290 294 293 290 291 289 285 286 286 290 290 294 297 292 290 282 282 285 286 286 285 285 286 283 284 280
311 310 309 309 308 309 310 311 310 309 310 297 292 291 291 289 290 289 290 288 290 291 291 290 289 291 289 286 287 285 287 287 288 290 289 290 281 283 278 285 285 282 285 286 286 287 286
311 310 309 309 307 308 309 310 310 309 306 294 295 294 292 290 288 286 286 288 290 292 292 293 291 289 288 290 290 290 291 290 289 287 287 286 282 278 276 282 282 277 281 285 285 286 287
311 310 309 308 308 307 309 310 310 309 305 297 295 294 290 286 288 288 290 291 290 290 289 292 291 289 292 294 293 290 288 289 289 289 289 285 283 279 275 279 271 281 286 287 286 287 289
311 310 310 308 308 307 307 309 309 309 308 298 296 294 290 286 288 289 290 289 289 289 288 291 292 293 293 291 286 282 283 283 286 288 287 288 284 277 275 275 280 282 284 284 283 283 289
312 310 310 309 307 307 306 308 309 308 307 298 294 295 293 287 285 290 289 289 286 284 287 290 292 294 293 288 284 278 276 278 279 282 286 287 286 281 278 276 274 280 284 288 286 277 286
313 312 310 309 308 307 306 306 309 308 307 298 295 295 294 288 290 289 286 288 290 287 285 287 289 290 291 284 281 278 276 281 277 277 277 280 280 278 277 276 280 286 286 289 275 279 286
313 313 311 310 308 307 306 306 307 308 307 298 295 295 293 287 289 292 292 289 289 288 284 288 286 288 287 282 281 280 279 281 278 280 280 279 277 277 278 276 274 288 287 282 284 287 287
312 313 312 310 309 307 306 306 305 307 307 304 293 297 295 290 289 294 294 294 295 294 292 290 287 288 289 284 282 281 280 280 279 276 281 278 283 281 282 282 287 288 287 290 289 288 287

GFSGBSN_sfc_thetae_114.txt.gz
Theta_e
314 314 314 314 314 313 315 315 315 314 313 313 313 313 313 313 312 312 312 312 314 316 314 313 315 319 312 302 302 314 323 321 313 309 304 299 295 294 291 292 292 291 293 295 295 294 292
314 314 314 314 313 313 313 314 314 314 314 313 313 313 312 312 312 313 313 314 314 314 313 313 313 316 307 295 312 314 314 314 309 306 301 299 296 297 293 291 290 293 294 293 293 292 292
314 314 314 314 314 313 313 313 313 313 313 313 313 312 312 312 312 312 313 314 314 314 314 313 314 312 304 302 313 315 311 307 306 305 300 300 299 296 293 290 293 292 288 289 290 291 290
314 313 313 314 314 314 313 312 312 312 312 312 312 311 311 312 312 312 312 312 312 312 313 314 314 307 300 312 315 309 310 305 304 304 303 302 301 296 293 293 291 287 285 281 288 291 292
314 313 313 313 314 313 314 312 311 311 311 311 312 312 311 311 311 311 312 312 312 312 313 312 305 301 296 312 305 309 309 303 302 301 302 303 299 292 291 285 280 283 276 280 285 292 292
317 314 313 312 313 313 314 312 311 311 310 310 309 309 309 311 311 311 311 310 310 308 306 307 305 296 300 299 305 307 308 306 300 297 296 295 291 286 285 281 274 277 279 282 282 288 289
318 316 315 314 314 314 315 314 311 310 309 310 310 308 309 311 312 312 305 301 296 295 299 296 296 296 299 303 307 303 306 302 300 294 286 292 284 279 284 286 287 284 283 282 286 291 287
316 314 315 314 314 314 314 314 312 310 309 308 309 308 310 311 310 309 302 296 298 299 289 297 299 299 302 303 295 300 306 295 295 286 290 285 280 287 290 290 288 286 284 283 288 292 290
315 314 314 314 314 314 313 313 313 312 309 308 308 309 308 309 308 302 298 299 304 302 289 291 297 295 297 300 294 296 301 297 292 287 287 283 286 291 290 287 286 285 284 285 283 290 290
314 314 314 314 314 313 313 313 313 313 310 309 309 308 307 308 300 298 296 304 305 304 281 284 291 295 299 300 293 301 303 298 292 287 288 285 289 289 287 286 287 282 290 290 289 282 276
314 314 313 313 314 313 314 313 313 313 312 309 308 307 308 306 297 295 300 304 303 297 270 287 291 301 300 294 293 296 302 298 290 291 287 282 285 286 287 287 290 286 292 289 288 283 279
313 313 313 312 313 313 313 313 313 313 312 310 308 308 309 302 299 301 304 302 298 277 272 285 293 291 291 294 294 295 297 299 297 291 289 287 291 290 290 292 292 293 289 288 286 281 272
312 312 312 312 312 313 313 313 312 312 312 311 308 310 305 305 296 303 302 295 278 274 287 286 288 291 290 289 291 292 290 289 286 278 277 287 288 292 293 289 291 289 280 270 271 274 271
311 311 311 312 312 312 313 312 313 312 311 311 309 307 304 304 303 302 297 285 275 284 286 291 291 291 287 290 291 291 288 284 288 286 279 274 274 288 292 289 286 286 282 272 268 271 272
310 310 311 312 312 312 312 312 312 312 309 309 308 299 298 300 304 301 289 280 278 284 290 289 289 286 286 290 290 289 287 287 288 289 281 278 279 292 292 296 292 285 279 288 277 277 274
310 310 311 311 312 312 312 312 312 312 309 308 297 296 297 302 301 295 285 282 285 292 292 291 284 288 284 287 287 287 287 290 290 292 291 287 279 290 292 294 294 290 292 281 280 271 272
310 310 310 311 311 311 311 312 312 312 310 307 296 292 300 302 298 291 279 282 290 294 294 290 287 286 286 286 287 286 285 290 293 291 292 290 286 288 292 288 286 288 284 285 283 279 273
311 310 309 310 311 311 311 311 311 311 308 301 295 288 300 300 288 286 281 290 295 293 294 292 291 290 287 287 286 285 286 289 294 294 288 289 286 279 285 290 292 289 286 285 277 277 279
311 310 310 309 310 311 311 311 310 311 309 297 293 293 300 298 284 281 289 291 293 292 292 292 291 292 291 288 285 287 288 294 296 293 288 289 284 274 279 284 287 287 287 287 284 281 277
310 310 310 308 309 310 310 311 311 310 311 299 293 286 293 292 290 287 287 289 289 294 292 293 291 292 290 287 288 286 287 293 294 294 298 294 285 281 276 280 284 283 285 287 284 275 277
311 310 310 309 308 310 310 311 311 310 312 298 290 286 289 283 288 288 288 289 288 288 292 292 289 289 287 283 285 285 288 289 293 296 291 289 281 280 283 285 285 285 284 285 283 286 279
311 310 310 309 308 309 310 311 310 310 309 295 291 289 289 287 288 287 288 287 289 289 289 288 287 289 288 285 285 285 286 286 287 288 288 288 280 281 277 283 283 282 284 285 286 286 285
311 310 310 309 308 307 309 310 310 309 304 292 292 292 290 288 287 285 285 288 289 291 291 291 290 288 287 289 290 289 289 289 287 287 286 285 281 278 275 280 281 277 282 284 284 285 287
311 310 310 309 308 307 308 310 310 309 303 295 293 292 289 285 286 287 288 289 289 289 288 291 290 288 291 292 291 289 286 288 287 288 288 283 282 278 275 278 270 280 283 285 285 286 288
312 311 310 309 308 308 307 309 309 309 307 294 293 293 289 284 286 287 288 287 288 289 288 289 291 292 292 289 284 281 280 282 284 286 286 287 283 277 274 274 279 281 282 283 282 282 287
313 312 310 309 308 307 307 307 309 308 307 296 292 293 291 285 283 287 288 287 284 282 285 289 291 292 291 287 283 277 275 278 278 280 285 286 285 280 277 275 273 279 282 287 284 277 282
313 312 311 310 309 307 307 306 308 308 307 297 293 293 293 287 288 287 285 286 288 284 283 285 288 288 289 283 280 278 276 280 276 277 278 280 279 278 277 276 279 285 285 286 276 279 285
312 313 312 310 309 308 307 307 306 307 307 298 294 293 291 286 288 291 291 288 288 287 283 285 285 286 285 281 280 279 278 279 277 279 279 279 276 276 276 275 274 287 286 282 284 285 286
310 312 312 311 310 308 307 307 306 306 307 301 292 296 294 289 288 292 294 292 292 292 289 288 285 287 287 282 281 280 280 278 278 276 279 278 282 279 281 281 286 287 287 288 287 286 287

GFSGBSN_sfc_thetae_117.txt.gz
Theta_e
315 314 315 315 315 314 314 315 315 314 314 314 314 313 313 313 312 312 312 312 313 315 314 315 315 318 312 302 302 315 322 317 311 308 302 298 294 293 290 291 292 290 292 295 294 293 291
314 314 315 315 315 314 314 313 314 314 313 313 313 312 312 313 313 313 313 313 314 314 314 313 315 315 305 294 312 314 316 310 307 304 299 298 294 296 292 290 289 292 293 291 291 291 291
314 314 314 315 314 314 314 313 312 312 313 313 312 312 312 313 313 313 314 314 314 314 314 315 315 311 304 300 313 314 312 308 304 304 298 300 298 295 292 289 292 291 287 288 289 290 290
315 314 314 314 314 314 314 312 311 311 312 313 312 312 312 312 312 312 312 313 313 313 314 314 315 306 300 312 314 310 310 305 303 303 301 301 300 295 292 291 289 285 284 280 287 289 291
318 316 315 315 315 315 315 312 311 311 311 311 311 311 310 311 311 312 313 313 313 312 313 311 304 302 297 312 305 309 310 303 303 300 301 302 297 291 291 284 279 282 275 280 284 290 290
316 315 315 315 315 315 315 312 311 310 311 311 309 309 311 310 310 312 312 311 311 308 306 306 304 294 300 298 304 307 310 305 299 296 295 295 289 285 285 280 275 278 279 281 281 287 288
314 315 315 315 315 315 314 313 311 310 309 309 309 309 311 311 310 310 305 300 295 296 299 296 297 296 298 303 306 303 307 302 298 292 286 290 283 278 283 284 283 283 282 281 284 290 286
314 315 314 315 315 315 315 314 312 310 309 309 309 309 311 310 310 309 302 296 297 299 290 298 299 299 302 302 295 300 305 295 292 285 289 284 280 285 289 289 286 284 282 281 287 290 288
314 314 314 314 315 315 315 313 313 311 309 308 307 308 309 309 308 302 298 299 304 302 289 291 297 296 298 301 295 296 302 296 291 287 286 282 284 290 288 286 286 284 282 283 281 288 288
314 313 314 313 314 315 315 314 314 312 309 309 307 308 308 308 299 297 295 303 304 304 282 284 291 296 298 300 293 301 302 296 292 286 287 285 288 288 287 285 285 281 288 289 287 281 275
314 312 312 313 313 314 314 314 313 313 309 309 308 308 308 304 296 294 299 303 303 296 272 288 291 302 300 294 293 296 300 297 291 289 286 282 284 286 286 286 289 285 290 288 287 282 277
311 312 312 312 312 312 314 313 312 312 311 309 308 308 308 302 299 300 303 300 295 277 273 286 293 292 291 293 293 295 296 298 297 290 288 286 290 290 288 291 291 292 288 285 284 280 271
311 311 312 312 313 312 312 312 312 312 312 311 308 310 305 304 295 303 300 293 278 274 286 284 288 291 290 289 291 292 291 290 284 278 276 285 287 291 292 287 290 287 280 269 270 270 271
310 310 311 312 312 312 312 313 312 312 310 311 308 305 303 303 302 301 296 284 277 284 285 291 291 290 287 290 290 290 287 284 289 286 279 274 273 287 291 288 285 284 281 271 267 270 272
310 310 310 312 312 312 312 312 313 312 309 310 307 298 297 299 303 299 289 277 277 283 289 288 289 284 285 290 288 287 286 286 287 287 280 277 276 290 291 293 290 284 278 285 276 275 275
310 310 310 311 312 312 312 312 312 312 310 308 296 295 296 301 300 293 285 281 285 291 292 290 283 287 282 284 285 284 285 288 288 291 290 285 279 289 291 294 292 288 290 278 279 270 272
311 310 310 310 310 311 311 312 312 311 310 306 295 292 298 301 297 290 279 282 289 294 294 290 287 286 286 286 286 284 284 289 291 290 291 288 284 287 292 287 285 287 283 283 281 278 272
311 311 310 309 310 311 311 311 311 310 309 300 294 287 299 299 288 284 280 288 294 291 293 291 290 289 286 286 285 285 284 287 293 292 287 288 285 279 284 289 291 288 285 283 277 276 278
311 311 310 309 309 310 311 311 311 311 307 296 292 291 299 296 283 280 288 290 291 291 290 291 290 291 290 287 284 286 287 292 294 292 288 288 283 274 279 283 286 285 286 286 283 280 277
311 310 310 309 308 310 310 310 310 311 311 298 291 285 291 291 288 287 286 287 288 292 291 291 290 291 288 286 288 285 286 292 293 293 297 293 283 280 275 279 283 283 284 285 284 275 277
311 310 310 310 308 309 310 310 311 310 312 297 289 286 287 283 287 286 287 288 287 287 290 290 287 288 286 283 284 284 287 288 291 296 290 288 280 279 282 284 284 283 283 284 282 285 280
311 310 310 310 309 308 310 310 310 310 310 293 290 288 287 286 287 285 287 285 287 288 288 287 286 288 287 284 285 284 287 285 285 287 286 287 280 280 276 282 282 282 283 284 285 286 286
311 310 310 309 309 308 308 310 310 309 302 292 290 290 289 287 285 283 283 286 287 289 290 290 288 287 286 287 288 287 288 288 286 287 285 284 281 277 275 279 280 276 280 283 283 284 286
311 310 310 309 308 308 307 309 310 309 301 293 291 291 289 284 285 286 287 288 288 288 287 290 289 286 289 292 290 288 285 285 285 285 287 282 281 278 274 277 269 279 283 284 284 285 287
312 311 310 309 308 308 307 308 309 309 305 293 291 291 287 283 285 286 288 287 287 287 286 287 290 290 291 288 283 280 280 281 282 284 284 285 282 276 272 273 278 278 281 282 281 281 285
313 312 310 309 308 307 307 307 308 308 306 294 291 291 289 283 282 287 287 287 284 281 284 288 290 291 289 285 282 276 274 276 277 279 284 285 284 279 277 274 272 276 282 285 283 277 280
312 313 312 310 309 308 307 307 307 307 306 295 292 292 291 285 286 286 285 285 287 283 282 283 286 287 287 282 280 277 275 279 276 277 278 279 278 277 277 275 279 284 285 286 277 279 282
310 312 312 311 309 308 307 307 306 307 306 297 293 293 290 285 286 290 291 287 288 286 282 284 284 284 284 281 280 278 277 278 276 277 278 278 276 277 277 275 274 286 284 281 284 284 287
310 311 311 311 310 309 307 307 306 306 306 299 293 295 294 289 288 291 292 292 291 290 287 286 284 285 286 281 280 279 279 277 277 275 278 277 281 279 280 280 285 286 285 286 287 286 287